[[{"header":{"parameterUnit":"m.s-1","parameterCategory":1,"la1":30.6,"la2":28.766,"lo1":-90.7593,"lo2":-88.6598,"dx":0.0162,"dy":0.0183,"nx":116,"ny":114,"refTime":"2022-12-09T06:00:00:Z","depth":0,"parameterNumber":2,"parameterNumberName":"U-component_of_WINDS"},"data":[0.0,0.0,0.0,0.0,0.0,0.0,0.0,0.0,0.0,0.0,0.0,0.0,0.0,0.0,0.0,0.0,0.0,0.0,0.0,0.0,0.0,0.0,0.0,0.0,0.0,0.0,0.0,0.0,0.0,0.0,0.0,0.0,0.0,0.0,0.0,0.0,0.0,0.0,0.0,0.0,0.0,0.0,0.0,0.0,0.0,0.0,0.0,0.0,0.0,0.0,0.0,0.0,0.0,0.0,0.0,0.0,0.0,0.0,0.0,0.0,0.0,0.0,0.0,0.0,0.0,0.0,0.0,0.0,0.0,0.0,0.0,0.0,0.0,0.0,0.0,0.0,0.0,0.0,0.0,0.0,0.0,0.0,0.0,0.0,0.0,0.0,0.0,0.0,0.0,0.0,0.0,0.0,0.0,0.0,0.0,0.0,0.0,0.0,0.0,0.0,0.0,0.0,0.0,0.0,0.0,0.0,0.0,0.0,0.0,0.0,0.0,0.0,0.0,0.0,0.0,0.0,0.0,0.0,0.0,0.0,0.0,0.0,0.0,0.0,0.0,0.0,0.0,0.0,0.0,0.0,0.0,0.0,0.0,0.0,0.0,0.0,0.0,0.0,0.0,0.0,0.0,0.0,0.0,0.0,0.0,0.0,0.0,0.0,0.0,0.0,0.0,0.0,0.0,0.0,0.0,0.0,0.0,0.0,0.0,0.0,0.0,0.0,0.0,0.0,0.0,0.0,0.0,0.0,0.0,0.0,0.0,0.0,0.0,0.0,0.0,0.0,0.0,0.0,0.0,0.0,0.0,0.0,0.0,0.0,0.0,0.0,0.0,0.0,0.0,0.0,0.0,0.0,0.0,0.0,0.0,0.0,0.0,0.0,0.0,0.0,0.0,0.0,0.0,0.0,0.0,0.0,0.0,0.0,0.0,0.0,0.0,0.0,0.0,0.0,0.0,0.0,0.0,0.0,0.0,0.0,0.0,0.0,0.0,0.0,0.0,0.0,0.0,0.0,0.0,0.0,0.0,0.0,0.0,0.0,0.0,0.0,0.0,0.0,0.0,0.0,0.0,0.0,0.0,0.0,0.0,0.0,0.0,0.0,0.0,0.0,0.0,0.0,0.0,0.0,0.0,0.0,0.0,0.0,0.0,0.0,0.0,0.0,0.0,0.0,0.0,0.0,0.0,0.0,0.0,0.0,0.0,0.0,0.0,0.0,0.0,0.0,0.0,0.0,0.0,0.0,0.0,0.0,0.0,0.0,0.0,0.0,0.0,0.0,0.0,0.0,0.0,0.0,0.0,0.0,0.0,0.0,0.0,0.0,0.0,0.0,0.0,0.0,0.0,0.0,0.0,0.0,0.0,0.0,0.0,0.0,0.0,0.0,0.0,0.0,0.0,0.0,0.0,0.0,0.0,0.0,0.0,0.0,0.0,0.0,0.0,0.0,0.0,0.0,0.0,0.0,0.0,0.0,0.0,0.0,0.0,0.0,0.0,0.0,0.0,0.0,0.0,0.0,0.0,0.0,0.0,0.0,0.0,0.0,0.0,0.0,0.0,0.0,0.0,0.0,0.0,0.0,0.0,0.0,0.0,0.0,0.0,0.0,0.0,0.0,0.0,0.0,0.0,0.0,0.0,0.0,0.0,0.0,0.0,0.0,0.0,0.0,0.0,0.0,0.0,0.0,0.0,0.0,0.0,0.0,0.0,0.0,0.0,0.0,0.0,0.0,0.0,0.0,0.0,0.0,0.0,0.0,0.0,0.0,0.0,0.0,0.0,0.0,0.0,0.0,0.0,0.0,0.0,0.0,0.0,0.0,0.0,0.0,0.0,0.0,0.0,0.0,0.0,0.0,0.0,0.0,0.0,0.0,0.0,0.0,0.0,0.0,0.0,0.0,0.0,0.0,0.0,0.0,0.0,0.0,0.0,0.0,0.0,0.0,0.0,0.0,0.0,0.0,0.0,0.0,0.0,0.0,0.0,0.0,0.0,0.0,0.0,0.0,0.0,0.0,0.0,0.0,0.0,0.0,0.0,0.0,0.0,0.0,0.0,0.0,0.0,0.0,0.0,0.0,0.0,0.0,0.0,0.0,0.0,0.0,0.0,0.0,0.0,0.0,0.0,0.0,0.0,0.0,0.0,0.0,0.0,0.0,0.0,0.0,0.0,0.0,0.0,0.0,0.0,0.0,0.0,0.0,0.0,0.0,0.0,0.0,0.0,0.0,0.0,0.0,0.0,0.0,0.0,0.0,0.0,0.0,0.0,0.0,0.0,0.0,0.0,0.0,0.0,0.0,0.0,0.0,0.0,0.0,0.0,0.0,0.0,0.0,0.0,0.0,0.0,0.0,0.0,0.0,0.0,0.0,0.0,0.0,0.0,0.0,0.0,0.0,0.0,0.0,0.0,0.0,0.0,0.0,0.0,0.0,0.0,0.0,0.0,0.0,0.0,0.0,0.0,0.0,0.0,0.0,0.0,0.0,0.0,0.0,0.0,0.0,0.0,0.0,0.0,0.0,0.0,0.0,0.0,0.0,0.0,0.0,0.0,0.0,0.0,0.0,0.0,0.0,0.0,0.0,0.0,0.0,0.0,0.0,0.0,0.0,0.0,0.0,0.0,0.0,0.0,0.0,0.0,0.0,0.0,0.0,0.0,0.0,0.0,0.0,0.0,0.0,0.0,0.0,0.0,0.0,0.0,0.0,0.0,0.0,0.0,0.0,0.0,0.0,0.0,0.0,0.0,0.0,0.0,0.0,0.0,0.0,0.0,0.0,0.0,0.0,0.0,0.0,0.0,0.0,0.0,0.0,0.0,0.0,0.0,0.0,0.0,0.0,0.0,0.0,0.0,0.0,0.0,0.0,0.0,0.0,0.0,0.0,0.0,0.0,0.0,0.0,0.0,0.0,0.0,0.0,0.0,0.0,0.0,0.0,0.0,0.0,0.0,0.0,0.0,0.0,0.0,0.0,0.0,0.0,0.0,0.0,0.0,0.0,0.0,0.0,0.0,0.0,0.0,0.0,0.0,0.0,0.0,0.0,0.0,0.0,0.0,0.0,0.0,0.0,0.0,0.0,0.0,0.0,0.0,0.0,0.0,0.0,0.0,0.0,0.0,0.0,0.0,0.0,0.0,0.0,0.0,0.0,0.0,0.0,0.0,0.0,0.0,0.0,0.0,0.0,0.0,0.0,0.0,0.0,0.0,0.0,0.0,0.0,0.0,0.0,0.0,0.0,0.0,0.0,0.0,0.0,0.0,0.0,0.0,0.0,0.0,0.0,0.0,0.0,0.0,0.0,0.0,0.0,0.0,0.0,0.0,0.0,0.0,0.0,0.0,0.0,0.0,0.0,0.0,0.0,0.0,0.0,0.0,0.0,0.0,0.0,0.0,0.0,0.0,0.0,0.0,0.0,0.0,0.0,0.0,0.0,0.0,0.0,0.0,0.0,0.0,0.0,0.0,0.0,0.0,0.0,0.0,0.0,0.0,0.0,0.0,0.0,0.0,0.0,0.0,0.0,0.0,0.0,0.0,0.0,0.0,0.0,0.0,0.0,0.0,0.0,0.0,0.0,0.0,0.0,0.0,0.0,0.0,0.0,0.0,0.0,0.0,0.0,0.0,0.0,0.0,0.0,0.0,0.0,0.0,0.0,0.0,0.0,0.0,0.0,0.0,0.0,0.0,0.0,0.0,0.0,0.0,0.0,0.0,0.0,0.0,0.0,0.0,0.0,0.0,0.0,0.0,0.0,0.0,0.0,0.0,0.0,0.0,0.0,0.0,0.0,0.0,0.0,0.0,0.0,0.0,0.0,0.0,0.0,0.0,0.0,0.0,0.0,0.0,0.0,0.0,0.0,0.0,0.0,0.0,0.0,0.0,0.0,0.0,0.0,0.0,0.0,0.0,0.0,0.0,0.0,0.0,0.0,0.0,0.0,0.0,0.0,0.0,0.0,0.0,0.0,0.0,0.0,0.0,0.0,0.0,0.0,0.0,0.0,0.0,0.0,0.0,0.0,0.0,0.0,0.0,0.0,0.0,0.0,0.0,0.0,0.0,0.0,0.0,0.0,0.0,0.0,0.0,0.0,0.0,0.0,0.0,0.0,0.0,0.0,0.0,0.0,0.0,0.0,0.0,0.0,0.0,0.0,0.0,0.0,0.0,0.0,0.0,0.0,0.0,0.0,0.0,0.0,0.0,0.0,0.0,0.0,0.0,0.0,0.0,0.0,0.0,0.0,0.0,0.0,0.0,0.0,0.0,0.0,0.0,0.0,0.0,0.0,0.0,0.0,0.0,0.0,0.0,0.0,0.0,0.0,0.0,0.0,0.0,0.0,0.0,0.0,0.0,0.0,0.0,0.0,0.0,0.0,0.0,0.0,0.0,0.0,0.0,0.0,0.0,0.0,0.0,0.0,0.0,0.0,0.0,0.0,0.0,0.0,0.0,0.0,0.0,0.0,0.0,0.0,0.0,0.0,0.0,0.0,0.0,0.0,0.0,0.0,0.0,0.0,0.0,0.0,0.0,0.0,0.0,0.0,0.0,0.0,0.0,0.0,0.0,0.0,0.0,0.0,0.0,0.0,0.0,0.0,0.0,0.0,0.0,0.0,0.0,0.0,0.0,0.0,0.0,0.0,0.0,0.0,0.0,0.0,0.0,0.0,0.0,0.0,0.0,0.0,0.0,0.0,0.0,0.0,0.0,0.0,0.0,0.0,0.0,0.0,0.0,0.0,0.0,0.0,0.0,0.0,0.0,0.0,0.0,0.0,0.0,0.0,0.0,0.0,0.0,0.0,0.0,0.0,0.0,0.0,0.0,0.0,0.0,0.0,0.0,0.0,0.0,0.0,0.0,0.0,0.0,0.0,0.0,0.0,0.0,0.0,0.0,0.0,0.0,0.0,0.0,0.0,0.0,0.0,0.0,0.0,0.0,0.0,0.0,0.0,0.0,0.0,0.0,0.0,0.0,0.0,0.0,0.0,0.0,0.0,0.0,0.0,0.0,0.0,0.0,0.0,0.0,0.0,0.0,0.0,0.0,0.0,0.0,0.0,0.0,0.0,0.0,0.0,0.0,0.0,0.0,0.0,0.0,0.0,0.0,0.0,0.0,0.0,0.0,0.0,0.0,0.0,0.0,0.0,0.0,0.0,0.0,0.0,0.0,0.0,0.0,0.0,0.0,0.0,0.0,0.0,0.0,0.0,0.0,0.0,0.0,0.0,0.0,0.0,0.0,0.0,0.0,0.0,0.0,0.0,0.0,0.0,0.0,0.0,0.0,0.0,0.0,0.0,0.0,0.0,0.0,0.0,0.0,0.0,0.0,0.0,0.0,0.0,0.0,0.0,0.0,0.0,0.0,0.0,0.0,0.0,0.0,0.0,0.0,0.0,0.0,0.0,0.0,0.0,0.0,0.0,0.0,0.0,0.0,0.0,0.0,0.0,0.0,0.0,0.0,0.0,0.0,0.0,0.0,0.0,0.0,0.0,0.0,0.0,0.0,0.0,0.0,0.0,0.0,0.0,0.0,0.0,0.0,0.0,0.0,0.0,0.0,0.0,0.0,0.0,0.0,0.0,0.0,0.0,0.0,0.0,0.0,0.0,0.0,0.0,0.0,0.0,0.0,0.0,0.0,0.0,0.0,0.0,0.0,0.0,0.0,0.0,0.0,0.0,0.0,0.0,0.0,0.0,0.0,0.0,0.0,0.0,0.0,0.0,0.0,0.0,0.0,0.0,0.0,0.0,0.0,0.0,0.0,0.0,0.0,0.0,0.0,0.0,0.0,0.0,0.0,0.0,0.0,0.0,0.0,0.0,0.0,0.0,0.0,0.0,0.0,0.0,0.0,0.0,0.0,0.0,0.0,0.0,0.0,0.0,0.0,0.0,0.0,0.0,0.0,0.0,0.0,0.0,0.0,0.0,0.0,0.0,0.0,0.0,0.0,0.0,0.0,0.0,0.0,0.0,0.0,0.0,0.0,0.0,0.0,0.0,0.0,0.0,0.0,0.0,0.0,0.0,0.0,0.0,0.0,0.0,0.0,0.0,0.0,0.0,0.0,0.0,0.0,0.0,0.0,0.0,0.0,0.0,0.0,0.0,0.0,0.0,0.0,0.0,-4.6521,0.0,0.0,0.0,0.0,0.0,0.0,0.0,0.0,0.0,0.0,0.0,0.0,0.0,0.0,0.0,0.0,0.0,0.0,0.0,0.0,0.0,0.0,0.0,0.0,0.0,0.0,0.0,0.0,0.0,0.0,0.0,0.0,0.0,0.0,0.0,0.0,0.0,-3.9718,-3.9377,-4.1495,-4.2721,-4.3176,-4.3349,-4.2496,-4.0767,0.0,0.0,0.0,0.0,0.0,0.0,0.0,0.0,0.0,0.0,0.0,0.0,0.0,0.0,0.0,0.0,0.0,0.0,0.0,0.0,0.0,0.0,0.0,0.0,0.0,0.0,0.0,0.0,0.0,0.0,0.0,0.0,0.0,0.0,0.0,0.0,0.0,0.0,0.0,0.0,0.0,0.0,0.0,0.0,0.0,0.0,0.0,0.0,0.0,0.0,0.0,0.0,0.0,0.0,0.0,0.0,0.0,0.0,0.0,0.0,0.0,0.0,0.0,0.0,0.0,0.0,0.0,0.0,0.0,0.0,0.0,-4.8093,0.0,0.0,0.0,0.0,0.0,0.0,0.0,0.0,0.0,0.0,0.0,0.0,0.0,0.0,0.0,0.0,0.0,0.0,0.0,0.0,0.0,0.0,0.0,-4.1606,-4.15,-4.1266,-4.1572,-4.1579,0.0,0.0,0.0,0.0,0.0,0.0,0.0,-3.9565,-4.0433,-4.0485,-4.4099,-4.6338,-4.7252,-4.7973,-4.7154,-4.4934,-4.3937,0.0,0.0,0.0,0.0,0.0,0.0,0.0,0.0,0.0,0.0,0.0,0.0,0.0,0.0,0.0,0.0,0.0,0.0,0.0,0.0,0.0,0.0,0.0,0.0,0.0,0.0,0.0,0.0,0.0,0.0,0.0,0.0,0.0,0.0,0.0,0.0,0.0,0.0,0.0,0.0,0.0,0.0,0.0,0.0,0.0,0.0,0.0,0.0,0.0,0.0,0.0,0.0,0.0,0.0,0.0,0.0,0.0,0.0,0.0,0.0,0.0,0.0,0.0,-5.3368,-5.3391,-5.2921,-5.3327,-5.3526,-5.3466,-5.2587,-5.1506,-5.0366,-4.9959,0.0,0.0,0.0,0.0,0.0,0.0,0.0,0.0,0.0,0.0,0.0,0.0,0.0,0.0,0.0,0.0,0.0,0.0,0.0,0.0,0.0,-4.3108,-4.3628,-4.4887,-4.3945,-4.3276,-4.3208,0.0,0.0,0.0,0.0,0.0,-4.0118,-4.0334,-4.1732,-4.4297,-4.791,-5.0144,-5.0974,-4.9776,-4.9133,-4.8789,-4.7347,-4.5062,-4.2327,0.0,0.0,0.0,0.0,0.0,0.0,0.0,0.0,0.0,0.0,0.0,0.0,0.0,0.0,0.0,0.0,0.0,0.0,0.0,0.0,0.0,0.0,0.0,0.0,0.0,0.0,0.0,0.0,0.0,0.0,0.0,0.0,0.0,0.0,0.0,0.0,0.0,0.0,0.0,0.0,0.0,-4.9061,-4.833,0.0,0.0,0.0,0.0,0.0,0.0,0.0,0.0,0.0,0.0,0.0,0.0,0.0,-5.2072,-5.0695,-5.1532,-5.0746,-4.8381,-5.0886,-5.1475,-5.039,-5.2317,-5.3216,-5.3216,-5.3101,0.0,-5.2946,-5.1012,0.0,0.0,0.0,0.0,0.0,0.0,0.0,0.0,0.0,0.0,0.0,0.0,0.0,0.0,0.0,0.0,0.0,0.0,0.0,0.0,0.0,-4.361,-4.4085,-4.4075,-4.4669,-4.4373,-4.2754,-4.2377,0.0,0.0,0.0,-4.0016,-3.9367,-4.216,-4.6074,-5.1142,-5.3063,-5.4371,-5.4976,-5.4715,-5.4093,-5.3149,-5.2918,-5.0361,-4.6154,-4.4529,0.0,0.0,0.0,0.0,0.0,0.0,0.0,0.0,0.0,0.0,0.0,0.0,0.0,0.0,0.0,0.0,0.0,0.0,0.0,0.0,0.0,0.0,0.0,0.0,0.0,0.0,0.0,0.0,0.0,0.0,0.0,0.0,0.0,0.0,0.0,0.0,0.0,0.0,0.0,-4.7772,-4.852,-4.7642,-4.8134,-4.8149,0.0,0.0,0.0,0.0,0.0,0.0,0.0,0.0,0.0,-4.8559,-5.0709,-5.1547,-5.08,-5.237,-5.2696,-5.1822,-5.3107,-5.3416,-5.2938,-5.392,-5.4456,-5.4656,-5.4656,-5.4598,-5.438,-5.165,-4.9972,-4.8957,0.0,0.0,0.0,0.0,-4.7381,-4.7012,0.0,0.0,0.0,0.0,0.0,0.0,0.0,0.0,0.0,0.0,0.0,0.0,-4.3899,-4.5395,-4.6191,-4.5762,-4.7146,-4.6855,-4.393,-4.3738,-4.2545,-3.9924,-3.9985,-3.9985,-3.9801,-4.516,-5.0518,-5.592,-5.7193,-5.7762,-5.7776,-5.82,-5.7556,-5.6096,-5.6596,-5.419,-4.9629,-4.701,-4.5663,-4.5065,0.0,0.0,0.0,0.0,0.0,0.0,0.0,0.0,0.0,0.0,0.0,0.0,0.0,0.0,0.0,0.0,0.0,0.0,0.0,0.0,0.0,0.0,0.0,0.0,0.0,0.0,0.0,0.0,0.0,0.0,0.0,0.0,0.0,0.0,0.0,0.0,0.0,-4.8089,-4.8647,-4.6748,-4.7957,-4.8272,0.0,0.0,0.0,0.0,0.0,0.0,-4.6438,-4.808,-4.8873,-4.8409,-5.0546,-5.1568,-5.1229,-5.3262,-5.4259,-5.4107,-5.4483,-5.4534,-5.4287,-5.4287,-5.4386,-5.4575,-5.4575,-5.4346,-5.3956,-5.1929,-5.0299,-4.9009,-4.8464,-4.8137,-4.8055,-4.8355,-4.8435,-4.8484,0.0,0.0,0.0,0.0,0.0,0.0,0.0,0.0,0.0,0.0,0.0,-4.6962,-4.8165,-4.9883,-5.17,-5.347,-5.331,-5.1891,-4.8963,-4.8736,-4.7097,-4.3501,-4.3963,-4.4024,-4.3377,-4.976,-5.4066,-5.592,-5.875,-5.9537,-5.8431,-5.787,-5.7273,-5.6651,-5.6176,-5.4122,-5.1199,-5.2247,-5.09,-4.7848,-4.5155,0.0,0.0,0.0,0.0,0.0,0.0,0.0,0.0,0.0,0.0,0.0,0.0,0.0,0.0,0.0,0.0,0.0,0.0,0.0,0.0,0.0,0.0,0.0,0.0,0.0,0.0,0.0,0.0,0.0,0.0,0.0,0.0,0.0,0.0,0.0,0.0,0.0,0.0,-4.6849,-4.8566,0.0,0.0,0.0,0.0,-4.7892,-4.7975,-4.7893,-4.7649,-4.9686,-5.0892,-5.0837,-5.3021,-5.3626,-5.2444,-5.3917,-5.3468,-5.115,-5.2608,-5.2673,-5.1504,-5.1504,-5.1332,-5.115,-5.115,-5.1037,-5.0876,-5.1622,-5.1513,-5.0671,-4.8541,-4.7406,-4.7028,-4.8186,-4.7599,-4.6434,0.0,0.0,0.0,-4.4532,-4.386,-4.3284,-4.286,-4.2509,-4.2455,-4.2963,-4.6041,-4.8212,-4.822,-5.2263,-5.4875,-5.464,-5.5866,-5.5511,-5.3001,-5.1423,-4.9356,-4.6539,-4.5272,-4.6307,-4.9916,-5.3302,-5.6472,-5.9444,-5.9996,-5.9854,-5.9002,-5.8419,-5.7614,-5.673,-5.6621,-5.55,-5.3713,-5.2905,-5.1887,-5.0631,-4.8835,-4.6741,0.0,0.0,0.0,0.0,0.0,0.0,0.0,0.0,0.0,0.0,0.0,0.0,0.0,0.0,0.0,0.0,0.0,0.0,0.0,0.0,0.0,0.0,0.0,0.0,0.0,0.0,0.0,0.0,0.0,0.0,0.0,0.0,0.0,0.0,0.0,0.0,0.0,-4.7705,-4.9112,0.0,-4.7616,-4.6975,-4.6862,-4.7178,-4.7586,-4.7932,-4.8203,-5.0202,-5.1361,-5.1539,-5.2492,-5.2833,-5.2412,-5.2915,-5.2595,-5.1499,-5.2046,-5.2082,-5.1646,-5.187,-5.1874,-5.1827,-5.1998,-5.1804,-5.1379,-5.1736,-5.1492,-5.0877,-5.0095,-4.9719,-4.9739,-5.015,-5.0344,-5.0397,0.0,0.0,0.0,-4.4619,-4.4144,-4.3773,-4.334,-4.2908,-4.3403,-4.5399,-4.82,-5.0357,-5.1312,-5.5466,-5.79,-5.7227,-5.8609,-5.8184,-5.4982,-5.3302,-5.0902,-4.7344,-4.6739,-4.9047,-5.4536,-5.6144,-5.8404,-6.1403,-6.0897,-6.0329,-5.9633,-5.9301,-5.8683,-5.7894,-5.7641,-5.694,-5.6003,-5.449,-5.3832,-5.3683,-5.1708,-4.9314,-4.689,0.0,0.0,0.0,0.0,0.0,0.0,0.0,0.0,0.0,0.0,0.0,0.0,0.0,0.0,0.0,0.0,0.0,0.0,0.0,0.0,0.0,0.0,0.0,0.0,0.0,0.0,0.0,0.0,0.0,0.0,0.0,0.0,0.0,0.0,0.0,-4.83,-4.7424,-4.8926,-4.9488,-4.8273,-4.7639,-4.7522,-4.7971,-4.8461,-4.8948,-4.9455,-5.0857,-5.1725,-5.1951,-5.1951,-5.2082,-5.228,-5.2287,-5.219,-5.2057,-5.2127,-5.2202,-5.2362,-5.2629,-5.2726,-5.2811,-5.2982,-5.2813,-5.2305,-5.2305,-5.2137,-5.1762,-5.1256,-5.1144,-5.1364,-5.1607,-5.211,-5.2708,0.0,0.0,-4.6335,-4.5436,-4.4521,-4.4148,-4.4729,-4.4088,-4.5094,-4.9526,-5.1326,-5.3732,-5.7764,-5.9681,-6.0897,-6.1558,-6.1866,-5.9878,-5.4934,-5.459,-5.1907,-4.6058,-4.8738,-5.2461,-5.6912,-5.8405,-5.9885,-6.1466,-6.1403,-6.1024,-6.0329,-6.0297,-6.0297,-6.0249,-5.9197,-5.8362,-5.7789,-5.7342,-5.7146,-5.6877,-5.3623,-5.2306,-5.1887,0.0,0.0,0.0,0.0,0.0,0.0,0.0,0.0,0.0,0.0,0.0,0.0,0.0,0.0,0.0,0.0,0.0,0.0,0.0,0.0,0.0,0.0,0.0,0.0,0.0,0.0,0.0,0.0,0.0,0.0,0.0,0.0,0.0,-4.4965,-4.7825,-4.8906,-4.6071,-4.8025,-4.9196,-4.8265,-4.8421,-4.9124,-5.0511,-5.0869,-5.1136,-5.1511,-5.1762,-5.1976,-5.2396,-5.1763,-5.1722,-5.2356,-5.2253,-5.2329,-5.2641,-5.279,-5.3136,-5.3478,-5.3478,-5.358,-5.3668,-5.3734,-5.3621,-5.3452,-5.3452,-5.3505,-5.355,-5.1991,-5.1389,-5.1465,-5.2304,-5.2641,-5.2851,-4.8258,-4.7741,-4.7155,-4.6335,-4.5836,-4.5371,-4.5002,-4.5467,-4.6887,-4.9729,-5.3719,-5.6887,-5.8398,-6.1503,-6.3018,-6.1953,-6.2116,-6.1019,-5.7965,-5.6182,-5.377,-5.0452,-5.4327,-5.7385,-5.9112,-6.0672,-6.1954,-6.292,-6.1909,-6.1277,-6.1087,-6.055,-6.0105,-5.9767,-5.9474,-5.9037,-5.8485,-5.7963,-5.7747,-5.7604,-5.626,-5.461,-5.2755,0.0,0.0,0.0,0.0,0.0,0.0,0.0,0.0,0.0,0.0,0.0,0.0,0.0,0.0,0.0,0.0,0.0,0.0,0.0,0.0,0.0,0.0,0.0,0.0,0.0,0.0,0.0,0.0,0.0,0.0,0.0,0.0,-4.6168,-4.683,-4.7677,-4.8454,-4.9127,-4.9893,-5.0264,-5.0297,-5.0327,-5.0533,-5.0905,-5.1022,-5.146,-5.2414,-5.2751,-5.3217,-5.3886,-5.4004,-5.4004,-5.3911,-5.3865,-5.3631,-5.325,-5.3334,-5.3273,-5.3067,-5.3341,-5.3538,-5.3589,-5.3833,-5.3891,-5.3804,-5.3804,-5.3907,-5.3849,-5.3284,-5.311,-5.3292,-5.3512,-5.374,-5.4103,-4.8844,-4.843,-4.7913,-4.7217,-4.6852,-4.6644,-4.6542,-4.7004,-4.8836,-5.2941,-5.5703,-5.8352,-6.1152,-6.2874,-6.3436,-6.2548,-6.1477,-5.985,-5.7652,-5.5107,-5.405,-5.4951,-5.7574,-5.9757,-6.1428,-6.2396,-6.3078,-6.3489,-6.2383,-6.1845,-6.1814,-6.1469,-6.1182,-6.0938,-6.0693,-6.029,-5.9682,-5.9041,-5.8583,-5.8309,-5.7973,-5.6144,-5.3563,-5.3174,-5.1798,-4.9972,-4.9224,-4.9374,-4.9793,-4.9045,0.0,0.0,0.0,0.0,0.0,0.0,0.0,0.0,0.0,0.0,0.0,0.0,0.0,0.0,0.0,0.0,0.0,0.0,0.0,0.0,0.0,0.0,0.0,0.0,-4.5994,-4.7605,-4.8781,-4.8615,-4.8888,-5.0232,-5.0423,-5.055,-5.1057,-5.0994,-5.0994,-5.1309,-5.139,-5.1935,-5.2971,-5.3348,-5.3895,-5.4712,-5.4537,-5.4402,-5.4309,-5.3971,-5.3657,-5.3273,-5.3273,-5.3204,-5.3136,-5.341,-5.3614,-5.3725,-5.3929,-5.3997,-5.3997,-5.4174,-5.4174,0.0,0.0,0.0,0.0,0.0,-5.4443,-5.4805,-4.9114,-4.8947,-4.8706,-4.8051,-4.7836,-4.7992,-4.8609,-4.8587,-5.0827,-5.7353,-5.739,-5.8959,-6.4697,-6.397,-6.302,-6.31,-6.0439,-5.7872,-5.5607,-5.3383,-5.4189,-5.8892,-5.9443,-6.0861,-6.3552,-6.3584,-6.3584,-6.3584,-6.2888,-6.2491,-6.2541,-6.2692,-6.279,-6.2886,-6.2347,-6.1802,-6.1218,-6.0389,-5.9653,-5.9005,-5.8955,-5.7201,-5.462,-5.456,-5.3373,-5.1768,-5.1678,-5.2037,-5.2516,-5.2366,0.0,0.0,0.0,0.0,0.0,0.0,0.0,0.0,0.0,0.0,0.0,0.0,0.0,0.0,0.0,0.0,0.0,0.0,0.0,0.0,0.0,0.0,0.0,0.0,-4.76,-4.9055,-5.032,-4.9976,-4.9719,-5.0065,-5.0129,-5.0359,-5.0994,-5.0804,-5.0905,-5.1471,-5.1892,-5.2426,-5.3373,0.0,0.0,0.0,0.0,-5.3725,-5.3929,-5.3273,-5.2929,-5.2929,-5.2929,-5.3067,-5.341,-5.341,-5.3614,-5.3929,-5.3929,-5.3997,-5.3997,-5.4309,-5.4443,-5.4443,-5.42,-5.4132,-5.4132,-5.4443,-5.4738,-5.5032,-4.9994,-4.9769,-4.9735,-4.9597,-4.9383,-4.933,-4.9468,-5.026,-5.2595,-5.7557,-5.8893,-6.0885,-6.4884,-6.5192,-6.4571,-6.3196,-6.1087,-5.86,-5.5698,-5.7214,-5.8734,-5.9772,-6.2139,-6.3723,-6.431,-6.431,-6.431,-6.431,-6.3615,-6.3268,-6.3268,-6.2748,-6.278,-6.3336,-6.2865,-6.2784,-6.2965,-6.1997,-6.104,-6.0216,-5.9796,-5.8685,-5.7243,-5.6647,-5.5943,-5.5149,-5.461,-5.4491,-5.4431,-5.3354,-5.2905,-5.2695,-5.2037,-5.0571,0.0,0.0,0.0,0.0,0.0,0.0,0.0,0.0,0.0,0.0,0.0,0.0,0.0,0.0,0.0,0.0,0.0,0.0,0.0,-4.5291,-4.7618,-4.9469,-4.9733,-4.9654,-4.9719,-5.0065,-5.0129,-5.0232,-5.0677,-5.0867,-5.1057,-5.1183,-5.1981,-5.2682,-5.3373,-5.3857,-5.4273,-5.4645,-5.4443,-5.4064,-5.3614,-5.3478,-5.3204,-5.2929,0.0,0.0,-5.2998,-5.2998,-5.3204,-5.3614,-5.3614,-5.3725,-5.3997,-5.4064,-5.4106,-5.4132,-5.4671,-5.4898,-5.4898,-5.4578,-5.4578,-5.4578,-5.1793,-5.1038,-5.0562,-5.0562,-5.075,-5.0961,-5.0961,-5.171,-5.3502,-5.6918,-5.8069,-5.9671,-6.2542,-6.2541,-6.2004,-6.111,-5.9331,-5.7426,-5.5635,-5.8216,-6.0523,-6.2184,-6.407,-6.5037,-6.5037,-6.469,-6.4342,-6.3994,-6.3299,-6.2951,-6.2951,-6.2721,-6.2992,-6.3689,-6.3458,-6.3539,-6.3825,-6.3209,-6.2491,-6.168,-6.1383,-6.0664,-5.9655,-5.8116,-5.7102,-5.6515,-5.5909,-5.5688,-5.5568,-5.496,-5.467,-5.4551,-5.3892,-5.2785,-5.1528,0.0,0.0,0.0,0.0,0.0,0.0,0.0,0.0,0.0,0.0,0.0,0.0,0.0,0.0,-4.489,0.0,0.0,-4.7425,-4.7239,-4.8818,-4.9976,-4.9654,-4.959,-4.9654,-4.9847,-4.9847,-5.004,-5.0525,-5.0614,-5.0804,-5.1309,-5.1892,-5.2554,-5.3373,-5.3726,-5.4141,-5.4485,-5.4174,-5.3861,-5.3478,-5.3525,-5.3514,-5.3306,-5.3607,-5.3607,-5.3306,-5.3306,-5.325,-5.3204,-5.3204,-5.3273,-5.3452,-5.3657,-5.3861,-5.4064,-5.4402,-5.4537,-5.4537,-5.4309,-5.4241,-5.4241,-5.371,-5.2439,-5.1528,-5.1356,-5.1839,-5.2257,-5.2425,-5.2788,-5.3965,-5.6403,-5.6986,-5.7969,-6.0174,-5.9698,-5.9031,-5.8401,-5.7494,-5.6626,-5.5709,-5.8669,-6.1634,-6.4303,-6.5322,-6.5701,-6.5626,-6.4879,-6.4184,-6.3489,-6.2762,-6.2396,-6.2446,-6.277,-6.3313,-6.4012,-6.3903,-6.4052,-6.4215,-6.3893,-6.3397,-6.2808,-6.2808,-6.2414,-6.1609,-5.9512,-5.8126,-5.7294,-5.6766,-5.6299,-5.6017,-5.6256,-5.6196,-5.5957,-5.5807,-5.5149,-5.3952,-5.1631,-5.1858,0.0,0.0,0.0,0.0,0.0,0.0,0.0,0.0,0.0,-4.5898,-4.6915,-4.7397,-4.7798,-4.8225,-4.8864,-4.9284,-4.9239,-4.9856,-5.0232,-4.9654,-4.959,-4.959,-4.959,-4.959,-4.9783,-5.0334,-5.0232,-5.0487,-5.1346,-5.1869,-5.253,-5.3373,-5.3765,-5.4189,-5.4666,-5.4176,-5.3886,-5.392,-5.3936,-5.3998,-5.3998,-5.4406,-5.4336,-5.3858,-5.3858,-5.3582,-5.308,-5.298,-5.2929,-5.2929,-5.3273,-5.3546,-5.3793,-5.3793,-5.3921,-5.4099,-5.4065,-5.4091,-5.4193,-5.4929,-5.3946,-5.2908,-5.2188,-5.2153,-5.2429,-5.3149,-5.3197,-5.4171,-5.7089,-5.7363,-5.8075,-6.0174,-6.0299,-5.9077,-5.6236,-5.8087,-5.8496,-5.6366,-6.0813,-6.3775,-6.414,-6.566,-6.6207,-6.5626,-6.4879,-6.4184,-6.3489,-6.2762,-6.2396,-6.2396,-6.3128,-6.3792,-6.4425,-6.4075,-6.4088,-6.4412,-6.3623,-6.3098,-6.2808,-6.2808,-6.2759,-6.2531,-6.1577,-6.0168,-5.8702,-5.8022,-5.6747,-5.5478,-5.6615,-5.6226,-5.5598,-5.7274,-5.6555,-5.491,-5.4012,-5.2665,-5.0892,-4.836,-4.7133,-4.6661,-4.7299,-4.6452,-4.5822,0.0,0.0,-4.7529,-4.8649,-4.8572,-4.8252,-4.8305,-4.8458,-4.8617,-4.8635,-4.9226,-4.9719,-4.959,-4.959,-4.959,-4.959,-4.959,-4.9654,-4.9719,-4.9912,-5.0295,-5.0652,-5.1975,-5.2881,-5.34,-5.4353,-5.5054,-5.5261,-5.5219,-5.5246,-5.5483,-5.5115,-5.493,-5.493,-5.4724,-5.4536,-5.4461,-5.4461,-5.416,-5.3582,-5.313,-5.2929,-5.2929,-5.2929,-5.2998,-5.2998,-5.2998,-5.3646,-5.4522,-5.4322,-5.4588,-5.5025,-5.6243,-5.5362,-5.4456,-5.4107,-5.3775,-5.3667,-5.4011,-5.3983,-5.4367,-5.5641,-5.5614,-5.5824,-5.6713,-5.6643,-5.5746,-5.3841,-5.7003,-5.855,-5.727,-6.2359,-6.5244,-6.4742,-6.6179,-6.6468,-6.5334,-6.4999,-6.463,-6.4089,-6.3773,-6.3647,-6.3647,-6.3931,-6.4247,-6.45,-6.4317,-6.4178,-6.4152,-6.4161,-6.3924,-6.3475,-6.3857,-6.3916,-6.3747,-6.3444,-6.2362,-6.0691,-5.7892,-5.6161,0.0,-5.539,-5.5059,-5.5089,-5.7842,-5.7363,-5.5628,-5.497,-5.4192,-5.3188,-5.1657,-4.9982,-4.8738,0.0,-4.8735,-4.8181,-4.904,-4.9496,-4.9979,-5.1013,-5.1314,-5.1368,-5.1368,-5.109,-5.0769,0.0,-5.0253,-5.004,-4.9654,-4.959,-4.9715,-5.0042,-5.0067,-5.0006,-4.9898,-5.015,-5.0521,-5.1011,-5.2591,-5.3679,-5.4011,-5.5128,-5.5813,-5.5908,-5.5676,-5.5501,-5.5382,-5.5502,-5.5538,-5.5253,-5.5437,-5.5365,-5.5039,-5.5039,-5.4913,-5.4662,-5.411,-5.4059,-5.4336,-5.4009,-5.4059,-5.4361,-5.4361,-5.4838,-5.5415,-5.4774,-5.5001,-5.5782,-5.7116,-5.633,-5.5629,-5.5629,-5.5134,-5.4714,-5.4526,-5.4494,-5.4494,-5.4494,-5.4367,-5.4271,-5.4207,-5.3915,-5.3416,-5.2765,-5.5757,-5.7785,-5.8002,-6.2501,-6.5253,-6.5527,-6.6767,-6.7029,-6.6179,-6.5936,-6.5619,-6.5142,-6.4901,-6.4704,-6.4532,-6.4721,-6.4816,-6.4816,-6.4816,-6.4634,-6.4393,-6.4729,-6.462,-6.4239,-6.4716,-6.4805,-6.4602,-6.4532,-6.3457,-6.1527,-5.8097,-5.6189,-5.5158,-5.4326,-5.3732,-5.3892,-5.6825,-5.6765,-5.5508,-5.482,-5.4022,-5.3366,-5.3419,-5.1799,0.0,-5.1345,-5.0929,-5.0374,-5.0968,-5.1453,-5.1998,-5.2772,-5.3293,-5.3592,-5.3592,-5.3044,-5.2404,-5.1721,-5.116,-5.0589,-4.9881,-4.9967,-5.0218,-5.0619,-5.067,-5.0559,-5.0442,-5.0701,-5.1084,-5.1495,-5.312,-5.4218,-5.4511,-5.5624,-5.6418,-5.6712,-5.6408,-5.618,-5.6053,-5.6321,-5.6407,-5.6121,-5.6381,-5.6283,-5.5977,-5.5681,-5.5606,-5.5627,-5.4955,-5.4859,-5.5257,-5.4808,-5.4888,-5.5365,-5.5214,-5.5691,-5.6319,-5.5365,-5.5717,-5.6696,-5.7116,-5.6652,-5.6276,-5.6276,-5.5773,-5.5164,-5.4589,-5.4494,-5.4494,-5.4494,-5.4494,-5.4399,-5.4239,-5.3915,-5.3684,-5.3684,-5.4731,-5.6321,-5.8434,-6.0772,-6.3362,-6.6255,-6.7295,-6.8078,-6.8765,-6.8159,-6.7411,-6.6638,-6.5994,-6.5226,-6.4532,-6.5227,-6.5595,-6.5595,-6.5595,-6.5563,-6.55,-6.5091,-6.4906,-6.4875,-6.4906,-6.4906,-6.4856,-6.4602,-6.2793,-6.0344,-5.9394,-5.7328,-5.4873,-5.3851,-5.2557,-5.1678,-5.3713,-5.4311,-5.4132,-5.3443,-5.1157,-4.9299,-5.1631,-5.0637,-4.9685,-5.2672,-5.2545,-5.1878,-5.2533,-5.2669,-5.2859,-5.3456,-5.3592,-5.3592,-5.3592,-5.3044,-5.2404,-5.1721,-5.1496,-5.115,-5.0459,-5.087,-5.1247,-5.1247,-5.1247,-5.1247,0.0,-5.1724,-5.1959,-5.1778,-5.3326,-5.438,-5.4469,-5.5598,-5.6643,-5.7608,-5.7634,-5.7895,-5.8373,-5.8044,-5.783,-5.783,-5.7523,-5.7379,-5.7328,-5.6433,-5.6178,-5.6412,-5.5143,-5.4774,-5.5056,-5.4774,-5.4888,-5.534,-5.4787,-5.5591,-5.6947,-5.6369,-5.6872,-5.7926,-5.7703,-5.7216,-5.6835,-5.6835,-5.6384,-5.5773,-5.5194,-5.4776,-5.4494,-5.4494,-5.4494,0.0,0.0,0.0,0.0,0.0,-5.5515,-5.6816,-5.7557,-6.1408,-6.3819,-6.412,-6.6364,-6.7692,-6.7883,-6.7198,-6.702,-6.746,-6.7377,-6.7198,-6.6988,-6.7867,-6.803,-6.7606,-6.7606,-6.7312,-6.6935,-6.7212,-6.7358,-6.7327,-6.7098,-6.6992,-6.6699,-6.3956,-6.2058,-6.034,0.0,-5.4235,-5.2899,-5.194,-5.1509,-5.1867,-5.4151,-5.4251,-5.3234,-5.1678,-5.1113,-5.1154,-5.1847,-5.2001,-5.226,-5.3585,-5.3171,-5.2588,-5.3158,-5.3293,-5.3347,-5.3565,-5.2788,-5.2128,-5.2128,-5.2272,-5.215,-5.154,-5.2549,-5.2969,-5.1802,-5.1849,-5.1905,-5.1842,-5.1825,0.0,0.0,0.0,0.0,-5.2488,-5.3948,-5.5039,-5.5453,-5.6476,-5.7178,-5.7526,-5.7714,-5.7817,-5.7739,-5.7856,-5.7784,-5.7595,-5.7451,-5.7379,-5.7379,-5.7031,-5.7159,-5.761,-5.6759,-5.6734,-5.7112,-5.6683,-5.6645,-5.6836,-5.6634,-5.6992,-5.76,-5.7399,-5.7575,-5.7926,-5.7997,-5.7703,-5.7425,-5.7425,-5.6964,0.0,0.0,0.0,0.0,0.0,0.0,0.0,0.0,0.0,0.0,0.0,0.0,-5.6302,-5.7049,-6.0133,-6.2082,-6.2357,-6.4276,-6.5436,-6.5585,-6.5201,-6.5255,-6.5798,-6.6852,-6.7301,-6.7283,-6.869,-6.9163,-6.8876,-6.8876,-6.8658,-6.8321,-6.8785,-6.8459,-6.7625,-6.7376,-6.6582,-6.5238,-6.2377,-6.02,0.0,-5.4414,-5.2138,-5.0758,-5.0009,-5.0109,-5.0863,-5.2648,-5.2732,-5.1917,-5.09,-5.1199,-5.1995,-5.2725,-5.3208,-5.3634,-5.4254,-5.3708,-5.313,-5.351,-5.3592,-5.3592,-5.3592,-5.2431,-5.1417,-5.1417,-5.1272,-5.1062,-5.053,-5.1751,-5.2581,-5.1895,-5.1955,-5.219,-5.237,-5.2402,-5.2528,0.0,0.0,0.0,-5.3155,-5.4421,-5.5416,-5.5939,-5.6785,-5.7235,-5.7379,-5.7595,-5.7667,-5.7595,-5.7784,-5.7856,-5.781,-5.781,-5.781,-5.781,-5.7667,-5.7873,-5.8254,-5.7677,-5.7657,-5.8037,-5.7605,-5.7568,-5.7833,-5.763,-5.7689,-5.8022,-5.782,-5.7722,-5.78,-5.7997,-5.7997,-5.7997,0.0,0.0,0.0,0.0,0.0,0.0,0.0,0.0,0.0,0.0,0.0,0.0,0.0,0.0,0.0,-5.6812,-5.705,-5.8303,-6.0998,-6.1355,-6.1728,-6.2352,-6.2441,-6.2392,-6.2266,-6.4447,-6.5503,-6.5436,-6.7648,-6.8825,-6.9031,-6.9064,-6.9207,-6.9362,-6.9362,-6.8029,-6.587,-6.5778,-6.3844,-6.0828,-6.0014,-5.7312,-5.3937,-5.3131,-5.1005,-4.8563,-4.8385,0.0,0.0,0.0,-5.0185,-5.0554,-5.1199,-5.1409,-5.1965,-5.4192,-5.4194,-5.3834,-5.4814,-5.4341,-5.3646,-5.3646,-5.3619,-5.3592,-5.351,-5.2323,-5.125,0.0,0.0,-4.9223,-4.9101,-4.9722,-5.0461,-5.1099,-5.159,-5.2127,0.0,0.0,0.0,0.0,0.0,0.0,-5.3658,0.0,-5.5581,-5.5964,-5.6497,-5.6946,-5.7307,-5.7379,-5.7523,-5.7856,-5.7856,-5.807,-5.8452,-5.8452,-5.8452,-5.8452,-5.807,-5.8141,-5.8452,-5.7739,-5.7667,-5.7927,-5.7595,-5.7759,-5.8123,-5.7636,-5.7764,-5.8148,-5.7661,-5.7597,-5.7742,0.0,0.0,0.0,0.0,0.0,0.0,0.0,0.0,0.0,0.0,0.0,0.0,0.0,0.0,0.0,0.0,0.0,0.0,-5.4899,-5.6406,-5.7564,-5.8277,-5.9837,-6.1095,-6.1957,-6.1299,-6.1215,-6.1694,-6.2581,-6.2955,-6.2876,-6.4695,-6.5563,-6.5678,-6.6132,-6.6362,-6.637,-6.637,-6.6064,-6.5399,-6.4647,-6.3132,-6.101,-5.7824,-5.5267,-5.3038,-5.0623,-4.9231,-4.8563,-4.8385,0.0,0.0,0.0,-5.4556,-5.3862,0.0,0.0,-5.4938,-5.4808,-5.5548,-5.6192,-5.5793,-5.4974,-5.4243,-5.4243,-5.3917,-5.3287,-5.2182,-5.0815,-4.9427,0.0,0.0,0.0,-5.0386,-5.2861,0.0,-5.4747,-5.4431,0.0,-5.3742,0.0,-5.2929,-5.2929,-5.2929,0.0,0.0,-5.4361,-5.5035,-5.5509,-5.6063,-5.6438,-5.651,-5.6801,-5.7019,-5.7091,-5.7379,-5.7595,-5.7667,-5.7927,-5.807,-5.807,-5.8284,-5.8355,-5.8523,-5.831,-5.831,-5.8355,-5.8239,-5.8102,-5.8043,-5.8301,-5.8362,-5.8225,-5.8507,-5.8712,-5.8795,0.0,0.0,0.0,0.0,0.0,0.0,0.0,0.0,0.0,0.0,0.0,0.0,0.0,0.0,0.0,0.0,0.0,0.0,0.0,-5.5309,-5.5893,-5.5826,-5.702,-5.7907,-5.8352,-5.7907,-5.8007,-5.8685,-5.9891,-6.0613,-6.095,-6.2874,-6.3772,-6.392,-6.4517,-6.482,-6.4937,-6.5202,-6.4679,0.0,0.0,-6.142,-5.9029,-5.6149,-5.4026,-5.2352,-5.031,-5.0226,-5.1178,0.0,0.0,-5.5315,-5.6614,-5.6345,-5.5561,-5.552,0.0,-5.6251,-5.6447,-5.7214,-5.7801,-5.7121,-5.6052,-5.4995,-5.4353,-5.3359,-5.2182,-5.0761,-4.9236,0.0,-4.7136,0.0,0.0,0.0,0.0,0.0,-5.5017,-5.4812,-5.4405,0.0,-5.3657,0.0,-5.2929,-5.2929,-5.3055,0.0,-5.411,-5.4813,-5.5365,-5.5917,-5.6219,-5.6219,-5.6438,-5.6656,-5.6801,-5.7163,-5.7379,-5.7379,-5.7595,-5.7667,-5.7713,-5.7953,-5.8096,-5.8212,0.0,-5.8381,-5.8523,-5.8523,-5.8381,-5.8193,-5.8837,-5.8926,-5.8761,-5.9355,-5.9643,-5.9779,0.0,0.0,0.0,0.0,0.0,0.0,0.0,0.0,0.0,-5.4494,-5.4494,-5.4494,0.0,0.0,0.0,0.0,0.0,0.0,0.0,0.0,-5.4175,-5.4078,-5.4143,-5.4175,-5.4045,-5.4143,-5.4451,-5.4971,-5.6918,-5.8217,-5.8934,-6.0947,-6.2015,-6.2201,-6.2802,-6.3144,-6.3296,-6.3828,-6.2855,-6.0959,-6.0959,-5.9174,-5.6316,0.0,-5.3622,-5.2064,-5.1299,-5.2417,-5.4696,-5.762,-5.8601,-5.8479,-5.8123,-5.7486,-5.7011,-5.7565,-5.7296,-5.7146,-5.85,-5.8863,-5.8839,-5.8489,-5.7256,-5.5723,-5.4235,-5.2642,-5.0923,-4.9236,0.0,-4.6951,-4.6737,-4.6843,-4.74,-4.8673,0.0,-5.1869,-5.397,-5.4149,-5.4053,-5.4138,-5.3997,-5.3589,-5.2998,-5.2929,-5.2929,-5.2929,-5.3884,-5.4687,-5.5239,-5.5867,-5.6219,-5.6219,-5.6219,-5.6365,-5.6729,-5.7091,-5.7235,-5.7235,-5.7307,-5.7307,-5.7307,-5.7379,-5.7595,-5.7856,-5.7856,-5.7999,-5.8381,-5.8355,-5.8452,-5.8504,-5.9228,-5.949,-5.9542,-6.0222,-6.0549,-6.0694,0.0,0.0,0.0,0.0,0.0,0.0,0.0,0.0,0.0,0.0,-5.4494,-5.4494,0.0,0.0,0.0,0.0,0.0,0.0,0.0,0.0,0.0,-5.4399,-5.4271,-5.4271,-5.4399,-5.4271,-5.4276,-5.4381,-5.4888,-5.5163,-5.5169,-5.6232,-5.6712,-5.678,-5.7329,-5.7532,-5.7461,-5.7562,-5.7625,-5.7649,-5.7649,-5.6905,-5.5724,-5.5497,0.0,0.0,-5.2122,-5.3169,-5.5348,-5.7807,-5.9207,-6.0296,-6.2633,-6.2249,-6.0957,-6.1116,-6.0711,-6.0104,-5.9646,-5.9887,-6.0092,-5.9264,-5.7878,-5.6336,-5.4817,-5.2857,0.0,0.0,-4.7192,-4.6602,-4.5328,-4.6123,-4.7645,-4.9578,-5.1529,-5.3516,-5.5618,-5.5297,-5.4785,0.0,-5.3768,-5.3067,-5.2929,-5.2929,0.0,0.0,-5.3507,-5.411,-5.4687,-5.5666,-5.6219,-5.6219,-5.6219,-5.6219,-5.6292,-5.6365,-5.6438,-5.6438,-5.6729,-5.6874,-5.6946,-5.7235,-5.7451,-5.7523,-5.7523,0.0,-5.7595,-5.7856,-5.7999,-5.8102,-5.9502,-6.0065,-6.0195,-6.1267,-6.1738,-6.1741,0.0,0.0,0.0,0.0,0.0,0.0,0.0,-5.6438,-5.5744,-5.5455,-5.5164,-5.4834,-5.4526,-5.4494,-5.4494,0.0,0.0,0.0,0.0,0.0,0.0,-5.4494,-5.4399,-5.4399,-5.4494,-5.4399,-5.4367,-5.4367,0.0,-5.4431,-5.4367,-5.4746,-5.4952,-5.492,-5.5413,-5.5654,-5.5689,-5.5791,-5.6263,-5.6942,-5.6835,-5.6785,-5.6761,0.0,0.0,0.0,0.0,-5.389,-5.5907,-5.6964,-5.882,-6.1145,-6.4234,-6.4359,-6.3318,-6.3047,-6.2257,-6.1554,-6.1433,-6.1394,-6.1407,-6.1615,-6.0291,-5.8163,-5.5385,0.0,0.0,0.0,-4.5805,-4.5566,-4.4826,-4.5965,-4.743,-4.874,-5.1308,-5.3659,-5.4943,-5.5746,-5.5881,-5.5087,-5.4418,-5.37,0.0,-5.2929,-5.2929,-5.2929,-5.3683,-5.426,-5.4536,-5.5616,-5.6219,-5.6219,-5.6219,-5.6219,-5.6219,-5.6219,-5.6219,-5.6219,-5.6438,-5.651,-5.651,-5.6729,-5.6874,-5.7116,-5.7397,-5.7597,-5.7841,-5.8268,-5.847,-5.8547,-5.9592,-6.0002,-6.0179,-6.1033,-6.1344,-6.1344,0.0,0.0,0.0,0.0,0.0,0.0,0.0,-5.704,-5.651,-5.6545,-5.602,-5.5539,-5.5227,-5.4796,-5.4494,0.0,0.0,0.0,0.0,0.0,0.0,0.0,0.0,0.0,0.0,0.0,0.0,-5.4494,-5.4463,0.0,0.0,0.0,0.0,0.0,-5.4794,-5.4969,-5.5069,-5.5417,-5.606,0.0,0.0,-5.7239,0.0,0.0,0.0,0.0,0.0,-5.4435,-5.5812,-5.6093,-5.7884,-6.0487,-6.3287,-6.3984,-6.3702,-6.3471,-6.271,-6.2177,-6.2956,-6.2984,-6.2919,-6.3646,-6.238,-5.9918,-5.5908,-5.3191,0.0,0.0,-4.4884,-4.4668,-4.4668,-4.5726,-4.6734,0.0,-5.0276,-5.2641,-5.3732,-5.542,-5.6164,0.0,-5.5087,0.0,-5.3452,-5.3384,0.0,-5.3136,-5.4074,-5.4662,-5.4913,-5.5742,-5.6219,-5.6219,-5.6219,-5.6219,-5.6219,-5.6219,-5.6219,-5.6219,-5.6219,-5.6219,-5.6219,-5.6344,-5.6541,-5.6858,-5.7415,-5.7816,-5.8136,-5.8669,-5.8848,-5.8974,-5.9739,-6.0146,-6.0448,-6.0939,-6.1297,-6.1423,0.0,0.0,0.0,0.0,0.0,0.0,0.0,-5.7091,-5.7113,-5.735,-5.6834,-5.6671,-5.7342,-5.5668,-5.4494,0.0,0.0,0.0,0.0,0.0,0.0,0.0,0.0,0.0,0.0,0.0,0.0,-5.4494,-5.4335,0.0,0.0,0.0,0.0,0.0,0.0,-5.4115,-5.3886,-5.4803,0.0,0.0,0.0,0.0,0.0,0.0,0.0,0.0,0.0,-5.4717,-5.4403,-5.575,0.0,-5.6964,-5.8712,-5.9874,-6.0854,-6.2012,0.0,0.0,-6.3437,-6.438,-6.4714,-6.3489,-6.241,-6.0531,-5.6369,0.0,0.0,-4.6998,-4.5395,-4.4668,-4.4668,-4.4826,-4.538,-4.6843,-4.8224,-5.0073,-5.289,-5.3823,-5.4649,-5.5867,0.0,0.0,-5.482,-5.482,-5.4552,-5.3929,-5.4353,-5.5013,-5.6018,-5.6168,-5.6219,-5.6219,-5.6219,-5.6219,-5.6219,-5.6219,-5.6219,-5.6219,-5.6219,-5.6219,-5.6219,-5.6721,-5.6972,-5.6997,-5.7649,-5.7901,0.0,-5.8301,-5.845,-5.8577,-6.0098,-6.1115,-6.1872,-6.237,-6.311,-6.3606,0.0,0.0,0.0,0.0,0.0,0.0,-5.7703,-5.8056,-5.8262,-5.8005,-5.8205,-5.8359,-5.8336,-5.7541,-5.6535,-5.5283,0.0,0.0,0.0,0.0,0.0,0.0,0.0,0.0,0.0,0.0,-5.4736,-5.5184,-5.5053,0.0,0.0,0.0,0.0,0.0,0.0,-5.558,-5.5581,-5.5756,0.0,0.0,0.0,0.0,0.0,0.0,0.0,0.0,0.0,0.0,-5.4005,-5.4075,0.0,0.0,-5.5163,-5.5721,0.0,0.0,-6.2094,-6.2474,-6.4436,-6.498,-6.4891,-6.4338,-6.2705,-6.0373,-5.6874,0.0,-5.1045,-4.7204,-4.6006,-4.5502,-4.483,-4.4668,-4.4879,-4.5514,-4.7367,-4.9128,-5.0318,-5.2074,-5.3572,-5.4649,-5.4522,0.0,0.0,0.0,-5.4573,-5.421,-5.5044,-5.5598,-5.5666,-5.6018,-5.6219,-5.6219,-5.6219,-5.6219,-5.6219,-5.6219,-5.6219,-5.6219,-5.6219,-5.6394,-5.6721,-5.6922,-5.7223,-5.7575,-5.8152,-5.8403,0.0,-5.9414,-5.9768,-5.992,-6.1373,-6.214,-6.2522,-6.3097,-6.3536,-6.3735,0.0,0.0,0.0,0.0,0.0,-5.807,-5.8327,-5.8841,-5.9212,-5.927,-5.9673,-5.9844,-5.9642,-5.948,-5.8609,-5.6741,-5.6128,0.0,0.0,0.0,0.0,0.0,0.0,0.0,0.0,0.0,-5.5187,-5.588,-5.5813,-5.6056,0.0,0.0,-5.6538,-5.6505,0.0,0.0,0.0,0.0,0.0,0.0,0.0,0.0,0.0,0.0,0.0,0.0,0.0,0.0,0.0,0.0,0.0,-5.4173,-5.2805,-5.2987,-5.4558,-5.8777,-6.0602,-6.1679,-6.3817,-6.4878,-6.5386,-6.5049,-6.3152,-6.056,0.0,0.0,-5.1494,-4.764,-4.6635,-4.6058,-4.4938,-4.4668,-4.4668,-4.4668,-4.6461,-4.7999,-4.8616,-5.0459,-5.2226,-5.3429,0.0,-5.3911,0.0,-5.497,-5.4946,-5.4928,-5.5701,-5.6129,-5.5913,-5.6399,-5.6558,-5.6219,-5.6219,-5.6219,-5.6219,-5.6219,-5.6219,-5.6219,-5.6219,-5.6495,-5.7047,-5.7421,-5.7973,-5.8529,-5.9085,-5.9414,0.0,-6.0431,-6.0813,-6.1168,-6.2346,-6.2935,-6.3215,-6.361,-6.392,-6.4145,0.0,0.0,0.0,0.0,0.0,0.0,-5.9074,-5.9184,-5.9771,-6.1374,-6.1043,-6.1,-6.1788,-6.1257,-6.0356,-5.8976,-5.7469,0.0,0.0,0.0,0.0,0.0,0.0,0.0,0.0,0.0,-5.588,-5.6505,-5.6269,-5.6303,-5.6505,-5.6167,-5.6167,-5.6505,0.0,0.0,0.0,0.0,-5.7535,0.0,0.0,0.0,-5.8205,0.0,0.0,0.0,0.0,0.0,0.0,0.0,0.0,0.0,0.0,-5.2175,-5.3051,-5.476,-5.7059,-5.9379,-6.085,-6.4109,-6.6761,-6.553,-6.3561,-6.1338,0.0,0.0,-5.1699,-4.8613,-4.7126,-4.6058,-4.4938,-4.4668,-4.4668,-4.4668,-4.519,-4.635,-4.84,-4.9223,-5.04,0.0,0.0,-5.3307,-5.4772,-5.5633,-5.6147,-5.6369,-5.6252,0.0,-5.6951,-5.752,-5.7354,-5.6219,-5.6219,-5.6219,-5.6219,-5.6219,-5.6219,-5.6219,-5.6219,-5.6495,-5.7047,-5.8419,-5.9353,-5.9917,-6.048,-6.1091,0.0,-6.1041,-6.1193,-6.1924,-6.26,-6.3264,-6.399,-6.4017,-6.4465,-6.5205,0.0,0.0,0.0,0.0,0.0,0.0,0.0,-5.9661,-6.0419,-6.1447,-6.1922,-6.2234,-6.249,-6.1978,-6.1221,-6.032,-5.8981,0.0,0.0,0.0,0.0,0.0,0.0,0.0,0.0,0.0,-5.6772,-5.7463,-5.7395,-5.7603,-5.805,-5.8084,-5.8084,-5.8084,-5.8187,-5.8187,0.0,-5.8462,-5.8462,0.0,0.0,-5.8348,-5.8205,0.0,0.0,0.0,0.0,0.0,0.0,0.0,0.0,0.0,0.0,0.0,0.0,-5.2634,-5.4495,-5.6825,-5.8882,-6.0009,-6.0509,-6.0155,-5.8458,-5.6621,-5.5929,-5.3661,-5.0955,-4.8509,-4.7712,-4.6919,-4.5046,-4.4668,-4.4668,-4.4668,-4.5245,-4.595,-4.7061,0.0,0.0,-5.2429,-5.4495,-5.5751,0.0,0.0,-5.6474,-5.5601,-5.6489,-5.6935,-5.6452,-5.7512,-5.7655,-5.6631,-5.7354,-5.7282,-5.6219,-5.721,-5.7498,-5.6993,-5.7498,-5.8301,-5.923,-5.9631,-6.0376,-6.1285,-6.1467,-6.162,-6.1921,-6.222,-6.2518,-6.2794,-6.4001,-6.4587,-6.4863,-6.5295,-6.5606,-6.5775,0.0,0.0,0.0,0.0,0.0,0.0,0.0,-6.0089,-6.0786,-6.1924,-6.2511,-6.2705,-6.249,-6.2112,-6.1528,-6.0615,-5.9796,0.0,0.0,0.0,0.0,0.0,0.0,0.0,-5.7219,-5.7219,-5.7565,-5.8255,-5.8255,-5.8428,-5.8805,-5.8875,-5.8909,-5.8875,-5.8944,-5.9012,0.0,-5.9323,-5.9219,-5.8909,-5.8904,-5.8658,-5.8312,0.0,0.0,0.0,0.0,0.0,0.0,0.0,0.0,0.0,0.0,0.0,0.0,0.0,-5.2925,-5.4373,-5.6669,-5.7807,-5.8369,-5.8532,-5.6769,-5.4955,-5.5049,-5.3162,-5.0698,-4.8468,-4.8016,-4.7304,-4.5127,-4.4668,-4.4668,-4.4668,-4.5245,-4.6032,-4.714,-4.8658,0.0,-5.2429,0.0,0.0,0.0,-5.6451,-5.672,-5.5538,-5.6757,-5.7344,-5.702,-5.8011,-5.8315,-5.7713,-5.8239,-5.7999,-5.7065,-5.8025,-5.8212,-5.7784,-5.8284,-5.9124,-6.0222,-6.0513,-6.129,-6.2369,-6.2369,-6.2518,0.0,-6.3037,-6.3259,-6.368,-6.4497,-6.4853,-6.4907,-6.5287,-6.545,-6.5423,0.0,0.0,0.0,0.0,0.0,0.0,0.0,-6.0456,-6.1043,-6.2622,-6.278,-6.2603,-6.2005,-6.1897,-6.1358,-6.016,0.0,0.0,0.0,0.0,0.0,0.0,0.0,0.0,-5.7978,-5.7978,-5.8221,-5.8806,-5.8806,-5.8806,-5.8806,-5.8806,-5.8875,-5.9012,-5.9012,-5.9012,-5.9047,-5.9806,-5.9668,-5.9047,-5.9386,-5.9141,0.0,0.0,0.0,0.0,0.0,0.0,0.0,0.0,0.0,0.0,0.0,0.0,0.0,0.0,0.0,0.0,0.0,-5.6933,-5.9041,-5.9441,-5.7447,-5.5532,-5.5641,-5.3558,0.0,-4.8518,-4.8016,-4.7304,-4.5127,-4.4668,-4.4668,-4.4668,-4.5245,-4.6324,-4.8373,-4.9441,-5.0724,0.0,-5.4217,0.0,-5.4149,-5.5945,-5.6915,-5.6197,-5.7022,-5.7811,-5.8402,-5.8994,-5.9311,-5.9158,-5.8876,-5.8594,-5.8523,-5.8594,-5.8638,-5.8594,-5.8664,-5.9267,-6.0367,-6.1164,-6.2092,0.0,-6.3185,-6.3626,-6.4237,-6.348,-6.3653,-6.431,-6.431,-6.431,-6.431,-6.431,-6.431,-6.4391,0.0,0.0,0.0,0.0,0.0,0.0,0.0,0.0,0.0,0.0,-6.278,-6.2755,-6.2629,-6.1723,-6.1033,0.0,0.0,0.0,0.0,0.0,0.0,0.0,0.0,0.0,-5.8737,-5.8737,-5.8806,-5.8944,-5.8944,-5.8944,-5.8944,-5.8944,-5.8944,-5.9012,-5.9012,-5.9012,-5.9012,-5.9219,-5.9185,-5.8978,-5.8977,-5.8802,0.0,0.0,0.0,0.0,-5.7662,-5.7034,0.0,0.0,0.0,0.0,0.0,0.0,0.0,0.0,-5.1836,-5.1929,-5.3004,0.0,-5.2922,-5.3537,-5.302,-5.2503,0.0,-5.2321,-5.0981,-4.8766,-4.8117,-4.7304,-4.5127,-4.4668,-4.4668,-4.4668,-4.5245,-4.6324,-4.8373,-5.1549,-5.428,-5.5915,-5.6476,-5.6509,-5.6057,-5.6753,-5.6979,-5.659,-5.7416,-5.8076,-5.8402,-5.9265,-5.9791,-5.9969,-6.0135,-5.9718,-5.8523,-5.9648,-5.9969,-5.9315,-5.9996,-6.0892,-6.1952,-6.2165,-6.2884,-6.4019,-6.4019,-6.4165,-6.431,-6.4092,-6.4165,-6.431,-6.431,-6.431,-6.431,-6.431,-6.431,-6.4391,0.0,0.0,0.0,0.0,0.0,0.0,0.0,0.0,0.0,0.0,0.0,0.0,0.0,0.0,0.0,0.0,0.0,0.0,0.0,0.0,0.0,0.0,0.0,-5.9012,-5.9012,-5.9012,-5.9012,-5.9012,-5.9012,-5.9012,-5.9012,-5.8944,-5.8909,-5.8909,-5.8909,-5.8944,-5.9047,-5.9392,-5.9357,-5.9013,-5.9218,0.0,0.0,0.0,0.0,0.0,-5.7546,-5.6828,0.0,-5.4717,-5.3518,-5.2324,0.0,0.0,0.0,0.0,-5.1713,-5.1867,-5.2513,-5.2175,-5.1713,-5.2082,-5.2055,-5.2013,-5.226,-5.2124,-5.1403,-4.9533,-4.8646,-4.761,-4.5794,-4.5046,-4.4668,-4.4668,-4.6009,-4.7837,-5.0194,-5.2498,-5.4378,-5.5778,-5.5912,-5.6063,0.0,-5.6747,-5.6942,-5.6747,-5.7277,-5.7976,-5.867,-5.9156,-5.9792,-6.0453,-6.0687,-6.0411,-5.9578,-6.0411,-6.0549,-6.0177,-6.0618,-6.1244,-6.2112,-6.234,-6.3035,-6.3903,-6.4201,-6.431,-6.431,-6.431,-6.431,-6.431,-6.431,-6.431,-6.431,-6.431,-6.431,-6.4364,0.0,0.0,0.0,0.0,0.0,0.0,0.0,0.0,0.0,0.0,0.0,0.0,0.0,0.0,0.0,0.0,0.0,0.0,0.0,0.0,0.0,0.0,-5.9012,-5.9012,-5.9012,-5.9116,-5.9185,-5.9185,-5.9323,-5.9357,-5.9357,-5.9116,-5.8908,-5.8736,-5.8736,-5.8806,-5.8944,-5.9667,-5.9599,-5.9013,-5.9563,0.0,0.0,0.0,0.0,0.0,0.0,0.0,0.0,-5.3868,-5.2748,-5.1796,-5.0983,0.0,0.0,0.0,0.0,0.0,-5.239,-5.2852,-5.3143,-5.279,-5.2698,-5.2653,-5.2397,-5.2352,-5.1865,-5.0401,-4.9337,-4.8167,-4.6712,-4.5662,-4.4884,-4.4722,-4.7152,-4.9955,-5.2623,-5.3254,-5.3735,-5.4724,-5.4767,0.0,-5.6156,-5.6524,-5.6747,-5.6747,-5.7152,-5.7798,-5.8937,-5.91,-5.9643,-6.0728,-6.0782,-6.0782,-6.0782,-6.0782,-6.0782,-6.0782,-6.0782,-6.1054,-6.1624,-6.2166,-6.2763,-6.3442,0.0,0.0,-6.431,-6.431,-6.431,-6.431,-6.431,-6.431,-6.431,-6.431,-6.431,-6.431,0.0,0.0,0.0,0.0,0.0,0.0,0.0,0.0,0.0,0.0,0.0,0.0,0.0,0.0,0.0,0.0,0.0,0.0,0.0,0.0,0.0,-5.9012,-5.9012,-5.9012,-5.9012,-5.9668,-6.0013,-6.0013,-6.0634,-6.0944,-6.0944,-6.0113,-5.9318,-5.8561,-5.8561,-5.8561,-5.8596,-5.8908,-5.8909,-5.8875,-5.9047,0.0,0.0,0.0,0.0,0.0,0.0,0.0,0.0,-5.4531,-5.3319,-5.1991,-5.115,0.0,0.0,0.0,0.0,0.0,-5.1682,-5.3711,-5.5209,-5.3205,-5.2698,-5.2698,-5.2653,-5.2442,-5.2002,-5.0798,-5.0162,-4.9112,-4.7047,-4.6347,-4.5821,-4.4884,-4.8034,-5.1563,0.0,0.0,-5.6584,-5.6746,0.0,-5.6531,-5.6979,-5.685,-5.6812,-5.7109,-5.7635,-5.8232,-5.8964,-5.948,-6.005,-6.0755,-6.0782,-6.0782,-6.0782,-6.0782,-6.0782,-6.0782,-6.0782,-6.1054,-6.1597,-6.1705,-6.2356,-6.3442,0.0,-6.3849,-6.431,-6.431,-6.431,-6.431,-6.431,-6.431,-6.431,-6.431,-6.431,-6.431,0.0,0.0,0.0,0.0,0.0,0.0,0.0,0.0,0.0,0.0,0.0,0.0,0.0,0.0,0.0,0.0,0.0,0.0,0.0,0.0,-5.9012,-5.9012,-5.9426,-5.9668,-5.9668,-6.0013,-6.0392,-6.0806,-6.1044,-6.1145,-6.111,-6.0068,-5.9341,-5.8927,-5.8625,-5.8561,-5.8666,-5.884,-5.8909,-5.8909,0.0,0.0,0.0,0.0,0.0,0.0,0.0,0.0,0.0,0.0,-5.2814,-5.2039,-5.0777,0.0,0.0,0.0,0.0,0.0,-5.1959,-5.325,-5.4236,-5.4066,-5.4931,-5.5907,-5.5907,-5.5783,-5.5285,-5.3783,-5.284,-5.1464,-4.8938,-4.7961,-4.7812,-4.8637,-4.9976,-5.1777,-5.427,-5.4547,-5.4798,0.0,0.0,-5.5762,-5.6536,-5.6655,-5.6747,-5.6942,-5.7678,-5.834,-5.8964,-5.9561,-6.0158,-6.0755,-6.0782,-6.0782,-6.0782,-6.0782,-6.0782,-6.0782,-6.0782,-6.0918,-6.1162,-6.1461,-6.1922,-6.2465,0.0,-6.3577,-6.3849,-6.4174,-6.431,-6.431,-6.431,-6.431,-6.431,-6.431,-6.431,-6.431,0.0,0.0,0.0,0.0,0.0,0.0,0.0,0.0,0.0,0.0,0.0,0.0,0.0,0.0,0.0,0.0,0.0,0.0,0.0,0.0,-5.9012,-5.9012,-5.9771,-6.0185,-6.0185,-6.053,-6.1013,-6.1565,-6.1555,-6.141,-6.1094,-6.0123,-5.9534,-5.9293,-5.876,-5.8596,-5.8736,-5.8909,-5.8944,-5.8944,0.0,0.0,0.0,0.0,0.0,0.0,0.0,0.0,0.0,0.0,0.0,0.0,0.0,0.0,0.0,-5.0151,-5.0451,-5.0913,-5.1959,-5.2866,-5.3758,-5.4853,-5.6171,-5.7432,-5.8386,-5.8323,-5.7806,-5.6881,-5.6023,-5.4477,-5.1531,-4.9733,-4.9357,-5.1467,-5.1513,-5.2154,-5.4469,-5.39,-5.3688,-5.4821,-5.4928,-5.5339,-5.6313,-5.659,-5.6801,-5.7,-5.7667,-5.8395,-5.9182,-5.9643,-6.0158,-6.0755,-6.0782,-6.0782,-6.0782,-6.0782,-6.0782,-6.0782,-6.0782,-6.0782,-6.0782,-6.1217,-6.1488,-6.1651,-6.2601,-6.317,-6.3469,-6.3903,-6.4174,-6.431,-6.431,-6.431,-6.431,-6.431,-6.431,-6.431,0.0,0.0,0.0,0.0,0.0,0.0,0.0,0.0,0.0,0.0,0.0,0.0,0.0,0.0,0.0,0.0,0.0,0.0,0.0,-5.9012,-5.9012,-5.9012,-5.9771,-6.0185,-6.0185,-6.1599,-6.2358,-6.2393,-6.2933,-6.26,-6.1544,-6.0907,-6.012,-5.9293,-5.876,-5.8525,-5.8525,-5.8736,-5.8806,-5.8806,-5.8944,0.0,0.0,0.0,0.0,0.0,0.0,0.0,0.0,0.0,0.0,0.0,0.0,0.0,-4.9741,-4.8975,-4.9682,-5.0728,-5.082,-5.331,-5.5829,-5.524,-5.4097,-5.4082,-5.776,-5.7463,-5.6916,-5.8913,-5.9109,-5.7919,-5.4537,-5.1314,-4.952,-5.0406,-5.183,-5.3594,-5.5667,0.0,-5.6375,-5.6547,-5.6547,-5.6704,-5.7109,-5.6877,-5.7093,-5.796,-5.8042,-5.8585,-5.9751,-5.986,-6.0158,-6.0755,-6.0782,-6.0782,-6.0782,-6.0782,-6.0782,-6.0782,-6.0782,-6.0782,-6.0782,-6.081,-6.1108,-6.1624,-6.1705,-6.2383,-6.3415,-6.3469,-6.3794,-6.431,-6.431,-6.431,-6.431,-6.431,-6.431,-6.431,0.0,0.0,0.0,0.0,0.0,0.0,0.0,0.0,0.0,0.0,0.0,0.0,0.0,0.0,0.0,0.0,0.0,0.0,0.0,-5.9012,-5.9219,-5.9737,-6.0496,-6.1116,-6.1599,-6.2186,-6.2703,-6.3186,-6.324,-6.3015,-6.2442,-6.1654,-6.0904,-6.012,-5.9334,-5.8827,-5.849,-5.8596,-5.8666,-5.8771,-5.884,-5.8944,0.0,0.0,0.0,0.0,0.0,0.0,0.0,0.0,-5.3314,-5.2834,-5.1516,-5.0881,-5.0575,-5.004,-5.0266,-5.0882,-5.1713,-5.368,-5.5457,-5.5178,-5.4621,-5.5364,-5.975,-6.0299,-6.0219,-6.154,-6.174,-6.0319,-5.5938,-5.4553,-5.368,-5.2444,-5.3403,-5.4669,-5.5631,-5.5934,-5.6066,-5.6328,-5.6551,-5.6551,-5.6263,-5.6655,-5.7093,-5.7422,-5.8157,-5.9019,-5.9833,-5.9887,-5.9996,-6.0213,-6.0213,-6.0213,-6.0213,-6.0593,-6.0782,-6.0782,-6.0782,-6.0782,-6.0782,-6.0782,-6.0891,-6.1108,-6.1461,-6.1868,-6.2356,-6.3116,-6.355,-6.3794,-6.4147,-6.431,-6.431,-6.431,-6.431,-6.431,0.0,0.0,0.0,0.0,0.0,0.0,0.0,0.0,0.0,0.0,0.0,0.0,0.0,0.0,0.0,0.0,0.0,0.0,-5.9047,-5.9012,-5.9357,-6.0151,-6.0909,-6.1668,-6.2461,-6.2703,-6.3082,-6.36,-6.3377,-6.3152,-6.2923,-6.2063,-6.1313,-6.0566,-5.9777,-5.9064,-5.849,-5.849,-5.8561,-5.8701,-5.8701,-5.8771,0.0,0.0,0.0,0.0,0.0,0.0,0.0,0.0,-5.3517,-5.328,-5.1915,-5.1457,-5.1321,-5.0861,-5.0882,-5.1221,-5.2144,-5.3357,-5.4513,-5.5225,-5.5457,-5.6715,-6.1621,-6.1985,-6.1985,-6.4401,-6.4286,-6.2592,-5.8764,-5.8388,0.0,0.0,-5.5724,-5.6291,-5.6132,-5.5802,-5.567,-5.5934,-5.6263,-5.6328,-5.5802,-5.6394,-5.6897,-5.6997,-5.804,-5.8968,-5.963,-5.9752,-5.9752,-5.9887,-5.9887,-5.9887,-5.9887,-6.0484,-6.0782,-6.0782,-6.0782,-6.0782,-6.0782,-6.0782,-6.0782,-6.0782,-6.1189,-6.1434,-6.1678,-6.2492,-6.2953,-6.3197,-6.3577,-6.374,-6.374,-6.374,-6.374,-6.374,0.0,0.0,0.0,0.0,0.0,0.0,0.0,0.0,0.0,0.0,0.0,0.0,0.0,0.0,0.0,0.0,0.0,0.0,-5.9047,-5.9012,-5.9357,-6.0185,-6.0909,-6.1668,-6.2496,-6.322,-6.36,-6.36,-6.3377,-6.3076,-6.2693,-6.2067,-6.1316,-6.0381,-5.985,-5.9208,-5.849,-5.849,-5.849,-5.849,-5.849,-5.849,-5.8423,0.0,0.0,0.0,0.0,0.0,0.0,0.0,-5.3618,-5.3348,-5.2555,-5.2224,-5.1946,-5.1152,-5.1256,-5.1713,-5.1713,-5.2236,-5.3267,-5.5628,-5.6201,-5.7664,-6.3021,-6.1853,-6.1346,-6.7427,-6.6868,-6.483,-6.3463,-6.2748,0.0,-5.8812,-5.8794,-5.8604,-5.7275,-5.6209,-5.5604,-5.5604,-5.5934,-5.6132,-5.6132,-5.6132,-5.6371,-5.6957,-5.757,-5.8292,-5.929,-5.9317,-5.9521,-5.9955,-5.9887,-5.9955,-5.9955,-6.0525,-6.0824,-6.0824,-6.0824,-6.0851,-6.0782,-6.0782,-6.0782,-6.0782,-6.0782,-6.1081,-6.1597,-6.1597,-6.1976,-6.2546,-6.2546,-6.2546,-6.2546,-6.2546,-6.2546,-6.2546,0.0,0.0,0.0,0.0,0.0,0.0,0.0,0.0,0.0,0.0,0.0,0.0,0.0,0.0,0.0,0.0,0.0,0.0,-5.9047,-5.9012,-5.9599,-6.0909,-6.1185,-6.191,-6.322,-6.3496,-6.36,-6.36,-6.3377,-6.3227,-6.3114,-6.2101,-6.1313,-6.0566,-5.963,-5.8955,-5.849,-5.8171,-5.8348,-5.8701,-5.8561,-5.8666,-5.8772,0.0,0.0,0.0,0.0,0.0,0.0,0.0,0.0,0.0,-5.2555,-5.2224,-5.2043,-5.1683,-5.163,-5.1805,-5.2298,-5.4235,-5.6186,-5.6217,-5.8259,-6.1163,-6.4203,-6.3806,-6.3952,-6.7891,-6.8143,-6.7009,-6.4885,-6.4631,0.0,-6.0791,-6.0362,-6.0121,-5.9189,-5.7679,-5.6666,-5.6666,-5.6105,-5.567,-5.5432,-5.5802,-5.6399,-5.7233,-5.7674,-5.8792,-6.0946,-5.9332,-5.9466,-6.2033,-6.0726,-6.0764,-6.2393,-6.3045,-6.3357,-6.3357,-6.3357,-6.2459,-6.0782,-6.0782,-6.0782,-6.0782,-6.0782,-6.0864,-6.1123,-6.2261,-6.3539,-6.4752,-6.4752,-6.4752,-6.4752,-6.4752,-6.4752,-6.4752,0.0,0.0,0.0,0.0,0.0,0.0,0.0,0.0,-6.5494,-6.527,-6.4972,-6.4669,0.0,0.0,0.0,-6.1359,-6.0185,-5.9357,-5.9047,-5.9012,-5.9702,-6.122,-6.1289,-6.2013,-6.3565,-6.36,-6.36,-6.36,-6.3377,-6.3127,-6.2744,-6.1927,-6.1068,-6.012,-5.9312,-5.8812,-5.849,-5.8063,-5.8135,-5.8525,-5.8348,-5.8385,-5.8493,0.0,0.0,0.0,0.0,0.0,0.0,0.0,0.0,0.0,-5.2938,-5.2861,-5.2932,-5.2525,-5.2492,-5.2784,-5.3651,-5.5426,-5.7401,-5.8816,-6.1046,-6.3657,-6.6374,-6.6878,-6.7247,-6.8798,-6.9335,-6.9075,-6.7589,-6.7579,0.0,-6.4179,-6.3061,-6.213,-6.0839,-5.907,-5.7706,-5.7157,-5.6536,-5.5908,-5.5165,-5.5682,-5.6478,-5.7598,-5.8281,-5.9656,-6.1974,-6.0579,-6.0726,-6.2908,-6.186,-6.1896,-6.329,-6.3887,-6.4203,-6.4203,-6.4203,-6.3422,-6.2018,-6.2018,-6.2018,-6.2018,-6.2018,-6.2018,-6.2113,-6.3051,-6.4084,-6.4956,-6.4956,-6.4956,-6.4956,-6.4956,-6.4956,-6.4956,0.0,0.0,0.0,0.0,0.0,0.0,0.0,-6.5846,-6.5204,-6.4601,-6.3967,-6.36,0.0,0.0,0.0,-6.1358,-6.0565,-5.9771,-5.9047,-5.9012,-5.9668,-6.1151,-6.1254,-6.1979,-6.3462,-6.3427,-6.3393,-6.3393,-6.324,-6.2744,-6.1907,-6.1548,-6.0653,-5.9253,-5.9038,-5.8778,-5.8455,-5.8063,-5.8027,-5.8207,-5.7991,-5.7918,-5.7954,-5.8135,0.0,0.0,0.0,0.0,0.0,0.0,0.0,0.0,-5.3518,-5.3908,-5.4204,-5.3363,-5.3652,-5.4454,-5.538,-5.6137,-5.7786,-6.2456,-6.4173,-6.5618,-6.9051,-7.0315,-7.0599,-6.9904,-7.0315,-7.0789,-7.0789,-7.0789,-7.0147,-6.82,-6.6361,-6.4453,-6.2438,-6.054,-5.8815,-5.7451,-5.7258,-5.6769,-5.5405,-5.5852,-5.6744,-5.8157,-5.9285,-6.0673,-6.2522,-6.2458,-6.268,-6.3342,-6.322,-6.3192,-6.3405,-6.3916,-6.4232,-6.4232,-6.4232,-6.4232,-6.4167,-6.3973,-6.3908,-6.3908,-6.3908,-6.3973,-6.4037,-6.4037,-6.4102,-6.4167,-6.4167,-6.4167,-6.4167,-6.4167,-6.4167,-6.4167,0.0,0.0,0.0,0.0,0.0,0.0,-6.4323,-6.4146,-6.3967,-6.3858,-6.3675,-6.36,-6.36,-6.2393,0.0,-6.1323,-6.0047,-5.9185,-5.9012,-5.9012,-5.9426,-6.0392,-6.0978,-6.1737,-6.2703,-6.2117,-6.1806,-6.1806,-6.2061,-6.2081,-6.1872,-6.0455,-5.9522,-5.9035,-5.8572,-5.8341,-5.8277,-5.7991,-5.8099,-5.8419,-5.8241,-5.8241,-5.8384,-5.8419,-5.7839,0.0,0.0,0.0,0.0,0.0,0.0,0.0,-5.3518,-5.3908,-5.4204,-5.3363,-5.4633,-5.614,-5.5178,-5.7594,-6.0815,-6.2507,-6.5721,-6.887,-7.0252,-7.0662,-7.0726,-7.0568,-7.0662,-7.0789,-7.0789,-7.0789,-7.0315,-6.876,-6.7728,-6.6473,-6.4473,-6.2493,-6.0661,-5.8877,-5.869,-5.8123,-5.6769,-5.7752,-5.8701,-5.9428,-6.0217,-6.1506,-6.3515,-6.2623,-6.33,-6.6053,-6.4589,-6.4685,-6.6485,-6.6634,-6.6723,-6.6723,-6.6723,-6.66,-6.629,-6.4618,-6.3908,-6.3908,-6.4138,-6.4589,-6.51,-6.51,-6.5572,-6.6352,-6.6352,-6.6352,-6.6352,-6.6352,-6.6352,-6.6352,0.0,0.0,0.0,0.0,0.0,0.0,0.0,0.0,-6.4384,-6.3708,-6.36,-6.36,-6.36,-6.222,0.0,0.0,-5.9909,-5.9012,-5.9012,-5.9012,-5.9357,-6.0151,-6.0909,-6.1496,-6.191,-6.1496,-6.1289,-6.1289,-6.1071,-6.096,-6.0926,-5.9921,-5.9196,-5.8749,-5.8375,-5.8243,-5.8348,-5.8027,-5.8063,-5.8348,-5.8135,-5.8099,-5.8207,-5.8348,-5.7836,-5.7015,-5.6746,0.0,0.0,0.0,0.0,0.0,0.0,0.0,-5.4395,-5.3879,-5.4649,-5.5918,-5.7166,-5.9058,-6.1433,-6.4727,-6.794,-7.0315,-7.0694,-7.0789,-7.0789,-7.0789,-7.0789,-7.0789,-7.0789,-7.0789,-7.0315,-6.8924,-6.8178,-6.7205,-6.5475,-6.3841,-6.2232,-6.06,-6.0234,-5.9498,-5.8214,-5.8906,-6.0018,-6.1331,0.0,-6.325,-6.5264,-6.4702,-6.5191,-6.6908,-6.5996,-6.6058,-6.7243,-6.7243,-6.7243,-6.7243,-6.7243,-6.7182,-6.6999,-6.5886,-6.5383,-6.5383,-6.5572,-6.5823,-6.6136,-6.6136,-6.6476,-6.6999,-6.6999,-6.6999,-6.6999,-6.6999,-6.7121,-6.7243,0.0,0.0,0.0,0.0,0.0,0.0,0.0,0.0,0.0,-6.3742,-6.36,-6.3531,-6.3427,-6.2151,-6.1254,0.0,0.0,0.0,-5.9012,-5.9012,-5.9357,-6.0151,-6.0634,-6.0978,-6.1116,-6.0978,-6.0909,-6.0909,-6.0148,-5.9733,-5.9698,-5.9484,-5.9069,-5.8384,-5.8277,-5.8277,-5.8384,-5.8027,-5.7991,-5.8135,-5.7954,-5.7881,-5.7918,-5.8063,-5.7654,-5.7004,-5.708,-5.6196,-5.4938,-5.4702,0.0,0.0,0.0,0.0,-5.4563,-5.4446,-5.465,-5.5619,-5.886,-5.9931,-6.1534,-6.7269,-6.9651,-7.0631,-7.0757,-7.0789,-7.0789,-7.0789,-7.0789,-7.0789,-7.0789,-7.0789,-7.0315,-6.8924,-6.8289,-6.7457,-6.5887,-6.4881,-6.3702,-6.2261,-6.1792,-6.1048,-5.9716,0.0,0.0,0.0,0.0,-6.4879,-6.6728,-6.6939,-6.6999,-6.6999,-6.6999,-6.6999,-6.6999,-6.6999,-6.6999,-6.6999,-6.6999,-6.6999,-6.6999,-6.6999,-6.6999,-6.6999,-6.706,-6.706,-6.6999,-6.6999,-6.6999,-6.6999,-6.6999,-6.6999,-6.6999,-6.6999,-6.7182,-6.7365,0.0,0.0,0.0,0.0,0.0,0.0,0.0,0.0,0.0,0.0,-6.36,-6.3358,-6.2703,-6.1841,-6.1047,-6.0392,-5.953,-5.9012,-5.9012,0.0,0.0,-6.0151,-5.9633,-5.9633,-6.0323,-5.9668,-5.9323,-5.9323,-5.9185,-5.9047,-5.8942,-5.8733,-5.8415,-5.7991,-5.8135,-5.8099,-5.7954,-5.7918,-5.7918,-5.7918,-5.7918,-5.7881,-5.7881,-5.7918,-5.785,-5.7715,-5.725,-5.6841,-5.6327,-5.5144,-5.4635,0.0,0.0,0.0,-5.4563,-5.4446,-5.609,-5.7707,-5.6854,-5.9379,-6.3318,-6.7647,-6.9272,-6.9999,-7.0631,-7.0789,-7.0789,0.0,-7.0789,-7.0789,-7.0789,-7.0789,-7.0315,-6.8924,-6.8617,-6.7926,-6.5941,-6.5592,-6.4734,-6.2924,0.0,0.0,0.0,0.0,0.0,0.0,-6.4457,-6.5263,-6.6101,-6.667,-6.6999,-6.6999,-6.6999,-6.6999,-6.6999,-6.6999,-6.6999,-6.6999,-6.6999,-6.6999,-6.6999,-6.6999,-6.6999,-6.6999,-6.7304,-6.7304,-6.6999,-6.6999,-6.6999,-6.6999,-6.6999,-6.6999,-6.6999,-6.6999,-6.706,-6.706,0.0,0.0,0.0,0.0,0.0,0.0,0.0,0.0,0.0,0.0,0.0,-6.2841,-6.253,-6.1392,-6.0565,-6.022,-5.9461,-5.9012,-5.9012,-5.9012,-5.9185,-5.953,-5.9185,-5.9185,-5.953,-5.9185,-5.9012,-5.9012,-5.9012,-5.8875,-5.8631,-5.8525,-5.8348,-5.8063,-5.8135,-5.8063,-5.7881,-5.7881,-5.7881,-5.7881,-5.7881,-5.866,-5.9674,-5.8535,-5.8804,-5.9644,-5.8201,-5.735,-5.6697,-5.6126,-5.5312,-5.4532,-5.4228,0.0,0.0,0.0,-5.5018,-5.5949,-5.766,-6.1264,-6.5132,-6.7502,-6.9067,-7.0084,-7.0188,-7.0473,-7.0662,-7.0252,-7.0157,-7.0283,-7.0694,-7.0789,-7.0315,-6.8924,-6.8703,-6.8143,-6.6456,-6.5915,0.0,0.0,0.0,0.0,0.0,0.0,0.0,0.0,-6.4635,-6.5323,-6.5981,-6.664,-6.6999,-6.6999,-6.6999,-6.6999,-6.6999,-6.6999,-6.6999,-6.6999,-6.6999,-6.6999,-6.6999,-6.6999,-6.6999,-6.6999,-6.7182,-6.7121,-6.6999,-6.6999,-6.6999,-6.6999,-6.6999,-6.6999,-6.6999,-6.6999,-6.7121,-6.7243,0.0,0.0,0.0,0.0,0.0,0.0,0.0,0.0,0.0,0.0,0.0,-6.2393,-6.222,0.0,0.0,0.0,-5.9357,-5.9012,-5.9012,-5.9012,-5.9012,-5.9012,-5.9012,-5.9012,-5.9012,-5.9012,-5.9012,-5.9012,-5.8806,-5.8531,-5.8217,-5.8012,-5.7804,-5.759,-5.7963,-5.8027,-5.7881,-5.7881,-5.7881,-5.7949,-5.8524,-5.9776,-6.1129,-5.9553,-6.0058,-6.1303,-5.8979,-5.7823,-5.7306,-5.6934,-5.5953,-5.4837,-5.4668,-5.4093,0.0,0.0,0.0,-5.4463,-5.8486,-6.1562,-6.4129,-6.6488,-6.7922,-6.8878,-6.9343,0.0,-7.0346,0.0,-6.9841,-7.0062,-7.0441,-7.0504,-7.003,-6.864,-6.8577,-6.8197,0.0,0.0,0.0,0.0,0.0,0.0,0.0,0.0,0.0,0.0,-6.4694,-6.5323,-6.5981,-6.664,-6.6999,-6.6999,-6.6999,-6.6999,-6.6999,-6.6999,-6.6999,-6.6999,-6.6999,-6.6999,-6.6999,-6.6999,-6.6999,-6.6999,-6.6999,-6.6999,-6.6999,-6.6999,-6.6999,-6.6999,-6.6999,-6.6999,-6.6999,-6.6999,-6.7182,-6.7365,0.0,0.0,0.0,0.0,0.0,0.0,-6.36,-6.3634,0.0,0.0,0.0,-6.2186,-6.1461,-6.0668,-5.9909,-5.915,-5.9047,-5.9012,-5.9012,-5.9012,-5.9012,-5.9012,-5.9012,0.0,-5.9012,-5.9012,-5.9012,-5.9012,-5.8323,-5.7809,-5.7431,-5.6679,-5.6132,-5.5886,-5.7309,-5.7918,-5.7881,-5.7881,-5.7881,-5.8084,-6.025,-6.1197,-6.1298,-6.1163,-6.1637,-6.1941,-5.9001,-5.8321,-5.8693,-5.7273,-5.6292,-5.5547,-5.4803,-5.4093,-5.3653,0.0,0.0,0.0,-5.821,-5.7975,-5.8305,-6.4141,-6.5028,-6.5251,-6.808,0.0,-6.9714,-6.9683,-7.0252,-7.0536,-6.9872,-6.9746,-6.9272,-6.7881,-6.8229,0.0,0.0,0.0,0.0,0.0,0.0,0.0,0.0,0.0,0.0,0.0,-6.493,-6.5323,-6.5981,-6.664,-6.6999,-6.6999,-6.6999,-6.6999,-6.6999,-6.6999,-6.6999,-6.6999,-6.6999,-6.6999,-6.6999,-6.6999,-6.6999,-6.6999,-6.6999,-6.6999,-6.6999,-6.6999,-6.6999,-6.6999,-6.6999,-6.6999,-6.6999,-6.6999,-6.6999,-6.706,0.0,0.0,0.0,0.0,0.0,0.0,-6.36,-6.36,-6.36,0.0,0.0,0.0,0.0,-6.0634,-5.9875,-5.9081,-5.9012,-5.9012,-5.9012,-5.9012,-5.9012,-5.9012,-5.9012,-5.9012,-5.9012,-5.9012,-5.8771,-5.8288,-5.8047,-5.7533,-5.6816,-5.6406,-5.6099,-5.5925,-5.6293,-5.6765,-5.7171,-5.7171,-5.7476,-5.8084,-6.0385,-6.2415,-6.3971,-6.255,-6.3971,-6.617,-6.2212,-6.0655,0.0,0.0,0.0,0.0,0.0,0.0,-5.416,-5.3957,-5.419,-5.4984,-5.6977,-5.7993,-5.9036,-6.1361,-6.3677,-6.5472,-6.5772,-6.7832,-6.9556,-6.9146,-6.9272,-6.9209,-6.8482,-6.9082,-6.9209,0.0,0.0,0.0,0.0,0.0,0.0,0.0,0.0,0.0,0.0,0.0,0.0,0.0,0.0,-6.562,-6.5864,-6.6548,-6.6974,-6.6974,-6.6942,-6.6999,-6.6999,-6.6999,-6.6999,-6.6999,-6.6814,-6.6814,-6.6999,-6.6814,-6.6814,-6.6999,-6.6753,-6.6691,-6.6691,-6.6691,-6.6691,-6.6721,-6.7138,-6.7441,-6.7657,-6.8106,-6.8286,-6.8286,0.0,0.0,0.0,-6.5152,0.0,-6.3876,-6.3634,-6.36,-6.36,-6.36,0.0,0.0,0.0,0.0,-5.9875,-5.9081,-5.9012,-5.9012,-5.9012,-5.9012,-5.9012,-5.9012,-5.9012,-5.8909,-5.8633,-5.8633,-5.8288,-5.7529,-5.7253,-5.6742,-5.5993,-5.5653,-5.5349,-5.5144,-5.5007,-5.5649,-5.6799,-5.6799,-5.7239,-5.8186,-6.1467,-6.3937,-6.5561,0.0,0.0,0.0,0.0,0.0,0.0,0.0,0.0,0.0,0.0,0.0,0.0,-5.3721,-5.3856,-5.4497,-5.5682,-5.6895,-5.8082,-5.902,-6.1037,-6.3001,-6.3733,0.0,-6.767,-6.8229,-6.8703,-6.8798,-6.8103,-6.8893,0.0,0.0,0.0,0.0,0.0,0.0,0.0,0.0,0.0,0.0,0.0,0.0,0.0,0.0,0.0,0.0,-6.5786,-6.646,-6.6838,-6.6838,-6.691,-6.6914,-6.6914,-6.6914,-6.6914,-6.6822,-6.6579,-6.6514,-6.6691,-6.6444,-6.6568,-6.6999,-6.6714,-6.6559,-6.6506,-6.6589,-6.6678,-6.6892,-6.7545,-6.8002,-6.8375,-6.8824,-6.894,-6.8784,0.0,0.0,0.0,-6.6048,-6.5255,-6.4496,-6.3738,-6.3634,-6.36,-6.36,0.0,0.0,0.0,0.0,0.0,-5.9081,-5.9012,-5.9012,-5.9012,-5.9012,-5.9012,-5.9012,-5.9012,-5.8668,-5.7909,-5.7909,-5.7529,-5.6771,-5.5977,-5.5403,-5.5073,-5.4322,-5.3817,-5.3518,-5.3518,-5.4735,-5.6765,-5.6765,-5.7205,-5.8389,0.0,-6.573,-6.5831,0.0,0.0,0.0,-6.4483,-6.3764,0.0,-6.5026,0.0,0.0,0.0,0.0,0.0,-5.3754,-5.3518,-5.3653,0.0,0.0,0.0,-5.7053,-5.7066,0.0,-6.1982,0.0,-6.3897,-6.6902,-6.8577,-6.9335,-6.8766,0.0,0.0,0.0,0.0,0.0,0.0,0.0,0.0,0.0,0.0,0.0,0.0,0.0,0.0,0.0,-6.5806,-6.5873,-6.5873,-6.6519,-6.6831,-6.6831,-6.6831,-6.6831,-6.6801,-6.6801,-6.6678,-6.6432,-6.6432,-6.628,-6.61,-6.61,-6.6411,-6.7089,-6.7001,-6.6786,-6.6624,-6.6841,-6.7141,-6.7575,-6.8135,-6.8623,-6.9034,-6.9064,-6.878,-6.8496,0.0,0.0,0.0,-6.6704,-6.6048,-6.529,-6.4531,-6.4393,-6.4186,0.0,0.0,0.0,-6.253,-6.1116,-5.9875,-5.9081,-5.9012,-5.9012,-5.9012,-5.9012,-5.9012,-5.9012,-5.9012,-5.8668,-5.7909,-5.7909,-5.7253,-5.5943,-5.5606,-5.5098,-5.4451,-5.4017,-5.375,-5.3617,-5.3551,-5.4431,-5.6021,-5.6021,0.0,-5.9099,-6.3802,-6.6339,0.0,0.0,0.0,0.0,0.0,-6.9596,-6.9451,0.0,-6.6617,-6.2381,0.0,0.0,0.0,-5.4363,-5.3923,-5.3551,-5.3754,0.0,0.0,0.0,0.0,0.0,0.0,0.0,0.0,-6.4689,-6.5496,0.0,0.0,0.0,0.0,0.0,0.0,0.0,0.0,0.0,0.0,0.0,0.0,0.0,0.0,0.0,0.0,0.0,-6.7597,-6.7896,-6.7896,-6.7909,-6.7769,-6.7539,-6.7307,-6.6977,-6.6487,-6.6487,-6.6561,-6.673,-6.6492,-6.7005,-6.8119,-6.7934,-6.8328,-6.9181,-6.8898,-6.8743,-6.8623,-6.7663,-6.7337,-6.7489,-6.8135,-6.8631,-6.9015,-7.0007,-7.0316,-7.0286,0.0,0.0,-6.7359,-6.7049,-6.6635,-6.6083,-6.5324,-6.5186,-6.491,0.0,0.0,0.0,-6.2117,-6.1496,-6.0703,-5.9599,-5.9495,-5.9357,-5.9047,-5.9012,-5.9012,-5.9012,-5.9012,-5.8668,-5.7909,-5.7598,-5.6807,-5.5503,-5.5096,-5.4588,-5.4013,-5.3783,-5.3684,-5.3618,-5.3517,-5.4329,-5.5681,-5.5681,0.0,0.0,-6.4106,0.0,0.0,-7.1007,-7.3477,0.0,0.0,0.0,-7.2665,-7.2417,-6.8353,0.0,0.0,0.0,-5.5006,-5.4668,-5.4093,-5.3518,-5.3518,-5.4025,-5.4497,0.0,0.0,0.0,-5.8218,-5.9375,0.0,0.0,0.0,0.0,0.0,0.0,0.0,0.0,0.0,0.0,0.0,0.0,0.0,0.0,0.0,0.0,0.0,-6.6805,-6.6973,-6.6834,-6.744,-6.7974,-6.8289,-6.8558,-6.865,-6.8391,-6.8701,-6.8639,-6.8267,-6.8267,-6.8232,-6.8174,-6.7936,-6.8243,-6.8997,-6.8811,-6.9146,-6.9973,-6.978,-6.9838,-6.9994,-6.9214,-6.8767,-6.8783,-6.937,-6.988,-7.0248,-7.1083,-7.1228,-7.1147,0.0,0.0,-6.7876,-6.7221,-6.7118,-6.6876,-6.6117,-6.6014,-6.5738,0.0,-6.4186,-6.3151,-6.1599,-6.2048,-6.191,-6.0461,-6.0323,-5.9978,-5.9185,-5.915,-5.9116,-5.9012,-5.9012,-5.8668,-5.7909,-5.7253,-5.6396,-5.5407,-5.4653,-5.4081,-5.3717,-5.3684,-5.3584,-5.3518,-5.3518,-5.4329,-5.5681,-5.5681,0.0,-5.8896,-6.4546,-6.6948,0.0,0.0,-7.4424,-7.5134,-7.4725,-7.4814,-7.4897,-7.3843,-6.9897,0.0,0.0,0.0,-5.6528,-5.504,-5.4363,-5.4025,-5.3619,-5.3991,0.0,0.0,0.0,0.0,-5.8285,-5.8969,-6.0059,0.0,0.0,0.0,0.0,0.0,0.0,0.0,0.0,0.0,0.0,0.0,0.0,0.0,0.0,0.0,-6.6139,-6.6233,-6.6126,-6.5825,-6.6449,-6.7104,-6.7815,-6.882,-6.9395,-6.9357,-7.0336,-7.0796,-7.0733,-7.0733,-7.048,-6.9965,-6.9905,-6.9671,-6.9316,-6.9316,-6.9722,-7.034,-7.026,-7.0564,-7.1097,-7.11,-7.0882,-7.0622,-7.113,-7.1538,-7.1822,-7.1934,-7.1763,-7.1434,-6.798,-6.8083,-6.8049,-6.7911,-6.7876,-6.7635,-6.6876,-6.6773,-6.6497,-6.5738,-6.4979,-6.391,-6.2427,-6.2393,-6.2117,-6.1151,-6.1082,-6.0771,-6.0013,-5.9978,-5.9668,-5.9047,-5.9012,-5.8668,-5.7909,-5.7771,-5.6913,-5.5407,-5.5104,-5.4495,-5.3717,-5.3584,-5.3551,-5.3518,-5.3518,-5.4329,-5.5681,-5.5681,0.0,-6.1806,-6.5392,0.0,-7.0026,-7.4525,-7.7435,-7.9092,-7.9007,-7.8668,-7.7468,-7.2541,-7.0883,-6.9755,0.0,0.0,0.0,-5.6393,-5.619,-5.7306,-5.4329,0.0,0.0,0.0,0.0,0.0,-5.5996,-5.5798,-5.6201,0.0,0.0,0.0,0.0,0.0,0.0,0.0,0.0,0.0,0.0,0.0,0.0,0.0,0.0,0.0,-6.5808,-6.6339,-6.6628,-6.6574,-6.7198,-6.7714,-6.8092,-6.9145,-6.9753,-6.9604,-7.0633,-7.0928,-7.0419,-7.0104,-7.0104,-7.032,-7.0024,-7.0431,-7.1383,-7.1383,-7.1752,-7.2397,-7.2395,-7.2457,-7.2612,-7.261,-7.1855,-7.0869,-7.0924,-7.1044,-7.1163,-7.1722,-7.185,-7.1877,-6.7945,-6.8083,-6.8083,-6.8083,-6.8083,-6.798,-6.7601,-6.7532,-6.7251,-6.6415,-6.5508,-6.4576,-6.3589,-6.3796,-6.342,-6.2013,-6.222,-6.1806,-6.0289,-6.053,-6.0392,-5.9633,-5.9495,-5.9116,-5.8359,-5.7844,-5.6953,-5.5689,-5.5212,-5.4465,-5.3618,-5.389,-5.4059,-5.4059,-5.4431,-5.5209,-5.6292,0.0,-5.9275,-6.3357,-6.5399,0.0,-7.165,-7.5033,-7.7705,-7.9667,-7.9667,-7.8957,-7.7671,-7.5405,-7.2157,0.0,0.0,-6.441,-6.2178,0.0,-5.8118,-5.8287,0.0,0.0,0.0,-5.4059,0.0,0.0,0.0,0.0,-5.698,0.0,0.0,0.0,0.0,0.0,0.0,0.0,0.0,0.0,0.0,0.0,0.0,0.0,0.0,0.0,-6.6447,-6.6541,-6.6641,-6.6815,-6.6846,-6.7138,-6.7703,-6.9412,-7.0423,-7.0501,-7.2202,-7.2868,-7.2347,-7.2171,-7.2033,-7.1928,-7.1747,-7.1997,-7.2491,-7.2491,-7.2675,-7.2983,-7.2983,-7.2983,-7.2983,-7.2983,-7.2792,-7.2402,-7.2068,-7.2149,-7.2405,-7.2444,-7.266,-7.2922,-6.7734,-6.794,-6.8004,-6.7999,-6.8039,-6.8044,-6.8044,-6.8078,-6.7803,-6.6883,-6.6073,-6.5309,-6.4748,-6.5469,-6.534,-6.3738,-6.4393,-6.3807,-6.1184,-6.17,-6.1528,-6.0149,-5.9939,-5.9559,-5.8976,-5.8013,-5.7088,-5.62,-5.5553,-5.4771,-5.3957,-5.4532,-5.4803,-5.4871,-5.5921,-5.6564,-5.6867,0.0,0.0,-6.4523,0.0,-6.8818,-7.3354,-7.5676,-7.7908,-7.9701,-7.9431,-7.8551,-7.757,-7.7773,-7.3172,-6.7624,-6.8977,-6.6305,0.0,0.0,0.0,0.0,0.0,0.0,0.0,0.0,0.0,-5.5067,0.0,0.0,0.0,0.0,0.0,0.0,0.0,0.0,0.0,0.0,0.0,0.0,0.0,0.0,0.0,0.0,0.0,0.0,0.0,-6.5868,-6.5911,-6.6642,-6.5842,-6.5831,-6.7038,-6.9423,-7.0897,-7.1311,-7.3615,-7.4719,-7.4419,-7.4419,-7.4089,-7.3509,-7.3509,-7.3293,-7.2983,-7.2983,-7.2983,-7.2983,-7.2983,-7.3045,-7.3168,-7.3045,-7.3445,-7.4091,-7.3291,-7.3407,-7.3876,-7.338,-7.3466,-7.3937,-6.6843,-6.7393,-6.7799,-6.7597,-6.7719,-6.7839,-6.7839,-6.7999,-6.7842,-6.7044,-6.6872,-6.6527,-6.5803,-6.6975,-6.7699,-6.7497,0.0,0.0,-6.4167,-6.4645,-6.3505,-5.9824,-5.9654,-5.9583,-5.9515,-5.8763,-5.7941,-5.6981,-5.6879,-5.6366,-5.548,-5.5547,-5.5581,-5.5683,-5.7963,-5.8165,-5.6934,0.0,-6.261,0.0,-6.6609,-7.0294,0.0,-7.8684,-8.0648,-8.1866,-8.0547,-7.9972,-7.9126,0.0,-7.3341,-7.2293,0.0,-6.6812,-6.9891,-5.9302,0.0,0.0,0.0,0.0,0.0,0.0,-5.5478,0.0,0.0,0.0,0.0,-5.7857,0.0,0.0,0.0,0.0,0.0,0.0,0.0,0.0,0.0,0.0,0.0,0.0,0.0,0.0,0.0,0.0,-6.3964,-6.5873,-6.4241,-6.4104,-6.6319,-6.8738,-7.0428,-7.1253,-7.3615,-7.4719,-7.4419,-7.4419,-7.4089,-7.3509,-7.3509,-7.3293,-7.2983,-7.2983,-7.2983,-7.2983,-7.2983,-7.3322,-7.3845,-7.3229,-7.3753,-7.4769,-7.3476,-7.3382,-7.3965,-7.3937,-7.3905,-7.4057,-6.6661,-6.7204,-6.7597,-6.7516,-6.7557,-6.7638,-6.7638,-6.7597,-6.7454,-6.7146,-6.6621,-6.6342,-6.6633,-6.6394,0.0,0.0,0.0,-6.7988,0.0,0.0,-6.4873,-6.1736,-6.1078,-6.0322,-5.947,-5.9021,-5.8201,-5.6906,-5.6906,-5.6498,-5.5681,-5.6156,-5.6359,-5.6494,-5.9834,-6.0891,-6.034,0.0,-6.5221,0.0,0.0,0.0,0.0,-7.7905,-7.9194,-8.0479,-8.0276,-7.9938,-7.9295,0.0,-7.4458,0.0,0.0,0.0,0.0,0.0,0.0,0.0,0.0,0.0,0.0,0.0,0.0,0.0,-5.6494,0.0,-5.6393,0.0,0.0,0.0,0.0,0.0,0.0,0.0,0.0,0.0,0.0,0.0,0.0,0.0,0.0,0.0,0.0,0.0,0.0,0.0,0.0,-6.4412,-6.6728,-6.8976,-7.0451,-7.0991,-7.3142,-7.4178,-7.3906,-7.3906,-7.3662,-7.3169,-7.3169,-7.3107,-7.2983,-7.2983,-7.2983,-7.2983,-7.2983,-7.3353,-7.3968,-7.3691,-7.4122,-7.4953,-7.4368,-7.4338,-7.4522,-7.4122,-7.4491,-7.5199,-6.6536,-6.7003,-6.7387,-6.7312,-6.7387,-6.7428,-6.751,-6.7216,-6.7025,-6.7229,-6.6629,-6.6554,-6.7467,-6.7584,0.0,0.0,-7.0526,-7.0106,0.0,0.0,-6.6885,-6.3981,-6.2561,-6.1533,-6.0857,-5.9651,-5.849,-5.7408,-5.7205,-5.6833,-5.6325,-5.6867,-5.7103,-5.7239,-6.1023,-6.2702,-6.2838,0.0,-6.7837,-7.0798,-7.1647,-7.3932,-7.6863,-7.7803,-7.8653,-7.9464,-8.0006,-7.9735,-7.9092,-7.8991,-7.5236,0.0,-7.3883,0.0,0.0,0.0,0.0,0.0,-5.9505,0.0,0.0,0.0,0.0,0.0,0.0,0.0,0.0,0.0,0.0,0.0,0.0,0.0,0.0,0.0,0.0,0.0,0.0,0.0,0.0,0.0,0.0,0.0,0.0,0.0,0.0,0.0,0.0,0.0,-6.7296,-6.9329,-7.059,-7.0921,-7.2878,-7.3753,-7.3509,-7.3539,-7.3416,-7.2983,-7.3107,-7.3107,-7.2983,-7.2983,-7.3076,-7.326,-7.326,-7.3753,-7.4522,-7.4153,-7.4491,-7.523,-7.4676,-7.4676,-7.4953,-7.4645,-7.5169,-7.6,-6.616,-6.667,-6.7139,-6.6854,-6.7056,-6.7263,-6.7469,-6.6895,-6.669,-6.7407,-6.7475,-6.7749,0.0,0.0,0.0,0.0,0.0,-7.6734,-7.1123,0.0,-7.0098,-6.6167,-6.369,-6.3148,-6.4778,-6.0973,-5.8998,-5.893,-5.822,-5.7848,-5.7814,-5.7848,-5.7848,-5.8019,-6.1223,-6.2697,-6.294,-6.6929,-7.0362,-7.3123,-7.3606,-7.4589,-7.6115,0.0,-8.075,-8.0175,-8.0175,0.0,0.0,-7.6589,-7.5202,0.0,0.0,0.0,0.0,0.0,0.0,0.0,0.0,0.0,0.0,-5.8592,0.0,0.0,0.0,0.0,-5.6156,0.0,0.0,0.0,0.0,0.0,0.0,0.0,0.0,0.0,0.0,0.0,0.0,0.0,0.0,0.0,0.0,0.0,0.0,0.0,0.0,0.0,-6.7627,-6.946,-7.0689,-7.134,-7.3006,-7.3753,-7.3509,-7.3753,-7.357,-7.2983,-7.3324,-7.3293,-7.2983,-7.2983,-7.3322,-7.3968,-7.3968,-7.4707,-7.5846,-7.4522,-7.4769,-7.5784,-7.3814,-7.3845,-7.5076,-7.5723,-7.5969,-7.6,-6.6558,-6.6727,-6.6896,-6.6812,-6.6854,-6.6938,-6.7022,-6.6418,-6.6799,-6.9212,-6.8675,0.0,0.0,-7.1944,-7.2784,0.0,0.0,-7.495,-7.1833,-7.2336,0.0,-6.7698,-6.565,-6.4701,0.0,0.0,-6.052,-5.9032,-5.8761,-5.8389,-5.7881,-5.7881,-5.7881,-5.8087,-6.1838,-6.4687,0.0,0.0,0.0,0.0,0.0,-7.432,-7.6116,0.0,0.0,-7.8213,-7.9667,-8.004,0.0,-7.8923,-7.7198,-7.5371,-7.5642,-7.368,-7.121,-7.0669,-7.0195,0.0,0.0,0.0,-6.7827,-6.2854,0.0,0.0,0.0,0.0,0.0,0.0,0.0,0.0,0.0,0.0,0.0,0.0,0.0,0.0,0.0,0.0,0.0,0.0,0.0,0.0,0.0,0.0,0.0,0.0,0.0,0.0,0.0,-6.9962,-7.0855,-7.1071,-7.2551,-7.3293,-7.3169,-7.3293,-7.32,-7.2983,-7.3107,-7.3354,-7.363,-7.3199,-7.3353,-7.3999,-7.3999,-7.4245,-7.4676,-7.4676,-7.512,-7.5744,-7.4747,-7.4842,-7.5431,-7.487,-7.4953,-7.5261,-6.6812,-6.6812,-6.6812,-6.6812,-6.6812,-6.6711,-6.644,-6.6237,-6.7066,0.0,-6.9773,0.0,-7.367,0.0,-7.4885,0.0,-7.7204,-7.6324,-7.3406,-7.4272,0.0,-7.0174,-6.8719,0.0,0.0,0.0,0.0,0.0,-5.9712,-5.8626,-5.7881,-5.7881,-5.7881,-5.8053,-6.1185,-6.4852,-6.8822,-7.0567,-7.3719,0.0,0.0,-7.4128,0.0,0.0,-7.642,-7.7198,0.0,-8.0209,-8.0209,-8.0209,-7.872,-7.7164,-7.8653,-7.6284,-7.3105,-7.3781,-7.3375,-7.2191,-7.0094,-7.1109,0.0,-6.6373,-6.5967,0.0,-6.0622,0.0,0.0,0.0,0.0,0.0,0.0,0.0,0.0,0.0,0.0,0.0,0.0,0.0,0.0,0.0,0.0,0.0,0.0,0.0,0.0,0.0,0.0,0.0,0.0,0.0,-7.0644,-7.089,-7.2029,-7.2737,-7.2983,-7.2983,-7.2983,-7.2983,-7.3107,-7.3354,-7.363,-7.357,-7.3693,-7.4062,-7.4718,-7.4967,-7.506,-7.565,-7.6261,-7.6701,-7.5919,-7.5797,-7.6011,-7.4811,-7.4461,-7.4615,-6.6812,-6.6812,-6.6812,-6.688,-6.6812,-6.6542,-6.5899,-6.6305,-6.7404,0.0,-7.094,-7.2833,-7.5413,-7.8519,-8.0411,-8.0377,-8.1874,-8.076,-7.5914,-7.7148,0.0,0.0,-7.2644,-7.3323,-7.5671,0.0,0.0,0.0,0.0,-5.8727,-5.7949,-5.7915,-5.7881,-5.7949,-5.9438,0.0,-6.8686,-7.0943,-7.5135,-7.9993,-7.6656,-7.4185,-7.2677,-7.4153,-7.5642,-7.7198,-7.9397,-8.0209,-8.0209,-8.0209,-7.9735,-7.916,-7.916,-7.8653,-7.7908,-7.7266,-7.8044,-7.8179,-7.395,-7.3274,-7.2868,-6.9147,-6.7658,0.0,0.0,0.0,-6.1839,0.0,0.0,0.0,0.0,0.0,0.0,0.0,0.0,0.0,0.0,0.0,0.0,0.0,0.0,0.0,0.0,0.0,0.0,0.0,0.0,0.0,0.0,0.0,-7.0149,-7.089,-7.1598,-7.2306,-7.2983,-7.3045,-7.3045,-7.3045,-7.3355,-7.3386,-7.3107,-7.4098,-7.4376,-7.4157,-7.6021,-7.6791,-7.6725,-7.7365,-7.7981,-7.8402,-7.7139,-7.672,-7.6673,-7.5461,-7.4584,-7.4122,-6.6812,-6.6812,-6.6981,-6.7523,-6.6711,-6.6271,-6.7184,-6.6102,0.0,0.0,-7.3717,-7.5298,-7.9646,-8.1392,-8.1991,-8.144,-8.1797,0.0,0.0,0.0,0.0,-7.6851,-7.5846,-7.5241,-7.4915,-7.0576,0.0,-6.5017,0.0,-6.0047,-5.8727,-5.8152,-5.7881,-5.7949,-5.9438,-6.2305,-6.6085,-6.8334,-7.1848,-7.5766,-7.4374,-7.3796,0.0,0.0,-7.6775,-7.7372,-7.9447,-8.0209,-8.0209,-8.0209,-8.0073,-7.9938,-7.9938,-7.9431,-7.8889,-7.9261,-7.9228,-7.8991,-7.8348,-7.7942,-7.6893,-7.368,-7.1921,-7.0195,0.0,0.0,0.0,0.0,0.0,0.0,0.0,0.0,0.0,0.0,0.0,0.0,0.0,0.0,0.0,0.0,0.0,0.0,0.0,0.0,0.0,0.0,0.0,0.0,0.0,0.0,0.0,-7.0828,-7.1598,-7.2306,-7.2983,-7.3231,-7.3355,-7.3386,-7.3631,-7.4033,-7.4531,-7.4917,-7.5059,-7.4999,-7.6699,-7.6496,-7.5121,-7.6904,-7.7614,-7.7642,-7.7446,-7.7195,-7.6734,-7.5461,-7.4892,-7.4769,-6.7827,-6.7827,-6.7963,-6.8368,-6.8082,-6.8099,-6.8947,-6.7642,0.0,-7.4206,-7.5105,0.0,-8.0691,-8.2797,-8.3742,-8.3328,-8.3293,0.0,-8.0274,0.0,0.0,-7.9106,-7.8887,-7.8625,-7.8248,-7.3905,0.0,-6.7632,0.0,-6.1583,-5.8998,-5.8592,-5.822,-5.7949,0.0,-6.2096,-6.5765,-7.0542,-7.3225,-7.4364,-7.5035,0.0,0.0,-7.697,-7.7966,-7.9021,-8.0134,-8.041,-8.0209,-8.0209,-8.0209,-8.0209,-8.0209,-8.0141,-8.0073,-8.0175,-8.0378,-8.0581,-8.0648,-8.0141,-7.9194,-7.7468,-7.6183,-7.4458,-7.1109,-7.0601,-7.0364,0.0,0.0,0.0,0.0,0.0,0.0,0.0,0.0,0.0,0.0,0.0,0.0,0.0,0.0,0.0,0.0,0.0,0.0,0.0,0.0,0.0,0.0,0.0,0.0,-7.0451,-7.132,-7.2311,-7.3466,-7.3407,-7.3682,-7.4268,-7.4722,-7.5104,-7.5369,-7.5706,-7.5604,-7.5258,-7.6974,-7.6801,-7.5501,-7.7912,-7.8611,-7.8144,-7.8694,-7.8771,-7.8383,-7.7765,-7.6776,-7.5964,-6.9113,-6.9113,-6.9113,-6.9113,-7.0144,-7.1144,-7.1314,-7.0459,0.0,-7.4593,0.0,-7.8118,-8.0652,-8.361,-8.5328,-8.5328,0.0,-8.4299,-8.2177,-8.3403,-8.3197,-8.1043,-8.1784,-8.2466,-8.288,-7.7823,0.0,0.0,0.0,-6.326,-5.9438,-5.9167,-5.8727,-5.822,0.0,0.0,0.0,-7.3861,-7.5903,-7.4501,-7.7022,-7.7868,-7.7669,-7.7977,-7.931,-8.1054,-8.1005,-8.0709,-8.0259,-8.0259,-8.0293,-8.0344,-8.0344,-8.0851,-8.1325,-8.0784,-8.146,-8.2272,-8.1731,-8.1054,-8.0479,-8.0479,-7.9938,-7.8517,-7.5134,-7.4864,-7.4424,-7.1109,-7.0331,-7.0161,0.0,0.0,0.0,0.0,0.0,0.0,0.0,0.0,0.0,0.0,0.0,0.0,0.0,0.0,0.0,0.0,0.0,0.0,0.0,0.0,0.0,-7.0506,-7.1467,0.0,-7.3989,0.0,-7.4171,-7.5093,-7.5969,-7.6202,-7.5919,-7.6449,-7.6181,-7.5279,-7.7137,-7.7411,-7.6775,-7.9347,-8.0003,-7.9465,-8.0081,-8.041,-8.0531,-8.0826,-7.9478,-7.7744,-6.9113,-6.9113,-6.9113,-6.9113,-7.1433,-7.381,-7.5254,-7.4263,-7.4798,-7.8738,-8.002,-8.1476,-8.4058,-8.5382,-8.6122,-8.6122,-8.5535,0.0,0.0,0.0,0.0,-8.4383,-8.4535,-8.4087,-8.2914,-7.9921,-7.6576,0.0,0.0,-6.5094,-6.1738,-5.9877,-5.9268,-5.9742,0.0,0.0,-6.808,-7.0063,0.0,-7.4501,-7.7022,-7.7961,-7.8154,-8.0041,-8.1002,-8.1297,-8.1102,-8.0808,-8.056,-8.056,-8.0817,-8.1088,-8.1088,-8.1596,-8.2306,-8.278,-8.2678,-8.2509,-8.2983,-8.2577,-8.2035,-8.2035,-8.146,-8.0581,-7.9329,-7.9126,-7.8855,-7.7604,-7.686,-7.5879,-7.3984,0.0,0.0,0.0,0.0,0.0,0.0,0.0,0.0,0.0,0.0,0.0,0.0,0.0,0.0,0.0,0.0,0.0,0.0,0.0,0.0,0.0,-7.402,0.0,0.0,0.0,-7.5579,-7.3998,-7.5798,-7.67,-7.6613,-7.7071,-7.6709,-7.5839,-7.7509,-7.7671,-7.6969,-7.8686,-7.9988,-8.0817,-7.9915,-7.998,-8.0609,-8.1213,-8.1153,-8.0738,-7.0263,-7.0263,-7.0646,-7.1931,-7.4241,-7.6585,-7.87,-7.9574,-8.0136,-8.0789,-8.1201,-8.204,-8.3616,-8.5313,-8.6294,-8.6294,-8.5984,-8.5915,-8.6294,-8.5984,-8.5777,-8.5777,-8.5397,0.0,-8.35,-8.1778,-7.8348,-7.3201,0.0,-6.7437,-6.2381,-6.1264,-6.052,-6.0182,0.0,-6.5298,0.0,0.0,0.0,-7.6462,-7.8993,-8.0175,-8.0588,-8.1345,-8.1826,-8.2136,-8.1579,-8.1248,-8.1005,-8.0857,-8.0947,-8.1188,-8.141,-8.2004,-8.2698,-8.3339,-8.3524,-8.3625,-8.3998,-8.3524,-8.2983,-8.2983,-8.2408,-8.1765,-8.1426,-8.1359,-8.1122,-8.0378,-7.9938,-7.8653,-7.5236,-7.0703,0.0,0.0,0.0,0.0,0.0,0.0,0.0,0.0,0.0,0.0,0.0,0.0,0.0,0.0,0.0,0.0,0.0,0.0,0.0,0.0,0.0,0.0,0.0,0.0,0.0,-7.5839,-7.6791,-7.7212,-7.7179,-7.7126,-7.7013,-7.6985,-7.7679,-7.7802,-7.7697,-7.8702,-7.9972,-8.124,-8.0603,-8.0594,-8.0995,-8.1732,-8.2,-8.2059,-7.2011,-7.1661,-7.218,-7.5092,-7.6892,-7.8721,-8.105,-8.3699,-8.4658,-8.25,-8.2314,-8.2624,-8.3208,-8.5126,-8.6294,-8.6294,-8.6294,-8.6294,-8.6294,-8.6294,-8.6294,-8.6294,-8.5742,-8.5156,-8.4501,-8.3409,-8.0192,0.0,0.0,0.0,-6.317,-6.2826,-6.2285,0.0,0.0,0.0,0.0,0.0,-7.7812,-7.8981,-8.113,-8.2397,-8.2845,-8.2259,-8.2397,-8.2811,-8.2052,-8.1633,-8.1442,-8.1248,-8.1308,-8.1502,-8.1883,-8.2649,-8.3432,-8.3749,-8.4272,-8.4747,-8.4606,-8.4253,-8.3832,-8.3727,-8.3321,-8.2847,-8.2678,-8.2644,-8.2441,-8.1663,-8.1393,-7.9972,-7.5642,-7.2935,0.0,0.0,0.0,0.0,0.0,0.0,0.0,0.0,0.0,0.0,0.0,0.0,0.0,0.0,0.0,0.0,0.0,0.0,0.0,0.0,0.0,-7.5649,-7.6425,0.0,-7.6653,-7.7126,-7.7474,-7.7644,-7.7746,-7.7273,-7.7388,-7.8049,-7.7827,-7.8,-7.8507,-7.9124,-8.0006,-8.1054,-8.1054,-8.1054,-8.1156,-8.19,-8.2171,-8.234,-7.4206,-7.2847,-7.2564,-7.6722,-7.8114,-7.9303,-8.1119,-8.4147,-8.588,-8.4934,-8.5417,-8.5865,-8.5934,-8.6191,-8.6294,-8.6294,-8.6294,-8.6294,-8.6294,-8.6294,-8.6294,-8.6294,-8.6225,-8.6156,-8.6087,-8.4589,-8.2494,0.0,0.0,-7.0601,-6.5725,-6.4159,-6.4532,0.0,0.0,0.0,0.0,-7.7377,-7.9268,-8.1522,-8.2431,-8.2845,-8.2914,-8.2845,-8.2845,-8.2811,-8.2052,-8.181,-8.1763,-8.1763,-8.2286,-8.2986,-8.3055,-8.4063,-8.5206,-8.5014,-8.5186,-8.5273,-8.4747,-8.4785,-8.4856,-8.4558,-8.4471,-8.4234,-8.3558,-8.3389,-8.3186,-8.2441,-8.1765,-8.0107,-7.6284,-7.5371,-7.4111,0.0,0.0,0.0,0.0,0.0,0.0,0.0,0.0,0.0,0.0,0.0,0.0,0.0,0.0,0.0,0.0,0.0,0.0,-7.4403,0.0,-7.4012,-7.1919,-7.6473,-7.7487,-7.4891,-7.6726,-7.7835,-7.821,-7.8002,-7.8024,-7.8244,-7.8244,-7.8575,-7.9058,-7.9803,-8.0175,-8.031,-8.031,-8.031,-8.0378,-8.1122,-8.1393,-8.1494,-7.7038,-7.6445,-7.6799,-8.0049,-8.0817,0.0,0.0,-8.5486,-8.6191,-8.5915,-8.6122,-8.6294,-8.6294,-8.6294,-8.6294,-8.6294,-8.6294,-8.6294,-8.6294,-8.6294,-8.6087,-8.5673,-8.6053,-8.588,-8.4949,-8.4629,-8.3119,0.0,0.0,0.0,0.0,-6.7921,-6.8599,-7.0624,0.0,-7.4706,-7.7663,-7.9521,-8.113,-8.2535,-8.3259,-8.3845,-8.4225,-8.3742,-8.3569,-8.3466,-8.2742,-8.219,-8.181,-8.181,-8.2322,-8.3056,-8.3354,-8.4195,-8.5104,-8.5274,-8.5411,-8.5463,-8.5221,-8.5221,-8.5307,-8.5168,-8.5011,-8.4838,-8.4532,-8.4272,-8.3964,-8.3219,-8.2103,-8.0953,-7.9938,-7.7908,-7.6434,0.0,0.0,0.0,0.0,0.0,0.0,0.0,0.0,0.0,0.0,0.0,0.0,0.0,0.0,0.0,0.0,0.0,0.0,-7.2757,0.0,-7.5539,-7.395,-7.6487,-7.7164,-7.598,-7.6938,-7.7475,-7.7652,-7.8013,-7.8394,-7.8801,-7.9241,-7.9564,-7.9769,-8.0073,-8.0209,-8.0209,-8.0209,-8.0209,-8.0242,-8.0513,-8.0648,-8.075,-7.9473,-7.9194,-7.9782,-8.2938,-8.2953,-8.3346,-8.5899,-8.6294,-8.6294,-8.6294,-8.6294,-8.6294,-8.6294,-8.6294,-8.6294,-8.6294,-8.6087,-8.5984,-8.5984,-8.5777,-8.5397,-8.488,-8.5363,0.0,-8.4397,-8.4476,-8.3532,-8.14,-7.8434,0.0,-7.1761,-7.0808,-7.1851,0.0,-7.5834,-7.7501,-7.9484,-8.1578,-8.2742,-8.3293,-8.4052,-8.4708,-8.5156,-8.457,-8.4363,-8.4225,-8.3259,-8.2569,-8.2086,-8.1879,-8.2293,-8.3004,-8.3532,-8.4239,-8.503,-8.5481,-8.5635,-8.5686,-8.5566,-8.5566,-8.5583,-8.5514,-8.5359,-8.5255,-8.5255,-8.4958,-8.451,-8.3659,-8.2678,-8.2035,-8.234,-8.0276,-7.8822,-7.9735,0.0,0.0,0.0,0.0,0.0,0.0,0.0,0.0,0.0,0.0,0.0,0.0,0.0,0.0,0.0,0.0,0.0,0.0,0.0,0.0,0.0,-7.6183,-7.6893,-7.6893,-7.71,-7.74,-7.7745,-7.8541,-7.9038,-7.9464,-7.9972,-8.0209,-8.0209,-8.0209,-8.0209,-8.0209,-8.0209,-8.0209,-8.0209,-8.0209,-8.0209,-8.0276,-8.1222,-8.0107,-8.0295,-8.5067,-8.4018,-8.3346,-8.5899,-8.6294,-8.6294,-8.6294,-8.6294,-8.6294,-8.6294,-8.6294,-8.6294,-8.6294,-8.5639,-8.5225,-8.5225,-8.4466,-8.4018,0.0,0.0,-8.4397,-8.5156,-8.4432,-8.4018,-8.3983,0.0,0.0,-7.4581,-7.1873,-7.348,-7.8763,-7.8763,-8.009,-8.2492,-8.3576,-8.3983,-8.4087,-8.488,-8.519,-8.519,-8.519,-8.519,-8.4984,-8.3466,-8.2914,-8.2776,-8.2052,-8.2293,-8.3052,-8.3776,-8.457,-8.5279,-8.5786,-8.6093,-8.6144,-8.5635,-8.5686,-8.584,-8.5566,-8.5514,-8.5514,-8.5514,-8.5307,-8.4807,-8.3712,-8.349,-8.3253,-8.2543,-8.2374,-8.1629,-7.9464,0.0,0.0,0.0,0.0,0.0,0.0,-7.3071,-7.1853,-7.3274,0.0,0.0,0.0,0.0,0.0,0.0,0.0,0.0,-7.3421,-7.4221,0.0,-7.2462,-7.5405,-7.6893,-7.6893,-7.71,-7.7847,-7.9092,-7.9837,-8.0175,-8.0175,-8.0209,-8.0209,-8.0209,-8.0209,-8.0209,-8.0209,-8.0209,-8.0209,-8.0209,-8.0209,-8.0209,-8.0209,-8.4655,-8.4342,-8.4373,-8.5903,-8.5608,-8.5333,-8.6191,-8.6294,-8.6294,-8.6294,-8.6294,-8.6294,-8.6294,-8.5846,-8.5535,0.0,-8.4846,-8.4397,0.0,-8.4156,-8.3811,-8.3293,-8.3742,-8.3782,-8.3395,-8.3782,-8.4161,-8.4564,0.0,0.0,0.0,-7.7494,-7.8668,-8.179,-8.179,-8.2448,-8.3561,-8.422,-8.4663,-8.488,-8.5639,-8.5949,-8.5949,-8.5949,-8.5639,-8.5156,-8.4639,-8.4121,-8.3638,-8.3397,-8.3466,-8.3811,-8.457,-8.4984,-8.5363,-8.5987,-8.6244,-8.6244,-8.6093,-8.6093,-8.6144,-8.6043,-8.589,-8.5788,-8.5788,-8.5428,-8.4995,-8.4653,-8.402,-8.3592,-8.3862,-8.349,-8.2915,-8.2205,-8.2915,0.0,0.0,0.0,0.0,0.0,0.0,-7.1312,0.0,-7.0161,0.0,0.0,0.0,0.0,0.0,0.0,0.0,0.0,-7.4728,0.0,-7.3172,-7.5642,-7.6893,-7.6927,-7.8006,-7.8939,-7.987,-8.0073,-8.0209,-8.0209,-8.0209,-8.0209,-8.0209,-8.0209,-8.0209,-8.0209,-8.0209,-8.0209,-8.0209,-8.0209,-8.0209,-8.0209,-8.5686,-8.584,-8.5941,-8.584,-8.5941,-8.6043,-8.6144,-8.6043,-8.6043,-8.6244,-8.6194,-8.6194,-8.6294,-8.5639,0.0,-8.5604,-8.454,-8.3871,-8.3871,-8.3596,-8.3251,-8.2769,-8.3555,-8.3851,-8.3498,-8.3719,0.0,-8.4346,-8.2629,-8.1983,-8.2284,-8.163,-8.2129,-8.3635,-8.3635,-8.3787,-8.4021,-8.4861,-8.5305,-8.5489,-8.6072,-8.6294,-8.6294,-8.6294,-8.6018,-8.557,-8.5294,-8.488,-8.4397,-8.4121,-8.4018,-8.4156,-8.4949,-8.519,-8.5328,-8.6087,-8.6294,-8.6294,-8.6294,-8.6294,-8.6294,-8.6294,-8.6144,-8.6043,-8.5941,-8.5635,-8.5377,-8.5273,-8.4637,-8.4224,-8.4698,-8.4287,-8.393,-8.393,-8.4065,-8.349,-8.146,0.0,0.0,0.0,0.0,0.0,0.0,-7.351,0.0,0.0,0.0,0.0,0.0,0.0,0.0,-7.3409,-7.5946,0.0,-7.4796,-7.6454,-7.7435,-7.7739,-7.8957,-7.9769,-8.0209,-8.0209,-8.0209,-8.0209,-8.0209,-8.0209,-8.0209,-8.0209,-8.0209,-8.0209,-8.0209,-8.0209,-8.0209,-8.0209,-8.0209,-8.0209,-8.4747,-8.5116,-8.5411,-8.5202,-8.5325,-8.5583,-8.584,-8.5635,-8.5686,-8.6144,-8.6043,-8.5992,-8.6194,-8.5624,-8.552,-8.6175,0.0,0.0,-8.359,-8.2973,-8.2561,-8.2492,-8.3375,-8.4245,-8.4969,-8.4067,-8.3609,-8.3712,-8.3026,-8.3586,-8.521,-8.4205,-8.404,-8.4472,-8.4506,-8.4319,-8.4147,-8.5327,-8.584,-8.589,-8.6144,-8.6244,-8.6244,-8.6244,-8.6294,-8.6225,-8.5535,-8.5294,-8.5156,-8.4432,-8.4156,-8.4328,-8.5121,-8.5363,-8.5466,-8.6122,-8.6294,-8.6294,-8.6294,-8.6294,-8.6294,-8.6294,-8.6294,-8.6244,-8.5992,-8.5941,-8.584,-8.5583,-8.5273,-8.5116,-8.5063,-8.4853,-8.464,-8.4606,-8.3862,-8.2306,-7.9498,0.0,0.0,0.0,0.0,0.0,0.0,-7.8044,-7.8619,0.0,0.0,0.0,0.0,0.0,-7.3274,-7.686,-7.7671,-7.7705,-7.6995,-7.7705,-7.845,-7.9194,-7.987,-8.0209,-8.0209,-8.0209,-8.0209,-8.0209,-8.0209,-8.0209,-8.0209,-8.0209,-8.0209,-8.0209,-8.0209,-8.0209,-8.0209,-8.0209,-8.0209,-8.0209,0.0,0.0,-8.5514,-8.5411,-8.5463,-8.5514,-8.5618,-8.5566,-8.5566,-8.5669,-8.5635,-8.5583,-8.5686,-8.5549,-8.5515,-8.5686,-8.4617,-8.392,-8.392,-8.3552,-8.3075,-8.2526,-8.2516,-8.2638,-8.2844,-8.3171,-8.3873,-8.507,-8.4899,-8.5002,-8.5446,-8.5394,-8.5444,-8.5514,-8.5344,-8.531,-8.5412,-8.536,-8.5377,-8.5583,-8.5635,-8.5788,-8.5992,-8.5992,-8.6144,-8.6294,-8.6087,-8.6053,-8.6018,-8.5811,-8.5777,-8.5915,-8.6639,-8.688,-8.6811,-8.6432,-8.6294,-8.6294,-8.6294,-8.6294,-8.6294,-8.6294,-8.6294,-8.6294,-8.6194,-8.6043,-8.589,-8.584,-8.5583,-8.5359,-8.5116,-8.5011,-8.4906,-8.464,-8.2577,-8.0547,-7.9295,-7.7604,0.0,0.0,-7.4762,-7.6115,-7.7807,-7.8517,-7.8754,0.0,0.0,0.0,0.0,-7.5676,-7.5608,-7.7671,-7.845,-7.8483,-7.7739,-7.8483,-7.9228,-7.9938,-8.0107,-8.0209,-8.0209,-8.0209,-8.0209,-8.0209,-8.0209,-8.0209,-8.0209,-8.0209,-8.0209,-8.0209,-8.0209,-8.0209,-8.0209,-8.0209,-8.0209,-8.0276,-8.5063,-8.5063,-8.5063,-8.5063,-8.5063,-8.5116,-8.5273,-8.5168,-8.5168,-8.5463,-8.5411,-8.5359,-8.5514,-8.5514,-8.5514,-8.5514,-8.4675,-8.414,-8.3955,-8.409,-8.3697,-8.2694,-8.3102,-8.3102,-8.261,-8.2886,-8.3449,-8.4302,-8.4302,-8.4524,-8.5002,-8.5617,-8.5788,-8.5532,-8.5514,-8.5428,-8.5325,-8.5168,-8.5168,-8.5359,-8.5463,-8.5635,-8.589,-8.589,-8.6043,-8.6294,-8.6294,-8.6194,-8.6144,-8.6244,-8.6194,-8.6281,-8.714,-8.7398,-8.7398,-8.7363,-8.7087,-8.6811,-8.6811,-8.657,-8.6294,-8.6294,-8.6294,-8.6294,-8.6294,-8.6194,-8.6093,-8.6093,-8.5737,-8.5463,-8.5307,-8.5063,-8.48,-8.464,-8.2137,-8.0073,-7.9667,-7.7367,-7.5777,-7.6014,-7.6454,-7.7604,-7.9803,-8.0073,-7.9938,-7.9532,-7.9194,0.0,-7.7942,-7.7502,-7.7638,-7.8483,-7.8889,-7.8923,-7.8517,-7.9228,-7.9803,-8.0209,-8.0209,-8.0209,-8.0209,-8.0209,-8.0209,-8.0209,-8.0209,-8.0209,-8.0209,-8.0209,-8.0209,-8.0209,-8.0209,-8.0209,-8.0242,-8.0581,-8.0682,-8.0818,-8.4809,-8.4809,-8.4776,-8.464,-8.464,-8.4694,-8.4958,-8.48,-8.48,-8.5273,-8.5168,-8.5116,-8.5325,-8.5325,-8.5325,-8.5325,-8.4848,-8.4421,-8.4129,-8.4575,-8.4284,-8.3041,-8.4011,-8.4197,-8.3312,-8.3211,-8.3058,-8.2904,-8.3006,-8.3568,-8.4558,-8.5378,-8.5583,-8.5202,-8.5359,-8.5168,-8.4694,-8.4906,-8.5011,-8.5011,-8.5273,-8.5532,-8.5788,-8.584,-8.5992,-8.6194,-8.6244,-8.6093,-8.5941,-8.6093,-8.6093,-8.6129,-8.7055,-8.745,-8.7743,-8.8536,-8.8295,-8.7743,-8.7605,-8.7053,-8.6467,-8.6467,-8.6398,-8.6294,-8.6294,-8.6294,-8.6294,-8.6294,-8.5941,-8.5618,-8.5566,-8.5116,-8.4577,-8.4084,-8.146,-7.9464,-7.9363,0.0,-7.6352,-7.8517,-7.872,-7.9566,-8.1866,-8.1596,-8.1224,-8.1122,-8.0547,-7.9938,-7.9295,-7.9295,-7.9295,-7.9295,-7.9295,-7.9295,-7.9295,-7.9904,-8.0209,-8.0209,-8.0209,-8.0209,-8.0209,-8.0209,-8.0209,-8.0209,-8.0209,-8.0209,-8.0209,-8.0209,-8.0209,-8.0209,-8.031,-8.0378,-8.0445,-8.119,-8.146,-8.1562,-8.5723,-8.5587,-8.5384,-8.4742,-8.464,-8.464,-8.4694,-8.464,-8.4606,-8.4747,-8.4694,-8.4694,-8.4747,-8.4747,-8.4747,-8.4747,-8.4909,-8.505,-8.5206,-8.5102,-8.4658,-8.3772,-8.3684,-8.3718,-8.3789,-8.4436,-8.4313,-8.3373,-8.4016,-8.4547,-8.4998,-8.5134,-8.5273,-8.5463,-8.5221,-8.5116,-8.5011,-8.48,-8.4694,-8.4694,-8.4747,-8.4958,-8.5221,-8.5514,-8.5618,-8.5635,-8.589,-8.5941,-8.589,-8.5686,-8.589,-8.6332,-8.6902,-8.7693,-8.857,-8.9295,-8.9433,-8.9226,-8.857,-8.7846,-8.7225,-8.7225,-8.6777,-8.6294,-8.6294,-8.6294,-8.6294,-8.6294,-8.6244,-8.6093,-8.589,-8.5583,-8.4455,-8.1647,-7.8496,-7.6183,-7.5574,-7.5067,-7.5405,-7.7029,-7.9904,-8.1426,-8.0615,-8.0987,-8.1021,-8.0412,-8.0276,-8.0141,-8.004,-8.004,-8.004,-8.004,-8.004,-8.004,-8.004,-8.0141,-8.0209,-8.0209,-8.0209,-8.0209,-8.0209,-8.0209,-8.0209,-8.0209,-8.0209,-8.0209,-8.0209,-8.0209,-8.0209,-8.0242,-8.0885,-8.1122,-8.119,-8.1968,-8.2238,-8.234,-8.6467,-8.6061,-8.5655,-8.5317,-8.4911,-8.464,-8.464,-8.464,-8.464,-8.464,-8.464,-8.464,-8.464,-8.464,-8.464,-8.464,-8.4747,-8.4906,-8.5011,-8.5168,-8.4828,-8.3734,-8.37,-8.37,-8.37,-8.3666,-8.3613,-8.349,-8.3862,-8.4084,-8.4242,-8.4841,-8.5063,-8.5011,-8.5063,-8.5011,-8.48,-8.4694,-8.464,-8.464,-8.464,-8.48,-8.5116,-8.5255,-8.5428,-8.5686,-8.5686,-8.5686,-8.5635,-8.5566,-8.5532,-8.5772,-8.6577,-8.7229,-8.7986,-8.9156,-8.9604,-8.9433,-8.826,-8.7674,-8.7329,-8.6915,-8.6846,-8.6915,-8.6915,-8.6915,-8.7018,-8.7467,-8.6779,-8.6129,-8.6251,-8.536,-8.3705,-8.0867,-7.8447,-7.6961,-7.7029,-7.669,-7.713,-7.9025,-8.075,-8.1393,-8.031,-8.0513,-8.0547,-8.0209,-8.0209,-8.0209,-8.0209,-8.0209,-8.0209,-8.0209,-8.0209,-8.0209,-8.0209,-8.0209,-8.0209,-8.0209,-8.0209,-8.0209,-8.0209,-8.0209,-8.0209,-8.0209,-8.0209,-8.0412,-8.0784,-8.0784,-8.1021,-8.1426,-8.1765,-8.19,-8.1968,-8.2712,-8.2983,-8.3118,-8.7211,-8.6704,-8.6196,-8.5858,-8.5283,-8.4843,-8.464,-8.464,-8.464,-8.464,-8.464,-8.464,-8.464,-8.464,-8.4539,-8.437,-8.4539,-8.4539,-8.437,-8.4909,-8.4844,-8.3795,-8.3971,-8.3903,-8.349,-8.2949,-8.2949,-8.349,-8.349,-8.3592,-8.3761,-8.4581,-8.4853,-8.4606,-8.4853,-8.4853,-8.464,-8.464,-8.464,-8.464,-8.464,-8.4747,-8.4958,-8.5063,-8.5325,-8.5583,-8.5428,-8.5411,-8.5411,-8.5325,-8.5221,-8.5323,-8.6007,-8.6541,-8.7126,-8.8344,-8.8982,-8.914,-8.8019,-8.7536,-8.726,-8.6708,-8.6846,-8.7156,-8.7156,-8.7156,-8.7329,-8.795,-8.697,-8.6113,-8.644,-8.5274,-8.3398,-8.0833,-7.9327,-7.8653,-7.9058,-7.8619,-7.9058,-8.1291,-8.1562,-8.1325,-8.0784,-8.0716,-8.0716,-8.0716,-8.0716,-8.0716,-8.0716,-8.0716,-8.0716,-8.0716,-8.0378,-8.0209,-8.0209,-8.0209,-8.0209,-8.0209,-8.0378,-8.0445,-8.0445,-8.0615,-8.0716,-8.0716,-8.0716,-8.1021,-8.1562,-8.1562,-8.19,-8.2441,-8.2611,-8.2678,-8.2746,-8.349,-8.3761,-8.3828,-8.8057,-8.7888,-8.7414,-8.6027,-8.5723,-8.5452,-8.4742,-8.464,-8.464,-8.464,-8.464,-8.464,-8.464,-8.464,-8.4336,-8.3625,-8.4234,-8.4336,-8.3625,-8.4234,-8.4606,-8.4539,-8.4539,-8.42,-8.3524,-8.3456,-8.3456,-8.349,-8.349,-8.3862,-8.4539,-8.4606,-8.4606,-8.464,-8.464,-8.4606,-8.464,-8.464,-8.464,-8.464,-8.464,-8.4606,-8.4694,-8.4958,-8.4906,-8.4713,-8.5011,-8.515,-8.5063,-8.48,-8.5011,-8.5463,-8.527,-8.587,-8.666,-8.6797,-8.7519,-8.8329,-8.8485,-8.7984,-8.7398,-8.7329,-8.6846,-8.6398,-8.6398,-8.6398,-8.6398,-8.6467,-8.6398,-8.6278,-8.6313,-8.5788,-8.4404,-8.1449,-8.0424,-7.9837,-7.9194,-7.9058,-7.9837,-8.2069,-8.234,-8.2306,-8.2238,-8.2238,-8.2238,-8.2238,-8.2238,-8.2238,-8.2238,-8.2238,-8.2238,-8.2238,-8.0919,-8.0209,-8.0209,-8.0209,-8.0209,-8.0209,-8.0885,-8.119,-8.1224,-8.1934,-8.2238,-8.2238,-8.2238,-8.2272,-8.234,-8.234,-8.2374,-8.2475,-8.3152,-8.3422,-8.3524,-8.4268,-8.4539,-8.4539,-8.8734,-8.8294,-8.7685,-8.667,-8.6095,-8.552,-8.4742,-8.464,-8.464,-8.464,-8.464,-8.464,-8.464,-8.42,-8.3795,-8.3524,-8.3355,-8.3118,-8.2847,-8.2644,-8.2949,-8.3896,-8.437,-8.4268,-8.3524,-8.349,-8.3727,-8.42,-8.3727,-8.3896,-8.464,-8.464,-8.464,-8.464,-8.464,-8.464,-8.464,-8.464,-8.464,-8.464,-8.464,-8.464,-8.4606,-8.4747,-8.4853,-8.4906,-8.48,-8.4906,-8.5063,-8.4747,-8.4747,-8.4906,-8.4853,-8.5215,-8.5716,-8.5872,-8.6541,-8.7211,-8.6989,-8.7142,-8.7294,-8.6846,-8.6846,-8.6984,-8.6984,-8.6984,-8.7122,-8.7605,-8.6984,-8.6382,-8.6678,-8.5822,-8.4129,-8.1183,-8.1358,-8.1241,-7.9578,-8.0528,-8.1716,-8.253,-8.2632,-8.258,-8.2408,-8.2408,-8.2408,-8.2408,-8.2408,-8.2408,-8.2408,-8.2408,-8.2408,-8.2408,-8.1866,-8.1562,-8.1562,-8.1562,-8.1562,-8.1562,-8.1866,-8.1968,-8.2002,-8.2272,-8.2408,-8.2408,-8.2408,-8.2678,-8.3084,-8.3084,-8.3355,-8.3795,-8.4099,-8.42,-8.4234,-8.4505,-8.464,-8.464,-8.9072,-8.8666,-8.8091,-8.738,-8.6636,-8.5892,-8.5114,-8.4776,-8.4539,-8.4302,-8.4268,-8.42,-8.3964,-8.3456,-8.305,-8.2813,-8.2577,-8.2306,-8.2069,-8.1799,-8.1968,-8.278,-8.3761,-8.393,-8.3186,-8.3152,-8.3524,-8.4268,-8.3761,-8.3896,-8.464,-8.464,-8.464,-8.464,-8.464,-8.464,-8.464,-8.464,-8.464,-8.464,-8.464,-8.464,-8.464,-8.464,-8.4747,-8.4906,-8.4694,-8.4747,-8.4906,-8.4694,-8.464,-8.464,-8.464,-8.4747,-8.5011,-8.5273,-8.5752,-8.6077,-8.5823,-8.6268,-8.6747,-8.6382,-8.6674,-8.7053,-8.7053,-8.7053,-8.7225,-8.7777,-8.7053,-8.6416,-8.6696,-8.5873,-8.452,-8.2595,-8.3057,-8.3109,-8.161,-8.27,-8.3654,-8.3654,-8.3654,-8.3551,-8.3275,-8.3275,-8.3222,-8.3118,-8.3118,-8.3118,-8.3118,-8.3118,-8.3118,-8.3118,-8.3118,-8.3118,-8.3118,-8.2644,-8.2408,-8.2408,-8.2644,-8.2746,-8.2746,-8.3016,-8.3118,-8.3118,-8.3118,-8.3389,-8.3862,-8.3862,-8.4167,-8.464,-8.464,-8.464,-8.464,-8.464,-8.464,-8.464,-8.9072,-8.9072,-8.8869,-8.8125,-8.738,-8.667,-8.5892,-8.5114,-8.437,-8.3592,-8.349,-8.3219,-8.2475,-8.2408,-8.2103,-8.1359,-8.1968,-8.2069,-8.1325,-8.2002,-8.2069,-8.1325,-8.2712,-8.3152,-8.2408,-8.2408,-8.2746,-8.349,-8.349,-8.3862,-8.4606,-8.464,-8.464,-8.464,-8.464,-8.464,-8.464,-8.464,-8.464,-8.464,-8.464,-8.464,-8.464,-8.4553,-8.4553,-8.464,-8.4553,-8.464,-8.464,-8.464,-8.464,-8.464,-8.464,-8.464,-8.4694,-8.5011,-8.5097,-8.5116,-8.5428,-8.5514,-8.5669,-8.6144,-8.6294,-8.6294,-8.6294,-8.6294,-8.6294,-8.6294,-8.6294,-8.6294,-8.6294,-8.6093,-8.589,-8.589,-8.5686,-8.5514,-8.5514,-8.5514,-8.5514,-8.5514,-8.5514,-8.5411,-8.515,-8.5063,-8.4958,-8.464,-8.464,-8.4606,-8.4606,-8.464,-8.464,-8.464,-8.464,-8.464,-8.464,-8.3152,-8.2441,-8.2441,-8.3152,-8.3524,-8.3524,-8.4302,-8.464,-8.464,-8.464,-8.464,-8.464,-8.464,-8.464,-8.464,-8.464,-8.464,-8.464,-8.464,-8.464,-8.464,-8.9072,-8.9072,-8.8869,-8.8125,-8.738,-8.667,-8.5892,-8.5114,-8.437,-8.3592,-8.349,-8.3219,-8.2475,-8.1934,-8.1528,-8.1291,-8.1021,-8.0987,-8.1257,-8.2002,-8.2069,-8.1325,-8.2205,-8.2374,-8.1629,-8.1629,-8.2002,-8.2746,-8.2746,-8.3118,-8.3862,-8.437,-8.464,-8.464,-8.464,-8.464,-8.464,-8.464,-8.464,-8.464,-8.464,-8.464,-8.4573,-8.4031,-8.4167,-8.4539,-8.4031,-8.4167,-8.464,-8.464,-8.464,-8.464,-8.464,-8.464,-8.464,-8.4747,-8.4747,-8.48,-8.5116,-8.5255,-8.5325,-8.589,-8.6043,-8.6093,-8.6244,-8.6294,-8.6294,-8.6294,-8.6294,-8.6294,-8.6294,-8.6244,-8.6093,-8.5941,-8.584,-8.5788,-8.5788,-8.5788,-8.5788,-8.5788,-8.5788,-8.5686,-8.5411,-8.5411,-8.5359,-8.5221,-8.5063,-8.4958,-8.4958,-8.4747,-8.464,-8.464,-8.464,-8.464,-8.464,-8.4167,-8.3964,-8.3964,-8.42,-8.4302,-8.4302,-8.4539,-8.464,-8.464,-8.464,-8.464,-8.464,-8.464,-8.464,-8.464,-8.464,-8.464,-8.464,-8.464,-8.464,-8.464,-8.9072,-8.9072,-8.8937,-8.8497,-8.7583,-8.667,-8.5892,-8.4877,-8.3795,-8.2746,-8.2611,-8.234,-8.1629,-8.1122,-8.0851,-8.0851,-8.0716,-8.0953,-8.1697,-8.2171,-8.2069,-8.1325,-8.1731,-8.1629,-8.0885,-8.1426,-8.1968,-8.2408,-8.2983,-8.3524,-8.3964,-8.4403,-8.464,-8.4606,-8.4302,-8.4336,-8.4606,-8.4302,-8.4336,-8.464,-8.464,-8.464,-8.4539,-8.3795,-8.3795,-8.4133,-8.3659,-8.3795,-8.4234,-8.4539,-8.464,-8.464,-8.464,-8.464,-8.464,-8.464,-8.464,-8.464,-8.4853,-8.4906,-8.5011,-8.548,-8.5686,-8.5788,-8.5941,-8.6043,-8.6144,-8.6144,-8.6244,-8.6294,-8.6294,-8.6294,-8.6244,-8.6093,-8.6043,-8.6043,-8.6043,-8.6043,-8.6043,-8.6043,-8.6043,-8.5941,-8.5686,-8.5635,-8.5532,-8.5359,-8.5168,-8.5011,-8.4906,-8.4747,-8.464,-8.464,-8.464,-8.464,-8.464,-8.464,-8.464,-8.464,-8.464,-8.464,-8.464,-8.464,-8.464,-8.464,-8.464,-8.464,-8.464,-8.464,-8.464,-8.464,-8.464,-8.464,-8.464,-8.464,-8.464,-8.464,-8.9072,-8.9038,-8.9004,-8.9072,-8.782,-8.6569,-8.5892,-8.4471,-8.2949,-8.146,-8.1291,-8.1021,-8.0378,-8.031,-8.031,-8.031,-8.0885,-8.1629,-8.2441,-8.2509,-8.2171,-8.1426,-8.1393,-8.1021,-8.0209,-8.1528,-8.2238,-8.2306,-8.3727,-8.4471,-8.4539,-8.4606,-8.464,-8.4606,-8.3896,-8.3964,-8.4573,-8.3896,-8.3998,-8.464,-8.464,-8.464,-8.4539,-8.3727,-8.3422,-8.349,-8.3355,-8.3389,-8.3625,-8.437,-8.464,-8.464,-8.464,-8.464,-8.464,-8.464,-8.464,-8.464,-8.464,-8.464,-8.4694,-8.4958,-8.5221,-8.5428,-8.5514,-8.5686,-8.589,-8.589,-8.6043,-8.6244,-8.6244,-8.6244,-8.6244,-8.6244,-8.6244,-8.6244,-8.6294,-8.6294,-8.6294,-8.6294,-8.6294,-8.6244,-8.5992,-8.5992,-8.5737,-8.5221,-8.5168,-8.5011,-8.4694,-8.464,-8.464,-8.464,-8.464,-8.464,-8.464,-8.464,-8.464,-8.464,-8.464,-8.464,-8.464,-8.464,-8.464,-8.464,-8.464,-8.464,-8.464,-8.464,-8.464,-8.464,-8.464,-8.464,-8.464,-8.464,-8.464,-8.4694,-8.9072,-8.8632,-8.8395,-8.897,-8.738,-8.596,-8.5824,-8.4471,-8.2949,-8.146,-8.1291,-8.1224,-8.1054,-8.1054,-8.1054,-8.1054,-8.119,-8.1832,-8.3186,-8.3253,-8.2915,-8.2205,-8.2171,-8.1562,-8.0242,-8.0513,-8.0953,-8.1528,-8.2441,-8.3186,-8.3761,-8.4336,-8.464,-8.4553,-8.4437,-8.4471,-8.4606,-8.4437,-8.4471,-8.464,-8.464,-8.464,-8.4471,-8.3152,-8.3016,-8.3355,-8.2171,-8.2509,-8.3625,-8.437,-8.464,-8.464,-8.464,-8.464,-8.464,-8.464,-8.464,-8.464,-8.464,-8.464,-8.464,-8.4694,-8.4747,-8.4906,-8.5377,-8.5532,-8.5618,-8.5618,-8.5635,-8.5635,-8.5635,-8.5635,-8.5737,-8.5941,-8.5992,-8.6043,-8.6244,-8.6294,-8.6294,-8.6294,-8.6494,-8.6593,-8.6543,-8.6543,-8.6394,-8.6043,-8.5635,-8.5377,-8.5273,-8.4853,-8.464,-8.464,-8.464,-8.464,-8.464,-8.464,-8.464,-8.464,-8.464,-8.464,-8.464,-8.464,-8.464,-8.464,-8.464,-8.464,-8.464,-8.464,-8.464,-8.464,-8.464,-8.464,-8.464,-8.464,-8.48,-8.5011,-8.8632,-8.826,-8.8023,-8.8023,-8.7076,-8.6196,-8.5824,-8.4471,-8.3084,-8.1968,-8.119,-8.0784,-8.0784,-8.1088,-8.1426,-8.1799,-8.1832,-8.2137,-8.2915,-8.3287,-8.3016,-8.19,-8.1866,-8.1359,-8.0209,-8.0547,-8.1088,-8.1832,-8.2915,-8.3659,-8.4031,-8.4437,-8.464,-8.4606,-8.4234,-8.4302,-8.4606,-8.4234,-8.4302,-8.464,-8.464,-8.464,-8.4505,-8.3355,-8.2949,-8.2881,-8.2103,-8.2306,-8.3084,-8.3828,-8.4099,-8.4167,-8.4505,-8.464,-8.464,-8.464,-8.4766,-8.4924,-8.466,-8.4766,-8.4977,-8.4977,-8.4766,-8.4694,-8.5011,-8.5168,-8.5307,-8.5307,-8.5411,-8.5514,-8.5514,-8.5514,-8.5566,-8.5686,-8.5686,-8.5788,-8.6093,-8.6093,-8.6194,-8.6444,-8.6494,-8.6543,-8.6691,-8.6789,-8.6789,-8.6494,-8.5992,-8.5635,-8.548,-8.4872,-8.464,-8.464,-8.464,-8.464,-8.464,-8.464,-8.464,-8.464,-8.464,-8.464,-8.464,-8.464,-8.464,-8.464,-8.464,-8.464,-8.464,-8.464,-8.464,-8.464,-8.464,-8.464,-8.464,-8.464,-8.4906,-8.5325,-8.8125,-8.7888,-8.7617,-8.7008,-8.6704,-8.6298,-8.5689,-8.4403,-8.3253,-8.2509,-8.1224,-8.0479,-8.075,-8.119,-8.1765,-8.2543,-8.2374,-8.2272,-8.2408,-8.2983,-8.2712,-8.1359,-8.1291,-8.0987,-8.0412,-8.1088,-8.1799,-8.2408,-8.3761,-8.4505,-8.464,-8.4505,-8.4505,-8.4606,-8.3828,-8.393,-8.4573,-8.3964,-8.3964,-8.4437,-8.4573,-8.4539,-8.437,-8.3727,-8.3118,-8.2577,-8.2441,-8.2527,-8.2868,-8.358,-8.3903,-8.4057,-8.4596,-8.4747,-8.4713,-8.464,-8.4977,-8.5308,-8.4872,-8.5134,-8.5549,-8.5549,-8.5239,-8.4872,-8.4872,-8.5011,-8.5168,-8.5168,-8.5377,-8.5618,-8.548,-8.5532,-8.5583,-8.5618,-8.5669,-8.5788,-8.6093,-8.6093,-8.6294,-8.674,-8.6543,-8.6444,-8.6691,-8.6789,-8.6789,-8.6593,-8.6093,-8.5686,-8.5446,-8.4872,-8.464,-8.464,-8.464,-8.464,-8.464,-8.464,-8.464,-8.464,-8.464,-8.464,-8.464,-8.464,-8.464,-8.464,-8.464,-8.464,-8.464,-8.464,-8.464,-8.464,-8.464,-8.464,-8.464,-8.4694,-8.5011,-8.5566,-8.8125,-8.7482,-8.7042,-8.6941,-8.5824,-8.4911,-8.4809,-8.4065,-8.3253,-8.2509,-8.1663,-8.1629,-8.2915,-8.2577,-8.2543,-8.3287,-8.2171,-8.1731,-8.2374,-8.2509,-8.2171,-8.1325,-8.1291,-8.1224,-8.1122,-8.1866,-8.2306,-8.2408,-8.3253,-8.3998,-8.4606,-8.3964,-8.3998,-8.4606,-8.3828,-8.393,-8.4553,-8.4505,-8.4167,-8.3693,-8.437,-8.4234,-8.3625,-8.3524,-8.3422,-8.3253,-8.2644,-8.3125,-8.4148,-8.4899,-8.5515,-8.5854,-8.5498,-8.5377,-8.5239,-8.4713,-8.4977,-8.536,-8.5343,-8.5703,-8.6194,-8.6194,-8.6144,-8.6043,-8.6043,-8.5703,-8.5394,-8.5394,-8.5805,-8.6043,-8.5498,-8.584,-8.6093,-8.589,-8.6244,-8.6642,-8.6887,-8.6971,-8.6936,-8.7068,-8.6789,-8.6642,-8.6691,-8.6344,-8.6043,-8.6043,-8.5532,-8.5273,-8.548,-8.4958,-8.464,-8.464,-8.464,-8.464,-8.464,-8.464,-8.464,-8.464,-8.464,-8.464,-8.464,-8.464,-8.464,-8.464,-8.464,-8.464,-8.464,-8.464,-8.464,-8.464,-8.464,-8.464,-8.464,-8.4906,-8.5221,-8.5514,-8.6974,-8.6501,-8.6129,-8.5689,-8.5418,-8.5283,-8.5283,-8.4606,-8.3998,-8.3693,-8.2644,-8.2171,-8.2813,-8.2238,-8.2069,-8.2813,-8.19,-8.1257,-8.119,-8.1562,-8.1629,-8.1291,-8.0885,-8.0885,-8.1291,-8.1596,-8.1799,-8.1799,-8.3355,-8.4302,-8.4553,-8.4302,-8.4065,-8.3964,-8.3659,-8.3456,-8.3389,-8.3389,-8.3422,-8.3524,-8.3862,-8.419,-8.4572,-8.4572,-8.4506,-8.4284,-8.3565,-8.3647,-8.4224,-8.4979,-8.5405,-8.5608,-8.5464,-8.5446,-8.536,-8.5134,-8.5446,-8.5907,-8.5907,-8.6344,-8.6775,-8.6775,-8.6494,-8.6344,-8.6642,-8.6543,-8.626,-8.5958,-8.6093,-8.6194,-8.5958,-8.6144,-8.6244,-8.6144,-8.6294,-8.6543,-8.6838,-8.6887,-8.6936,-8.7068,-8.7226,-8.7178,-8.674,-8.6642,-8.6444,-8.6144,-8.5549,-8.5428,-8.5686,-8.5011,-8.4694,-8.4853,-8.4694,-8.464,-8.464,-8.464,-8.464,-8.464,-8.464,-8.464,-8.464,-8.464,-8.464,-8.464,-8.464,-8.464,-8.464,-8.464,-8.464,-8.464,-8.464,-8.464,-8.464,-8.4958,-8.5273,-8.5514]},{"header":{"parameterUnit":"m.s-1","parameterCategory":1,"la1":30.6,"la2":28.766,"lo1":-90.7593,"lo2":-88.6598,"dx":0.0162,"dy":0.0183,"nx":116,"ny":114,"refTime":"2022-12-09T06:00:00:Z","depth":0,"parameterNumber":3,"parameterNumberName":"V-component_of_WINDS"},"data":[0.0,0.0,0.0,0.0,0.0,0.0,0.0,0.0,0.0,0.0,0.0,0.0,0.0,0.0,0.0,0.0,0.0,0.0,0.0,0.0,0.0,0.0,0.0,0.0,0.0,0.0,0.0,0.0,0.0,0.0,0.0,0.0,0.0,0.0,0.0,0.0,0.0,0.0,0.0,0.0,0.0,0.0,0.0,0.0,0.0,0.0,0.0,0.0,0.0,0.0,0.0,0.0,0.0,0.0,0.0,0.0,0.0,0.0,0.0,0.0,0.0,0.0,0.0,0.0,0.0,0.0,0.0,0.0,0.0,0.0,0.0,0.0,0.0,0.0,0.0,0.0,0.0,0.0,0.0,0.0,0.0,0.0,0.0,0.0,0.0,0.0,0.0,0.0,0.0,0.0,0.0,0.0,0.0,0.0,0.0,0.0,0.0,0.0,0.0,0.0,0.0,0.0,0.0,0.0,0.0,0.0,0.0,0.0,0.0,0.0,0.0,0.0,0.0,0.0,0.0,0.0,0.0,0.0,0.0,0.0,0.0,0.0,0.0,0.0,0.0,0.0,0.0,0.0,0.0,0.0,0.0,0.0,0.0,0.0,0.0,0.0,0.0,0.0,0.0,0.0,0.0,0.0,0.0,0.0,0.0,0.0,0.0,0.0,0.0,0.0,0.0,0.0,0.0,0.0,0.0,0.0,0.0,0.0,0.0,0.0,0.0,0.0,0.0,0.0,0.0,0.0,0.0,0.0,0.0,0.0,0.0,0.0,0.0,0.0,0.0,0.0,0.0,0.0,0.0,0.0,0.0,0.0,0.0,0.0,0.0,0.0,0.0,0.0,0.0,0.0,0.0,0.0,0.0,0.0,0.0,0.0,0.0,0.0,0.0,0.0,0.0,0.0,0.0,0.0,0.0,0.0,0.0,0.0,0.0,0.0,0.0,0.0,0.0,0.0,0.0,0.0,0.0,0.0,0.0,0.0,0.0,0.0,0.0,0.0,0.0,0.0,0.0,0.0,0.0,0.0,0.0,0.0,0.0,0.0,0.0,0.0,0.0,0.0,0.0,0.0,0.0,0.0,0.0,0.0,0.0,0.0,0.0,0.0,0.0,0.0,0.0,0.0,0.0,0.0,0.0,0.0,0.0,0.0,0.0,0.0,0.0,0.0,0.0,0.0,0.0,0.0,0.0,0.0,0.0,0.0,0.0,0.0,0.0,0.0,0.0,0.0,0.0,0.0,0.0,0.0,0.0,0.0,0.0,0.0,0.0,0.0,0.0,0.0,0.0,0.0,0.0,0.0,0.0,0.0,0.0,0.0,0.0,0.0,0.0,0.0,0.0,0.0,0.0,0.0,0.0,0.0,0.0,0.0,0.0,0.0,0.0,0.0,0.0,0.0,0.0,0.0,0.0,0.0,0.0,0.0,0.0,0.0,0.0,0.0,0.0,0.0,0.0,0.0,0.0,0.0,0.0,0.0,0.0,0.0,0.0,0.0,0.0,0.0,0.0,0.0,0.0,0.0,0.0,0.0,0.0,0.0,0.0,0.0,0.0,0.0,0.0,0.0,0.0,0.0,0.0,0.0,0.0,0.0,0.0,0.0,0.0,0.0,0.0,0.0,0.0,0.0,0.0,0.0,0.0,0.0,0.0,0.0,0.0,0.0,0.0,0.0,0.0,0.0,0.0,0.0,0.0,0.0,0.0,0.0,0.0,0.0,0.0,0.0,0.0,0.0,0.0,0.0,0.0,0.0,0.0,0.0,0.0,0.0,0.0,0.0,0.0,0.0,0.0,0.0,0.0,0.0,0.0,0.0,0.0,0.0,0.0,0.0,0.0,0.0,0.0,0.0,0.0,0.0,0.0,0.0,0.0,0.0,0.0,0.0,0.0,0.0,0.0,0.0,0.0,0.0,0.0,0.0,0.0,0.0,0.0,0.0,0.0,0.0,0.0,0.0,0.0,0.0,0.0,0.0,0.0,0.0,0.0,0.0,0.0,0.0,0.0,0.0,0.0,0.0,0.0,0.0,0.0,0.0,0.0,0.0,0.0,0.0,0.0,0.0,0.0,0.0,0.0,0.0,0.0,0.0,0.0,0.0,0.0,0.0,0.0,0.0,0.0,0.0,0.0,0.0,0.0,0.0,0.0,0.0,0.0,0.0,0.0,0.0,0.0,0.0,0.0,0.0,0.0,0.0,0.0,0.0,0.0,0.0,0.0,0.0,0.0,0.0,0.0,0.0,0.0,0.0,0.0,0.0,0.0,0.0,0.0,0.0,0.0,0.0,0.0,0.0,0.0,0.0,0.0,0.0,0.0,0.0,0.0,0.0,0.0,0.0,0.0,0.0,0.0,0.0,0.0,0.0,0.0,0.0,0.0,0.0,0.0,0.0,0.0,0.0,0.0,0.0,0.0,0.0,0.0,0.0,0.0,0.0,0.0,0.0,0.0,0.0,0.0,0.0,0.0,0.0,0.0,0.0,0.0,0.0,0.0,0.0,0.0,0.0,0.0,0.0,0.0,0.0,0.0,0.0,0.0,0.0,0.0,0.0,0.0,0.0,0.0,0.0,0.0,0.0,0.0,0.0,0.0,0.0,0.0,0.0,0.0,0.0,0.0,0.0,0.0,0.0,0.0,0.0,0.0,0.0,0.0,0.0,0.0,0.0,0.0,0.0,0.0,0.0,0.0,0.0,0.0,0.0,0.0,0.0,0.0,0.0,0.0,0.0,0.0,0.0,0.0,0.0,0.0,0.0,0.0,0.0,0.0,0.0,0.0,0.0,0.0,0.0,0.0,0.0,0.0,0.0,0.0,0.0,0.0,0.0,0.0,0.0,0.0,0.0,0.0,0.0,0.0,0.0,0.0,0.0,0.0,0.0,0.0,0.0,0.0,0.0,0.0,0.0,0.0,0.0,0.0,0.0,0.0,0.0,0.0,0.0,0.0,0.0,0.0,0.0,0.0,0.0,0.0,0.0,0.0,0.0,0.0,0.0,0.0,0.0,0.0,0.0,0.0,0.0,0.0,0.0,0.0,0.0,0.0,0.0,0.0,0.0,0.0,0.0,0.0,0.0,0.0,0.0,0.0,0.0,0.0,0.0,0.0,0.0,0.0,0.0,0.0,0.0,0.0,0.0,0.0,0.0,0.0,0.0,0.0,0.0,0.0,0.0,0.0,0.0,0.0,0.0,0.0,0.0,0.0,0.0,0.0,0.0,0.0,0.0,0.0,0.0,0.0,0.0,0.0,0.0,0.0,0.0,0.0,0.0,0.0,0.0,0.0,0.0,0.0,0.0,0.0,0.0,0.0,0.0,0.0,0.0,0.0,0.0,0.0,0.0,0.0,0.0,0.0,0.0,0.0,0.0,0.0,0.0,0.0,0.0,0.0,0.0,0.0,0.0,0.0,0.0,0.0,0.0,0.0,0.0,0.0,0.0,0.0,0.0,0.0,0.0,0.0,0.0,0.0,0.0,0.0,0.0,0.0,0.0,0.0,0.0,0.0,0.0,0.0,0.0,0.0,0.0,0.0,0.0,0.0,0.0,0.0,0.0,0.0,0.0,0.0,0.0,0.0,0.0,0.0,0.0,0.0,0.0,0.0,0.0,0.0,0.0,0.0,0.0,0.0,0.0,0.0,0.0,0.0,0.0,0.0,0.0,0.0,0.0,0.0,0.0,0.0,0.0,0.0,0.0,0.0,0.0,0.0,0.0,0.0,0.0,0.0,0.0,0.0,0.0,0.0,0.0,0.0,0.0,0.0,0.0,0.0,0.0,0.0,0.0,0.0,0.0,0.0,0.0,0.0,0.0,0.0,0.0,0.0,0.0,0.0,0.0,0.0,0.0,0.0,0.0,0.0,0.0,0.0,0.0,0.0,0.0,0.0,0.0,0.0,0.0,0.0,0.0,0.0,0.0,0.0,0.0,0.0,0.0,0.0,0.0,0.0,0.0,0.0,0.0,0.0,0.0,0.0,0.0,0.0,0.0,0.0,0.0,0.0,0.0,0.0,0.0,0.0,0.0,0.0,0.0,0.0,0.0,0.0,0.0,0.0,0.0,0.0,0.0,0.0,0.0,0.0,0.0,0.0,0.0,0.0,0.0,0.0,0.0,0.0,0.0,0.0,0.0,0.0,0.0,0.0,0.0,0.0,0.0,0.0,0.0,0.0,0.0,0.0,0.0,0.0,0.0,0.0,0.0,0.0,0.0,0.0,0.0,0.0,0.0,0.0,0.0,0.0,0.0,0.0,0.0,0.0,0.0,0.0,0.0,0.0,0.0,0.0,0.0,0.0,0.0,0.0,0.0,0.0,0.0,0.0,0.0,0.0,0.0,0.0,0.0,0.0,0.0,0.0,0.0,0.0,0.0,0.0,0.0,0.0,0.0,0.0,0.0,0.0,0.0,0.0,0.0,0.0,0.0,0.0,0.0,0.0,0.0,0.0,0.0,0.0,0.0,0.0,0.0,0.0,0.0,0.0,0.0,0.0,0.0,0.0,0.0,0.0,0.0,0.0,0.0,0.0,0.0,0.0,0.0,0.0,0.0,0.0,0.0,0.0,0.0,0.0,0.0,0.0,0.0,0.0,0.0,0.0,0.0,0.0,0.0,0.0,0.0,0.0,0.0,0.0,0.0,0.0,0.0,0.0,0.0,0.0,0.0,0.0,0.0,0.0,0.0,0.0,0.0,0.0,0.0,0.0,0.0,0.0,0.0,0.0,0.0,0.0,0.0,0.0,0.0,0.0,0.0,0.0,0.0,0.0,0.0,0.0,0.0,0.0,0.0,0.0,0.0,0.0,0.0,0.0,0.0,0.0,0.0,0.0,0.0,0.0,0.0,0.0,0.0,0.0,0.0,0.0,0.0,0.0,0.0,0.0,0.0,0.0,0.0,0.0,0.0,0.0,0.0,0.0,0.0,0.0,0.0,0.0,0.0,0.0,0.0,0.0,0.0,0.0,0.0,0.0,0.0,0.0,0.0,0.0,0.0,0.0,0.0,0.0,0.0,0.0,0.0,0.0,0.0,0.0,0.0,0.0,0.0,0.0,0.0,0.0,0.0,0.0,0.0,0.0,0.0,0.0,0.0,0.0,0.0,0.0,0.0,0.0,0.0,0.0,0.0,0.0,0.0,0.0,0.0,0.0,0.0,0.0,0.0,0.0,0.0,0.0,0.0,0.0,0.0,0.0,0.0,0.0,0.0,0.0,0.0,0.0,0.0,0.0,0.0,0.0,0.0,0.0,0.0,0.0,0.0,0.0,0.0,0.0,0.0,0.0,0.0,0.0,0.0,0.0,0.0,0.0,0.0,0.0,0.0,0.0,0.0,0.0,0.0,0.0,0.0,0.0,0.0,0.0,0.0,0.0,0.0,0.0,0.0,0.0,0.0,0.0,0.0,0.0,0.0,0.0,0.0,0.0,0.0,0.0,0.0,0.0,0.0,0.0,0.0,0.0,0.0,0.0,0.0,0.0,0.0,0.0,0.0,0.0,0.0,0.0,0.0,0.0,0.0,0.0,0.0,0.0,0.0,0.0,0.0,0.0,0.0,0.0,0.0,0.0,0.0,0.0,0.0,0.0,0.0,0.0,0.0,0.0,0.0,0.0,0.0,0.0,0.0,0.0,0.0,0.0,0.0,0.0,0.0,0.0,0.0,0.0,0.0,0.0,0.0,0.0,0.0,0.0,0.0,0.0,0.0,0.0,0.0,0.0,0.0,0.0,0.0,0.0,0.0,0.0,0.0,0.0,0.0,0.0,0.0,0.0,0.0,0.0,0.0,0.0,0.0,0.0,0.0,0.0,0.0,0.0,0.0,0.0,0.0,0.0,0.0,0.0,0.0,0.0,0.0,0.0,0.0,0.0,0.0,0.0,0.0,0.0,0.0,0.0,0.0,0.0,0.0,0.0,0.0,0.0,0.0,0.0,0.0,0.0,0.0,0.0,0.0,0.0,0.0,0.0,0.0,0.0,0.0,0.0,0.0,0.0,0.0,0.0,0.0,0.0,0.0,0.0,0.0,0.0,0.0,0.0,0.0,0.0,0.0,0.0,0.0,0.0,0.0,0.0,0.0,0.0,0.0,0.0,0.0,0.0,0.0,0.0,0.0,0.0,0.0,0.0,0.0,3.8691,0.0,0.0,0.0,0.0,0.0,0.0,0.0,0.0,0.0,0.0,0.0,0.0,0.0,0.0,0.0,0.0,0.0,0.0,0.0,0.0,0.0,0.0,0.0,0.0,0.0,0.0,0.0,0.0,0.0,0.0,0.0,0.0,0.0,0.0,0.0,0.0,0.0,2.82,2.8674,3.0079,3.1182,3.1948,3.237,3.1159,2.8678,0.0,0.0,0.0,0.0,0.0,0.0,0.0,0.0,0.0,0.0,0.0,0.0,0.0,0.0,0.0,0.0,0.0,0.0,0.0,0.0,0.0,0.0,0.0,0.0,0.0,0.0,0.0,0.0,0.0,0.0,0.0,0.0,0.0,0.0,0.0,0.0,0.0,0.0,0.0,0.0,0.0,0.0,0.0,0.0,0.0,0.0,0.0,0.0,0.0,0.0,0.0,0.0,0.0,0.0,0.0,0.0,0.0,0.0,0.0,0.0,0.0,0.0,0.0,0.0,0.0,0.0,0.0,0.0,0.0,0.0,0.0,3.9733,0.0,0.0,0.0,0.0,0.0,0.0,0.0,0.0,0.0,0.0,0.0,0.0,0.0,0.0,0.0,0.0,0.0,0.0,0.0,0.0,0.0,0.0,0.0,2.4264,2.4751,2.5661,2.6421,2.7131,0.0,0.0,0.0,0.0,0.0,0.0,0.0,2.921,3.0399,3.1488,3.3838,3.5798,3.7418,3.8331,3.6593,3.2722,3.2364,0.0,0.0,0.0,0.0,0.0,0.0,0.0,0.0,0.0,0.0,0.0,0.0,0.0,0.0,0.0,0.0,0.0,0.0,0.0,0.0,0.0,0.0,0.0,0.0,0.0,0.0,0.0,0.0,0.0,0.0,0.0,0.0,0.0,0.0,0.0,0.0,0.0,0.0,0.0,0.0,0.0,0.0,0.0,0.0,0.0,0.0,0.0,0.0,0.0,0.0,0.0,0.0,0.0,0.0,0.0,0.0,0.0,0.0,0.0,0.0,0.0,0.0,0.0,4.4386,4.4602,4.5099,4.5345,4.5413,4.5363,4.4224,4.2837,4.1335,4.1092,0.0,0.0,0.0,0.0,0.0,0.0,0.0,0.0,0.0,0.0,0.0,0.0,0.0,0.0,0.0,0.0,0.0,0.0,0.0,0.0,0.0,2.6094,2.7262,2.8048,2.9921,3.1082,3.1177,0.0,0.0,0.0,0.0,0.0,3.1133,3.1301,3.2239,3.3837,3.6185,3.8217,3.9826,3.9328,3.9258,3.9685,3.8856,3.7146,3.4814,0.0,0.0,0.0,0.0,0.0,0.0,0.0,0.0,0.0,0.0,0.0,0.0,0.0,0.0,0.0,0.0,0.0,0.0,0.0,0.0,0.0,0.0,0.0,0.0,0.0,0.0,0.0,0.0,0.0,0.0,0.0,0.0,0.0,0.0,0.0,0.0,0.0,0.0,0.0,0.0,0.0,3.9907,3.9752,0.0,0.0,0.0,0.0,0.0,0.0,0.0,0.0,0.0,0.0,0.0,0.0,0.0,4.4769,4.6149,4.4796,4.5392,4.7961,4.7556,4.7897,4.8981,5.0192,5.0721,5.0721,5.0501,0.0,4.3548,4.2332,0.0,0.0,0.0,0.0,0.0,0.0,0.0,0.0,0.0,0.0,0.0,0.0,0.0,0.0,0.0,0.0,0.0,0.0,0.0,0.0,0.0,2.6921,2.822,2.9659,3.1278,3.2165,3.1926,3.2297,0.0,0.0,0.0,3.1264,3.0826,3.2644,3.5115,3.819,3.9534,4.0786,4.1994,4.2652,4.3124,4.3424,4.4011,4.2258,3.8642,3.6625,0.0,0.0,0.0,0.0,0.0,0.0,0.0,0.0,0.0,0.0,0.0,0.0,0.0,0.0,0.0,0.0,0.0,0.0,0.0,0.0,0.0,0.0,0.0,0.0,0.0,0.0,0.0,0.0,0.0,0.0,0.0,0.0,0.0,0.0,0.0,0.0,0.0,0.0,0.0,3.9997,4.0623,4.0332,4.0839,4.0942,0.0,0.0,0.0,0.0,0.0,0.0,0.0,0.0,0.0,4.5981,4.7287,4.8279,4.895,4.8942,4.968,5.1259,5.1061,5.1246,5.1796,5.2412,5.2588,5.2436,5.2436,5.1249,4.918,4.7536,4.6702,4.6357,0.0,0.0,0.0,0.0,4.5856,4.6401,0.0,0.0,0.0,0.0,0.0,0.0,0.0,0.0,0.0,0.0,0.0,0.0,2.7565,2.8781,3.0356,3.2642,3.3862,3.4198,3.3481,3.341,3.272,3.1192,3.124,3.124,3.1096,3.4574,3.7981,4.119,4.2031,4.2839,4.3537,4.4658,4.517,4.5123,4.6551,4.5169,4.1551,3.9446,3.8316,3.7814,0.0,0.0,0.0,0.0,0.0,0.0,0.0,0.0,0.0,0.0,0.0,0.0,0.0,0.0,0.0,0.0,0.0,0.0,0.0,0.0,0.0,0.0,0.0,0.0,0.0,0.0,0.0,0.0,0.0,0.0,0.0,0.0,0.0,0.0,0.0,0.0,0.0,4.1254,4.2102,4.1542,4.271,4.3179,0.0,0.0,0.0,0.0,0.0,0.0,4.7359,4.9141,4.9951,4.9585,5.0878,5.168,5.2017,5.2914,5.3905,5.4939,5.4841,5.5011,5.5364,5.5364,5.5103,5.4694,5.4694,5.4703,5.4429,5.1816,5.0519,5.009,4.9749,4.9522,4.9438,4.9746,5.0266,5.0869,0.0,0.0,0.0,0.0,0.0,0.0,0.0,0.0,0.0,0.0,0.0,2.787,3.0685,3.2705,3.5119,3.8316,3.9267,3.9014,3.7317,3.7228,3.622,3.391,3.427,3.4318,3.3814,3.7753,4.0281,4.119,4.288,4.3854,4.4031,4.3608,4.3749,4.436,4.5086,4.4516,4.2961,4.384,4.271,4.0149,3.7889,0.0,0.0,0.0,0.0,0.0,0.0,0.0,0.0,0.0,0.0,0.0,0.0,0.0,0.0,0.0,0.0,0.0,0.0,0.0,0.0,0.0,0.0,0.0,0.0,0.0,0.0,0.0,0.0,0.0,0.0,0.0,0.0,0.0,0.0,0.0,0.0,0.0,0.0,4.4264,4.6087,0.0,0.0,0.0,0.0,4.927,4.9571,4.9703,4.9992,5.1339,5.2128,5.2072,5.3486,5.4809,5.5994,5.5833,5.6962,5.9362,5.9072,5.9536,6.0704,6.0704,6.0235,5.9362,5.9362,5.884,5.7631,5.3107,5.1625,5.2016,5.0706,4.9846,4.9558,5.0667,5.1379,5.1911,0.0,0.0,0.0,2.4242,2.4249,2.424,2.4435,2.4419,2.4512,2.4805,2.6582,2.8825,3.1464,3.4347,3.7188,3.9698,4.0869,4.0889,3.9488,3.8662,3.7446,3.5792,3.5132,3.5774,3.7871,3.9803,4.1692,4.3387,4.369,4.3686,4.3461,4.3723,4.401,4.4323,4.5342,4.5547,4.507,4.4392,4.3539,4.2484,4.0978,3.922,0.0,0.0,0.0,0.0,0.0,0.0,0.0,0.0,0.0,0.0,0.0,0.0,0.0,0.0,0.0,0.0,0.0,0.0,0.0,0.0,0.0,0.0,0.0,0.0,0.0,0.0,0.0,0.0,0.0,0.0,0.0,0.0,0.0,0.0,0.0,0.0,0.0,4.7809,4.922,0.0,4.8666,4.9393,5.0144,5.0703,5.2503,5.3821,5.4364,5.5878,5.7042,5.7617,5.7916,5.8292,5.8723,5.8639,5.9187,6.0298,6.0137,6.0312,6.0737,6.0598,6.0336,6.0016,5.9816,5.9726,5.9629,5.7965,5.7187,5.7003,5.6497,5.6569,5.6966,5.7437,5.7786,5.8103,0.0,0.0,0.0,2.4163,2.4218,2.4326,2.4458,2.4586,2.5059,2.6211,2.8463,3.1162,3.4367,3.75,4.0167,4.2249,4.3072,4.2662,4.0685,3.9803,3.8445,3.6411,3.6108,3.7465,4.0631,4.1545,4.2824,4.4612,4.4245,4.3831,4.3326,4.378,4.4021,4.4223,4.544,4.6006,4.5858,4.542,4.5171,4.5045,4.3388,4.1379,3.9346,0.0,0.0,0.0,0.0,0.0,0.0,0.0,0.0,0.0,0.0,0.0,0.0,0.0,0.0,0.0,0.0,0.0,0.0,0.0,0.0,0.0,0.0,0.0,0.0,0.0,0.0,0.0,0.0,0.0,0.0,0.0,0.0,0.0,0.0,0.0,5.0125,5.0634,5.201,5.2608,5.1766,5.2561,5.3244,5.3629,5.5748,5.7185,5.7522,5.8892,5.9898,6.0425,6.0425,6.0312,6.0141,6.0548,6.0837,6.0951,6.1303,6.1392,6.1308,6.1079,6.0788,6.0352,6.0149,6.0089,6.017,6.017,6.0109,6.0072,6.0146,6.0548,6.1078,6.1231,6.1419,6.1577,0.0,0.0,2.4767,2.4542,2.4425,2.4535,2.5178,2.5198,2.6035,2.8594,3.1376,3.4811,3.933,4.1983,4.4245,4.6177,4.6092,4.451,4.1208,4.095,3.9382,3.5903,3.7482,3.9622,4.2017,4.302,4.3909,4.4658,4.4612,4.4336,4.3831,4.3808,4.3808,4.3874,4.5219,4.5597,4.5252,4.7059,4.7845,4.762,4.4995,4.389,4.3539,0.0,0.0,0.0,0.0,0.0,0.0,0.0,0.0,0.0,0.0,0.0,0.0,0.0,0.0,0.0,0.0,0.0,0.0,0.0,0.0,0.0,0.0,0.0,0.0,0.0,0.0,0.0,0.0,0.0,0.0,0.0,0.0,0.0,4.7799,5.1062,5.3255,5.265,5.4521,5.5728,5.5401,5.6196,5.7137,5.8107,5.9037,5.9477,5.9256,6.0072,6.0455,6.0143,6.074,6.0827,6.0229,6.1451,6.195,6.1634,6.2635,6.2905,6.2615,6.2615,6.1909,6.0794,6.0735,6.0209,5.9364,5.9364,5.9947,6.0794,6.1008,6.1108,6.1197,6.1511,6.1634,6.1608,2.5727,2.5451,2.5139,2.4767,2.4952,2.5149,2.5009,2.5855,2.707,2.8711,3.1485,3.486,3.902,4.1192,4.3412,4.5843,4.5754,4.4741,4.2892,4.1953,4.0611,3.8713,4.0845,4.256,4.3641,4.4487,4.5116,4.5714,4.4979,4.452,4.4382,4.3992,4.4071,4.4529,4.4919,4.53,4.5694,4.6728,4.7181,4.717,4.6895,4.5824,4.4267,0.0,0.0,0.0,0.0,0.0,0.0,0.0,0.0,0.0,0.0,0.0,0.0,0.0,0.0,0.0,0.0,0.0,0.0,0.0,0.0,0.0,0.0,0.0,0.0,0.0,0.0,0.0,0.0,0.0,0.0,0.0,0.0,5.2876,5.2238,5.389,5.5495,5.6515,5.7143,5.7441,5.7101,5.7386,5.7621,5.7918,5.8179,5.8679,5.9504,5.9624,6.015,6.1175,6.1175,6.1175,6.1204,6.1557,6.1968,6.2347,6.2584,6.2789,6.2963,6.2731,6.2409,6.2056,6.1792,6.1586,6.1351,6.1351,6.1469,6.1674,6.1027,6.1231,6.1848,6.1967,6.1821,6.1557,2.6039,2.5819,2.5543,2.5106,2.5372,2.559,2.5534,2.6391,2.7912,3.0335,3.2811,3.5758,3.9523,4.1813,4.37,4.5028,4.4974,4.4286,4.2855,4.1432,4.0822,4.1315,4.2699,4.4017,4.5041,4.5438,4.5829,4.6127,4.5324,4.4933,4.491,4.4455,4.4451,4.4784,4.5116,4.5329,4.5486,4.644,4.6704,4.6485,4.6841,4.6179,4.4945,4.4618,4.3463,4.1932,4.1304,4.143,4.1781,4.1153,0.0,0.0,0.0,0.0,0.0,0.0,0.0,0.0,0.0,0.0,0.0,0.0,0.0,0.0,0.0,0.0,0.0,0.0,0.0,0.0,0.0,0.0,0.0,0.0,5.3027,5.5249,5.5624,5.6545,5.7494,5.8297,5.839,5.828,5.7836,5.7892,5.7892,5.7613,5.7959,5.8572,5.948,5.9772,6.0384,6.1434,6.1642,6.1761,6.1791,6.2087,6.241,6.2789,6.2789,6.2847,6.2905,6.2673,6.2498,6.2351,6.2175,6.2116,6.2116,6.191,6.191,0.0,0.0,0.0,0.0,0.0,6.1673,6.1404,2.6114,2.6094,2.5966,2.5617,2.577,2.6057,2.6393,2.7002,2.8757,3.2532,3.4483,3.6931,4.0427,4.2844,4.423,4.4183,4.4012,4.3215,4.1808,4.041,4.0834,4.3479,4.3785,4.4625,4.6173,4.6196,4.6196,4.6196,4.5691,4.5507,4.5438,4.5028,4.4891,4.496,4.5506,4.5522,4.5195,4.6233,4.6292,4.5789,4.5854,4.5806,4.5629,4.5579,4.4686,4.3438,4.3363,4.3664,4.4066,4.394,0.0,0.0,0.0,0.0,0.0,0.0,0.0,0.0,0.0,0.0,0.0,0.0,0.0,0.0,0.0,0.0,0.0,0.0,0.0,0.0,0.0,0.0,0.0,0.0,5.3802,5.606,5.8014,5.8773,5.8991,5.8748,5.8694,5.8445,5.7892,5.8059,5.7918,5.7416,5.814,5.8867,5.9277,0.0,0.0,0.0,0.0,6.2351,6.2175,6.2789,6.3079,6.3079,6.3079,6.2963,6.2673,6.2673,6.2498,6.2175,6.2175,6.2116,6.2116,6.1791,6.1673,6.1673,6.1939,6.1998,6.1998,6.1673,6.1464,6.1253,2.6373,2.6463,2.6444,2.6371,2.6604,2.6784,2.6859,2.7931,2.9757,3.2647,3.4088,3.6403,4.0348,4.1034,4.1933,4.4045,4.2972,4.2089,4.1686,4.2724,4.356,4.4128,4.5458,4.6403,4.6724,4.6724,4.6724,4.6724,4.6219,4.5967,4.5967,4.5485,4.5508,4.5806,4.5256,4.5302,4.5852,4.598,4.5892,4.5686,4.6299,4.6576,4.6562,4.618,4.6116,4.6276,4.5824,4.5723,4.5673,4.4769,4.4392,4.4217,4.3664,4.2434,0.0,0.0,0.0,0.0,0.0,0.0,0.0,0.0,0.0,0.0,0.0,0.0,0.0,0.0,0.0,0.0,0.0,0.0,0.0,5.2447,5.5753,5.8435,5.8877,5.9045,5.8991,5.8748,5.8694,5.8555,5.8169,5.8003,5.7836,5.7725,5.8112,5.8638,5.9277,5.9946,6.0674,6.1494,6.1673,6.2057,6.2498,6.2615,6.2847,6.3079,0.0,0.0,6.3021,6.3021,6.2847,6.2498,6.2498,6.2351,6.2116,6.2057,6.1969,6.1998,6.1523,6.1373,6.1373,6.1554,6.1554,6.1554,2.6035,2.6569,2.6885,2.6885,2.7197,2.7382,2.7382,2.8296,2.9657,3.1631,3.2854,3.4538,3.7208,3.8044,3.8839,4.0161,4.0777,4.1246,4.164,4.3472,4.4887,4.5595,4.6656,4.7252,4.7252,4.7,4.6747,4.6495,4.5989,4.5737,4.5737,4.5256,4.5348,4.585,4.5369,4.5322,4.5526,4.5714,4.5507,4.5226,4.5629,4.613,4.6607,4.6538,4.655,4.6588,4.6706,4.6728,4.6627,4.6015,4.5874,4.5773,4.5221,4.4292,4.3237,0.0,0.0,0.0,0.0,0.0,0.0,0.0,0.0,0.0,0.0,0.0,0.0,0.0,0.0,4.8882,0.0,0.0,5.3487,5.4223,5.6782,5.8773,5.9045,5.9099,5.9045,5.8882,5.8882,5.8719,5.825,5.8225,5.8059,5.7613,5.814,5.8753,5.9277,6.0063,6.0793,6.1584,6.191,6.2234,6.2615,6.3087,6.3353,6.3528,6.3887,6.3887,6.3528,6.3528,6.332,6.2847,6.2847,6.2789,6.2585,6.241,6.2234,6.2057,6.1761,6.1642,6.1642,6.1791,6.185,6.185,2.5403,2.6575,2.7398,2.7306,2.7563,2.7858,2.7875,2.8438,2.93,3.0704,3.1669,3.2714,3.4131,3.5341,3.5997,3.6052,3.8963,4.0953,4.1411,4.391,4.5815,4.6934,4.7459,4.7734,4.7571,4.7138,4.6632,4.6127,4.5599,4.5438,4.537,4.5188,4.5369,4.587,4.5687,4.5477,4.5382,4.5364,4.5117,4.48,4.48,4.5347,4.611,4.66,4.6651,4.6499,4.6898,4.7032,4.7004,4.7205,4.7154,4.6954,4.6828,4.6276,4.5271,4.3419,4.3514,0.0,0.0,0.0,0.0,0.0,0.0,0.0,0.0,0.0,4.9653,5.0201,5.0606,5.1033,5.149,5.2976,5.4496,5.5533,5.7227,5.8555,5.9045,5.9099,5.9099,5.9099,5.9099,5.8936,5.8415,5.8555,5.8335,5.7528,5.837,5.8984,5.9277,6.0238,6.1115,6.1789,6.2322,6.2676,6.2853,6.3712,6.4068,6.4068,6.4695,6.4755,6.4186,6.4186,6.3857,6.3258,6.3139,6.3079,6.3079,6.2789,6.2556,6.2292,6.2292,6.244,6.2647,6.247,6.2499,6.2618,2.4528,2.653,2.8132,2.7822,2.7803,2.795,2.826,2.8584,2.9412,3.1078,3.1715,3.2524,3.4131,3.4464,3.4626,3.48,3.9272,4.1629,4.0578,4.4692,4.7191,4.7353,4.7924,4.8102,4.7571,4.7138,4.6632,4.6127,4.5599,4.5438,4.5438,4.576,4.6241,4.67,4.5916,4.6031,4.6584,4.5069,4.4593,4.48,4.48,4.4869,4.5119,4.6087,4.6903,4.743,4.709,4.6675,4.6552,4.7506,4.7179,4.6652,4.8058,4.7456,4.6075,4.5321,4.4192,4.3083,4.2785,4.4533,4.6256,4.5378,4.6962,4.9031,0.0,0.0,5.0857,5.2056,5.186,5.1518,5.1575,5.3348,5.4831,5.4972,5.7256,5.8991,5.9099,5.9099,5.9099,5.9099,5.9099,5.9045,5.8991,5.8828,5.85,5.814,5.9006,5.9509,5.9306,6.0498,6.1548,6.2462,6.2551,6.2996,6.3826,6.4247,6.4457,6.4457,6.4785,6.4994,6.4904,6.4904,6.4545,6.3857,6.3318,6.3079,6.3079,6.3079,6.3021,6.3021,6.3021,6.365,6.4547,6.3743,6.3773,6.4426,2.3657,2.5742,2.7522,2.7346,2.7993,2.8535,2.8718,2.8855,2.9213,2.9897,3.0274,3.0785,3.1437,3.1803,3.2429,3.3399,3.7018,3.9214,3.9085,4.3059,4.5684,4.6393,4.7205,4.774,4.7905,4.7768,4.728,4.6564,4.6334,4.6242,4.6242,4.6449,4.6678,4.6862,4.6515,4.6308,4.6077,4.566,4.5387,4.5277,4.5549,4.5802,4.6103,4.6519,4.6993,4.7311,4.6256,4.5478,0.0,4.617,4.62,4.6225,4.8535,4.8134,4.6677,4.6125,4.5472,4.5027,4.5602,4.6405,4.7375,0.0,4.9593,5.0995,5.1903,5.2386,5.2897,5.3639,5.3838,5.3894,5.3894,5.4907,5.5892,0.0,5.7555,5.8719,5.9045,5.9099,5.9249,5.9638,5.9668,5.9463,5.8942,5.924,5.9284,5.8811,6.0233,6.0941,6.0647,6.1901,6.2808,6.3193,6.3346,6.3706,6.4275,6.4841,6.517,6.5412,6.5921,6.5981,6.5592,6.5592,6.5443,6.5144,6.4485,6.4425,6.4755,6.4366,6.4425,6.4784,6.4784,6.5353,6.6041,6.4845,6.5114,6.6039,2.3076,2.4933,2.6459,2.6459,2.7564,2.8558,2.8916,2.8975,2.8975,2.8975,2.9213,2.939,2.9509,3.0039,3.084,3.194,3.4756,3.6813,3.7847,4.1173,4.3807,4.5141,4.5888,4.6608,4.7205,4.7141,4.6913,4.6573,4.6507,4.658,4.6885,4.7023,4.7092,4.7092,4.7092,4.6744,4.6143,4.6277,4.6093,4.5821,4.6161,4.6439,4.6721,4.6885,4.6635,4.6154,4.5492,4.4695,4.417,4.4883,4.4987,4.5221,4.7682,4.7631,4.6577,4.5999,4.5733,4.5781,4.6437,4.7257,0.0,5.0128,5.16,5.2737,5.3358,5.3867,5.4318,5.4767,5.5187,5.5496,5.5496,5.6019,5.6566,5.7191,5.7953,5.8711,5.9314,5.9548,5.9847,6.0326,6.0386,6.0121,5.9453,6.0156,6.0343,5.9632,6.1377,6.2234,6.1613,6.2871,6.3629,6.3681,6.3898,6.4203,6.4624,6.5219,6.5609,6.5854,6.6453,6.6485,6.5976,6.5919,6.583,6.5709,6.5203,6.5233,6.5562,6.5174,6.5413,6.5981,6.5802,6.637,6.7119,6.5981,6.64,6.7567,2.3076,2.4193,2.5056,2.5056,2.6156,2.7504,2.8797,2.8975,2.8975,2.8975,2.8975,2.9153,2.945,3.0039,3.045,3.045,3.3294,3.5622,3.6958,3.9749,4.2137,4.3853,4.412,4.4422,4.487,4.4369,4.4724,4.5799,4.5357,4.5778,4.6885,4.739,4.7548,4.7548,4.7548,4.7525,4.7479,4.6644,4.6297,4.6275,4.6297,4.6297,4.6368,4.6721,4.5622,4.3943,4.496,4.489,4.4337,4.4293,4.3712,4.3363,4.507,4.5573,4.5422,4.4844,4.4275,4.3905,4.3903,4.6502,4.9253,4.9875,5.1861,5.3838,5.44,5.454,5.4737,5.5355,5.5496,5.5496,5.5496,5.6019,5.6566,5.7191,5.8334,5.9362,6.0002,6.0625,6.1074,6.1074,6.1074,6.1074,0.0,6.1642,6.1649,6.0624,6.2436,6.2972,6.1702,6.2842,6.3742,6.398,6.4009,6.4299,6.4973,6.5319,6.5509,6.5509,6.5882,6.6007,6.5948,6.5638,6.5342,6.5037,6.4993,6.4845,6.4605,6.4845,6.5413,6.5951,6.5293,6.6251,6.7867,6.7178,6.7777,6.9034,2.179,2.2827,2.376,2.376,2.481,2.6156,2.7444,2.8439,2.8975,2.8975,2.8975,0.0,0.0,0.0,0.0,0.0,3.1971,3.3384,3.3819,3.6898,3.9396,4.1046,4.2177,4.3436,4.4718,4.4267,4.4254,4.4651,4.428,4.4267,4.4655,4.4814,4.4709,4.443,4.443,4.4237,4.3885,4.3961,4.3952,4.4142,4.5472,4.6043,4.6055,4.6148,4.5503,4.4345,0.0,4.1804,4.1422,4.2248,4.265,4.3137,4.5338,4.5522,4.4669,4.3363,4.3366,4.398,4.4971,4.7442,5.0138,5.1634,5.3171,5.4456,5.5046,5.5187,5.5243,5.5468,5.5023,5.4573,5.4573,5.5083,5.5681,5.6246,5.7599,5.8958,5.9986,6.0307,6.0773,6.1646,6.1762,0.0,0.0,0.0,0.0,6.2276,6.3445,6.4158,6.4214,6.4826,6.5198,6.5308,6.509,6.5207,6.5694,6.5538,6.5601,6.5819,6.5945,6.6007,6.6007,6.5896,6.6044,6.6273,6.5872,6.5843,6.6136,6.5784,6.6177,6.6989,6.6751,6.7471,6.8645,6.8405,6.8615,6.9034,2.1109,2.179,2.2404,2.2404,2.345,0.0,0.0,0.0,0.0,0.0,0.0,0.0,0.0,0.0,0.0,0.0,0.0,3.1692,3.2277,3.4282,3.6296,3.8119,3.91,4.0198,4.1582,4.1239,4.1372,4.212,4.2283,4.2669,4.3278,4.376,4.3744,4.3248,4.3248,4.3007,4.2588,4.2877,4.2882,4.2668,4.4068,4.4699,4.4732,4.4596,4.414,0.0,4.1377,3.9917,3.9213,4.0226,4.1032,4.2022,4.3786,4.4051,4.3564,4.271,4.2961,4.4017,4.634,4.8437,5.0564,5.2852,5.4179,5.5018,5.5412,5.5496,5.5496,5.5496,5.477,5.4064,5.4064,5.4147,5.4399,5.5264,5.6476,5.7887,5.9699,6.0164,6.0837,6.2274,6.245,6.26,0.0,0.0,0.0,6.3348,6.4427,6.5171,6.5496,6.5902,6.6132,6.6007,6.5819,6.5756,6.5819,6.5601,6.5538,6.563,6.563,6.563,6.563,6.5756,6.5991,6.628,6.6059,6.618,6.6471,6.6122,6.6516,6.7267,6.703,6.7545,6.8236,6.7998,6.8184,6.8579,2.1109,2.1109,2.1109,0.0,0.0,0.0,0.0,0.0,0.0,0.0,0.0,0.0,0.0,0.0,0.0,0.0,0.0,0.0,3.2061,3.2195,3.3154,3.5129,3.4978,3.5191,3.5908,3.5597,3.6386,3.8344,3.9493,4.0832,4.2393,4.3721,4.4058,4.3661,4.3682,4.3455,4.3132,4.3132,4.2613,4.1863,4.2006,4.2258,4.2592,4.212,4.1736,4.1294,4.0677,3.9404,3.8027,3.8315,0.0,0.0,0.0,4.1738,4.2514,4.2961,4.3137,4.3992,4.763,4.9443,5.0864,5.3397,5.4817,5.5552,5.5552,5.5524,5.5496,5.5412,5.4657,5.4006,0.0,0.0,5.3016,5.4293,5.5101,5.6537,5.9303,6.0271,6.1303,0.0,0.0,0.0,0.0,0.0,0.0,6.3947,0.0,6.58,6.5525,6.6149,6.6382,6.607,6.6007,6.5882,6.5538,6.5538,6.5348,6.506,6.506,6.506,6.506,6.5348,6.5285,6.506,6.5694,6.5756,6.5475,6.5819,6.6298,6.6862,6.6302,6.645,6.6892,6.6332,6.6697,6.7757,0.0,0.0,0.0,0.0,0.0,0.0,0.0,0.0,0.0,0.0,0.0,0.0,0.0,0.0,0.0,0.0,0.0,0.0,3.0197,3.1347,3.2237,3.2804,3.3854,3.4566,3.4786,3.4681,3.4987,3.5799,3.5587,3.58,3.6485,3.7164,3.7377,3.7253,3.7798,3.8025,3.7933,3.7933,3.7759,3.7663,3.894,3.9833,4.0382,4.0208,4.043,4.0605,3.9196,3.8377,3.8027,3.8315,0.0,0.0,0.0,4.4973,4.5196,0.0,0.0,4.6405,4.8171,5.0567,5.2976,5.4351,5.5455,5.617,5.617,5.5833,5.5301,5.4629,5.3665,5.2772,0.0,0.0,0.0,5.4388,5.6193,0.0,5.9877,6.0585,0.0,6.2233,0.0,6.3079,6.3079,6.3079,0.0,0.0,6.4784,6.5443,6.586,6.6518,6.6814,6.6753,6.6506,6.6319,6.6257,6.6007,6.5819,6.5756,6.5475,6.5348,6.5348,6.5158,6.5094,6.4996,6.5187,6.5187,6.5094,6.5251,6.5529,6.5894,6.6187,6.6549,6.698,6.7305,6.754,6.7934,0.0,0.0,0.0,0.0,0.0,0.0,0.0,0.0,0.0,0.0,0.0,0.0,0.0,0.0,0.0,0.0,0.0,0.0,0.0,3.0344,3.0902,3.1024,3.177,3.2264,3.2428,3.2264,3.2486,3.3034,3.3198,3.3426,3.3785,3.4583,3.4896,3.4706,3.5487,3.5746,3.5534,3.5863,3.576,0.0,0.0,3.7179,3.7696,3.7252,3.8005,3.9182,3.7997,3.8366,3.9627,0.0,0.0,4.4098,4.5539,4.5933,4.5903,4.6381,0.0,4.7514,4.9502,5.1403,5.3081,5.4324,5.5203,5.5599,5.519,5.5014,5.4629,5.3608,5.2684,0.0,5.1328,0.0,0.0,0.0,0.0,0.0,5.9257,5.9817,6.0556,0.0,6.241,0.0,6.3079,6.3079,6.3228,0.0,6.4485,6.5323,6.5981,6.664,6.6999,6.6999,6.6814,6.6629,6.6506,6.6195,6.6007,6.6007,6.5819,6.5756,6.5664,6.5504,6.5378,6.5222,0.0,6.5124,6.4996,6.4996,6.5124,6.5343,6.5921,6.6312,6.6563,6.7237,6.7712,6.8165,0.0,0.0,0.0,0.0,0.0,0.0,0.0,0.0,0.0,2.8975,2.8975,2.8975,0.0,0.0,0.0,0.0,0.0,0.0,0.0,0.0,2.9568,2.9745,2.9627,2.9568,2.9804,2.9627,2.9796,3.0471,3.155,3.227,3.2668,3.3871,3.4199,3.386,3.4633,3.4822,3.4546,3.5199,3.5021,3.4489,3.4489,3.4769,3.519,0.0,3.5408,3.7394,3.7186,3.8964,4.1781,4.342,4.426,4.4872,4.6027,4.6137,4.6166,4.777,4.7971,4.8271,5.119,5.2078,5.2516,5.3948,5.4691,5.4758,5.3764,5.3804,5.3778,5.2684,0.0,5.1126,5.1004,5.112,5.1615,5.2886,0.0,5.5623,5.8257,5.8835,5.9769,6.1733,6.2116,6.2468,6.3021,6.3079,6.3079,6.3079,6.4216,6.5173,6.5832,6.658,6.6999,6.6999,6.6999,6.6876,6.6568,6.6257,6.6132,6.6132,6.607,6.607,6.607,6.6007,6.5819,6.5538,6.5538,6.5412,6.5124,6.5094,6.506,6.5118,6.578,6.607,6.6128,6.6883,6.7691,6.8451,0.0,0.0,0.0,0.0,0.0,0.0,0.0,0.0,0.0,0.0,2.8975,2.8975,0.0,0.0,0.0,0.0,0.0,0.0,0.0,0.0,0.0,2.9153,2.939,2.939,2.9153,2.939,2.9546,2.968,2.9647,2.9795,3.0111,3.0691,3.0953,3.0909,3.1615,3.2055,3.2262,3.2401,3.2686,3.3116,3.3116,3.3771,3.4736,3.451,0.0,0.0,3.7179,3.9523,4.2279,4.3561,4.4819,4.6162,4.7735,4.8744,4.9362,4.9601,5.0157,5.0882,5.2193,5.2984,5.3635,5.4664,5.5285,5.5361,5.4341,5.4141,0.0,0.0,5.1276,5.0969,5.0121,5.0666,5.1655,5.3166,5.4657,5.6271,5.8099,5.9689,6.0845,0.0,6.2263,6.2963,6.3079,6.3079,0.0,0.0,6.3767,6.4485,6.5173,6.634,6.6999,6.6999,6.6999,6.6999,6.6937,6.6876,6.6814,6.6814,6.6568,6.6444,6.6382,6.6132,6.5945,6.5882,6.5882,0.0,6.5819,6.5538,6.5412,6.5529,6.6374,6.6709,6.6854,6.8044,6.8567,6.8721,0.0,0.0,0.0,0.0,0.0,0.0,0.0,2.4687,2.6216,2.6823,2.7504,2.8241,2.8916,2.8975,2.8975,0.0,0.0,0.0,0.0,0.0,0.0,2.8975,2.9153,2.9153,2.8975,2.9153,2.9213,2.9213,0.0,2.9094,2.9213,2.9416,2.9527,2.9587,3.0479,3.085,3.0948,3.1645,3.2157,3.2545,3.2731,3.3282,3.3937,0.0,0.0,0.0,0.0,4.0059,4.2705,4.3316,4.4424,4.6076,4.8404,4.9273,4.9469,4.9814,5.0302,5.0854,5.1548,5.232,5.3145,5.4154,5.4525,5.4357,5.3368,0.0,0.0,0.0,5.0427,5.0275,4.9785,5.0493,5.1535,5.2611,5.4542,5.6298,5.7394,5.9002,6.032,6.1046,6.1643,6.2321,0.0,6.3079,6.3079,6.3079,6.3977,6.4665,6.4994,6.6281,6.6999,6.6999,6.6999,6.6999,6.6999,6.6999,6.6999,6.6999,6.6814,6.6753,6.6753,6.6568,6.6444,6.6287,6.6612,6.6697,6.6538,6.6735,6.6819,6.6907,6.7653,6.7969,6.802,6.8986,6.9337,6.9337,0.0,0.0,0.0,0.0,0.0,0.0,0.0,2.3263,2.4718,2.5028,2.6272,2.754,2.8673,2.8906,2.8975,0.0,0.0,0.0,0.0,0.0,0.0,0.0,0.0,0.0,0.0,0.0,0.0,2.8975,2.9035,0.0,0.0,0.0,0.0,0.0,2.9983,3.0313,3.0212,3.1353,3.2041,0.0,0.0,3.3047,0.0,0.0,0.0,0.0,0.0,3.9913,4.2249,4.2848,4.3718,4.5065,4.7582,4.8216,4.833,4.9145,4.9547,4.9903,5.0867,5.1575,5.2329,5.3287,5.3632,5.3361,5.1907,5.1816,0.0,0.0,4.9522,4.9717,4.9717,5.034,5.1113,0.0,5.3797,5.5594,5.6498,5.8019,5.9574,0.0,6.1046,0.0,6.2585,6.2643,0.0,6.2905,6.4158,6.5144,6.5443,6.643,6.6999,6.6999,6.6999,6.6999,6.6999,6.6999,6.6999,6.6999,6.6999,6.6999,6.6999,6.7148,6.7085,6.6867,6.7522,6.7694,6.747,6.7939,6.8146,6.8141,6.8873,6.9037,6.8928,6.9641,6.9743,6.9579,0.0,0.0,0.0,0.0,0.0,0.0,0.0,2.3139,2.3803,2.5235,2.6653,2.7717,2.8123,2.8671,2.8975,0.0,0.0,0.0,0.0,0.0,0.0,0.0,0.0,0.0,0.0,0.0,0.0,2.8975,2.9272,0.0,0.0,0.0,0.0,0.0,0.0,2.992,3.041,3.0613,0.0,0.0,0.0,0.0,0.0,0.0,0.0,0.0,0.0,3.8313,3.989,4.2202,0.0,4.3316,4.4243,4.5426,4.6589,4.7583,0.0,0.0,5.1141,5.1901,5.2171,5.2804,5.3657,5.3553,5.0532,0.0,0.0,4.8668,4.9001,4.9717,4.9717,4.9785,5.0179,5.112,5.2397,5.3932,5.5735,5.7592,5.9119,6.0173,0.0,0.0,6.1286,6.1286,6.1524,6.2175,6.3921,6.5562,6.6759,6.6939,6.6999,6.6999,6.6999,6.6999,6.6999,6.6999,6.6999,6.6999,6.6999,6.6999,6.6999,6.7597,6.7897,6.7926,6.8552,6.8851,0.0,6.8564,6.8436,6.8585,6.9441,6.9382,6.8866,6.9574,6.9326,6.8658,0.0,0.0,0.0,0.0,0.0,0.0,2.179,2.2068,2.273,2.4101,2.4932,2.5754,2.6662,2.6985,2.7727,2.924,0.0,0.0,0.0,0.0,0.0,0.0,0.0,0.0,0.0,0.0,2.9104,2.9342,2.9504,0.0,0.0,0.0,0.0,0.0,0.0,3.0256,3.0335,3.0747,0.0,0.0,0.0,0.0,0.0,0.0,0.0,0.0,0.0,0.0,3.9508,4.1306,0.0,0.0,4.2328,4.2756,0.0,0.0,4.7218,4.8263,5.0004,5.0768,5.1386,5.2449,5.2036,5.1109,5.0318,0.0,4.8865,4.814,4.8374,4.8902,4.9571,4.9717,4.9843,5.0217,5.1805,5.3263,5.4078,5.5965,5.7827,5.9119,5.95,0.0,0.0,0.0,6.1819,6.2913,6.3741,6.481,6.634,6.6759,6.6999,6.6999,6.6999,6.6999,6.6999,6.6999,6.6999,6.6999,6.6999,6.7208,6.7597,6.7837,6.8196,6.8615,6.9303,6.9602,0.0,6.9411,6.9364,6.9388,6.9676,6.9622,6.9437,7.0076,7.0101,6.9708,0.0,0.0,0.0,0.0,0.0,2.1136,2.1229,2.1416,2.1991,2.3049,2.3732,2.4559,2.5547,2.6017,2.7097,2.9145,2.9141,0.0,0.0,0.0,0.0,0.0,0.0,0.0,0.0,0.0,2.942,2.9947,2.9989,3.0278,0.0,0.0,3.0618,3.068,0.0,0.0,0.0,0.0,0.0,0.0,0.0,0.0,0.0,0.0,0.0,0.0,0.0,0.0,0.0,0.0,0.0,4.1757,4.1163,4.1119,4.1769,4.4091,4.5564,4.6796,4.8308,4.9558,5.0627,5.1627,5.0685,4.9479,0.0,0.0,4.7186,4.7432,4.7768,4.8324,4.9473,4.9717,4.9717,4.9717,5.115,5.2497,5.2939,5.4586,5.6251,5.7799,0.0,5.8577,0.0,6.0783,6.1697,6.291,6.3376,6.4144,6.5466,6.6181,6.6661,6.6999,6.6999,6.6999,6.6999,6.6999,6.6999,6.6999,6.6999,6.7328,6.7986,6.7978,6.8329,6.8985,6.964,6.9873,0.0,6.9825,6.9803,6.9596,6.97,6.9591,6.9442,6.9875,6.9909,6.9544,0.0,0.0,0.0,0.0,0.0,0.0,2.1574,2.1614,2.1829,2.2338,2.3662,2.4723,2.4964,2.6239,2.7506,2.8605,2.7952,0.0,0.0,0.0,0.0,0.0,0.0,0.0,0.0,0.0,2.9947,3.068,3.103,3.1049,3.068,3.1294,3.1294,3.068,0.0,0.0,0.0,0.0,3.1483,0.0,0.0,0.0,3.2931,0.0,0.0,0.0,0.0,0.0,0.0,0.0,0.0,0.0,0.0,4.0763,4.1355,4.2019,4.2802,4.3938,4.6272,4.831,4.9852,5.0056,5.0108,4.945,0.0,0.0,4.6961,4.6435,4.7229,4.8324,4.9473,4.9717,4.9717,4.9717,5.0299,5.1251,5.2819,5.36,5.4641,0.0,0.0,5.6791,5.7718,5.9269,6.0606,6.1516,6.2887,0.0,6.4513,6.5157,6.5978,6.6999,6.6999,6.6999,6.6999,6.6999,6.6999,6.6999,6.6999,6.7328,6.7986,6.7949,6.8277,6.8926,6.9575,6.9508,0.0,6.9604,6.947,6.8924,6.9525,6.9344,6.8621,6.865,6.8229,6.7522,0.0,0.0,0.0,0.0,0.0,0.0,0.0,2.1789,2.1991,2.2365,2.2998,2.3501,2.3597,2.4805,2.6224,2.749,2.8053,0.0,0.0,0.0,0.0,0.0,0.0,0.0,0.0,0.0,3.0266,3.0795,3.084,3.1113,3.1518,3.1455,3.1455,3.1537,3.1265,3.1265,0.0,3.1331,3.1577,0.0,0.0,3.2676,3.2931,0.0,0.0,0.0,0.0,0.0,0.0,0.0,0.0,0.0,0.0,0.0,0.0,4.0937,4.1721,4.2918,4.4472,4.5118,4.5493,4.6472,4.5981,4.5342,4.5392,4.4828,4.4686,4.6034,4.658,4.7434,4.9375,4.9717,4.9717,4.9717,5.0249,5.1033,5.1924,0.0,0.0,5.6223,5.7551,5.8621,0.0,0.0,6.0034,6.1212,6.1512,6.227,6.3807,6.4014,6.4881,6.66,6.5978,6.604,6.6999,6.6103,6.5853,6.629,6.5853,6.6187,6.7243,6.7253,6.7794,6.8815,6.9019,6.9039,6.877,6.8499,6.8227,6.8079,6.8184,6.806,6.7905,6.8357,6.8384,6.8112,0.0,0.0,0.0,0.0,0.0,0.0,0.0,2.1871,2.2124,2.2539,2.2752,2.3133,2.3597,2.4467,2.5801,2.7784,2.8521,0.0,0.0,0.0,0.0,0.0,0.0,0.0,3.0424,3.0424,3.0688,3.122,3.122,3.1477,3.1929,3.1717,3.1653,3.1717,3.1506,3.1377,0.0,3.1543,3.1653,3.1736,3.2399,3.2682,3.274,0.0,0.0,0.0,0.0,0.0,0.0,0.0,0.0,0.0,0.0,0.0,0.0,0.0,4.1071,4.1816,4.2994,4.3561,4.3984,4.461,4.3955,4.3421,4.4181,4.3532,4.3492,4.5794,4.6267,4.6995,4.9248,4.9717,4.9717,4.9717,5.0249,5.1012,5.2011,5.3218,0.0,5.6223,0.0,0.0,0.0,5.9357,5.964,6.0742,6.0732,6.136,6.2774,6.3032,6.3919,6.5664,6.5251,6.5412,6.6228,6.5441,6.5222,6.5601,6.5158,6.5664,6.6883,6.6619,6.718,6.8363,6.8363,6.8227,0.0,6.7747,6.7541,6.7251,6.7228,6.7157,6.7213,6.7607,6.7775,6.7747,0.0,0.0,0.0,0.0,0.0,0.0,0.0,2.2004,2.2218,2.2792,2.2928,2.3406,2.4738,2.5008,2.6203,2.8937,0.0,0.0,0.0,0.0,0.0,0.0,0.0,0.0,3.0827,3.0827,3.1201,3.1846,3.1846,3.1846,3.1846,3.1846,3.1717,3.1377,3.1377,3.1377,3.1396,3.1799,3.1726,3.1479,3.2496,3.2698,0.0,0.0,0.0,0.0,0.0,0.0,0.0,0.0,0.0,0.0,0.0,0.0,0.0,0.0,0.0,0.0,0.0,4.3293,4.439,4.3984,4.3585,4.3192,4.3179,4.2793,0.0,4.5741,4.6267,4.6995,4.9248,4.9717,4.9717,4.9717,5.0249,5.1222,5.279,5.3719,5.4873,0.0,5.7383,0.0,5.8835,5.9083,5.9454,6.0132,6.0484,6.092,6.1543,6.2167,6.3049,6.4418,6.4676,6.4932,6.4996,6.4932,6.4839,6.4932,6.4868,6.5535,6.6751,6.6022,6.644,0.0,6.761,6.7195,6.6665,6.7333,6.7223,6.6595,6.6595,6.6595,6.6595,6.6595,6.6595,6.6679,0.0,0.0,0.0,0.0,0.0,0.0,0.0,0.0,0.0,0.0,2.2928,2.2996,2.3338,2.533,2.6855,0.0,0.0,0.0,0.0,0.0,0.0,0.0,0.0,0.0,3.1231,3.1231,3.135,3.1506,3.1506,3.1506,3.1506,3.1506,3.1506,3.1377,3.1377,3.1377,3.1377,3.1488,3.1469,3.1442,3.1939,3.226,0.0,0.0,0.0,0.0,3.3796,3.4694,0.0,0.0,0.0,0.0,0.0,0.0,0.0,0.0,4.0499,4.0571,4.1225,0.0,4.0884,4.1174,4.1331,4.1483,0.0,4.2274,4.3159,4.5475,4.6162,4.6995,4.9248,4.9717,4.9717,4.9717,5.0249,5.1222,5.279,5.528,5.7324,5.841,5.8738,5.9031,5.946,5.9284,5.9392,5.9763,6.0109,6.0667,6.1543,6.1909,6.2595,6.361,6.3507,6.39,6.4996,6.3965,6.361,6.4167,6.3638,6.4027,6.5284,6.508,6.569,6.6875,6.6875,6.6735,6.6595,6.6805,6.6735,6.6595,6.6595,6.6595,6.6595,6.6595,6.6595,6.6679,0.0,0.0,0.0,0.0,0.0,0.0,0.0,0.0,0.0,0.0,0.0,0.0,0.0,0.0,0.0,0.0,0.0,0.0,0.0,0.0,0.0,0.0,0.0,3.1377,3.1377,3.1377,3.1377,3.1377,3.1377,3.1377,3.1377,3.1589,3.1653,3.1653,3.1653,3.1506,3.1396,3.1579,3.1561,3.146,3.1986,0.0,0.0,0.0,0.0,0.0,3.314,3.3977,0.0,3.6302,3.73,3.8366,0.0,0.0,0.0,0.0,4.0403,4.0523,4.1028,4.0763,4.0403,4.0691,4.0853,4.1096,4.1476,4.1834,4.2656,4.4698,4.5661,4.6684,4.8574,4.9375,4.9717,4.9717,5.0875,5.2434,5.43,5.6051,5.7554,5.8649,5.8791,5.9078,0.0,5.9668,5.9482,5.9668,5.9702,6.0167,6.1288,6.1526,6.2052,6.315,6.298,6.3244,6.403,6.3244,6.3112,6.3413,6.3046,6.342,6.4319,6.4696,6.5274,6.6173,6.6483,6.6595,6.6595,6.6595,6.6595,6.6595,6.6595,6.6595,6.6595,6.6595,6.6595,6.6651,0.0,0.0,0.0,0.0,0.0,0.0,0.0,0.0,0.0,0.0,0.0,0.0,0.0,0.0,0.0,0.0,0.0,0.0,0.0,0.0,0.0,0.0,3.1377,3.1377,3.1377,3.1433,3.1469,3.1469,3.1543,3.1561,3.1561,3.1847,3.1984,3.1974,3.1974,3.1846,3.1589,3.1893,3.1773,3.1543,3.2088,0.0,0.0,0.0,0.0,0.0,0.0,0.0,0.0,3.5318,3.6423,3.7632,3.8856,0.0,0.0,0.0,0.0,0.0,4.0932,4.1293,4.1427,4.1244,4.1172,4.123,4.1492,4.1549,4.2093,4.3716,4.4913,4.611,4.7638,4.8753,4.9522,4.9669,5.1683,5.4041,5.6308,5.6734,5.7247,5.8301,5.8475,0.0,5.9957,5.9825,5.9668,5.9668,5.9442,5.9851,6.1031,6.12,6.1762,6.2886,6.2942,6.2942,6.2942,6.2942,6.2942,6.2942,6.2942,6.3223,6.3813,6.4375,6.4993,6.5696,0.0,0.0,6.6595,6.6595,6.6595,6.6595,6.6595,6.6595,6.6595,6.6595,6.6595,6.6595,0.0,0.0,0.0,0.0,0.0,0.0,0.0,0.0,0.0,0.0,0.0,0.0,0.0,0.0,0.0,0.0,0.0,0.0,0.0,0.0,0.0,3.1377,3.1377,3.1377,3.1377,3.1726,3.1909,3.1909,3.2239,3.2404,3.2404,3.2384,3.2375,3.2294,3.2294,3.2294,3.223,3.1984,3.1902,3.18,3.1644,0.0,0.0,0.0,0.0,0.0,0.0,0.0,0.0,3.3992,3.4874,3.5732,3.6992,0.0,0.0,0.0,0.0,0.0,4.0379,4.1588,4.2459,4.1475,4.1172,4.1172,4.123,4.1435,4.1923,4.3194,4.3991,4.5102,4.7252,4.7993,4.8603,4.9522,5.2306,5.5053,0.0,0.0,5.8851,5.902,0.0,5.9442,5.9392,5.9516,5.9606,5.9267,5.9683,6.0301,6.1059,6.1593,6.2183,6.2914,6.2942,6.2942,6.2942,6.2942,6.2942,6.2942,6.2942,6.3223,6.3785,6.3897,6.4572,6.5696,0.0,6.6117,6.6595,6.6595,6.6595,6.6595,6.6595,6.6595,6.6595,6.6595,6.6595,6.6595,0.0,0.0,0.0,0.0,0.0,0.0,0.0,0.0,0.0,0.0,0.0,0.0,0.0,0.0,0.0,0.0,0.0,0.0,0.0,0.0,3.1377,3.1377,3.1598,3.1726,3.1726,3.1909,3.2111,3.2331,3.2714,3.294,3.2922,3.304,3.3062,3.3001,3.258,3.2294,3.2102,3.1782,3.1653,3.1653,0.0,0.0,0.0,0.0,0.0,0.0,0.0,0.0,0.0,0.0,3.3566,3.4118,3.5969,0.0,0.0,0.0,0.0,0.0,4.0595,4.1417,4.1994,4.1768,4.2245,4.2705,4.2705,4.2803,4.3,4.3262,4.4044,4.4934,4.5635,4.7441,4.9836,5.3078,5.4659,5.6135,5.7817,5.7985,5.8124,0.0,0.0,5.9148,5.9707,5.9702,5.9668,5.9482,5.9858,6.0413,6.1059,6.1678,6.2296,6.2914,6.2942,6.2942,6.2942,6.2942,6.2942,6.2942,6.2942,6.3083,6.3335,6.3645,6.4122,6.4684,0.0,6.5836,6.6117,6.6454,6.6595,6.6595,6.6595,6.6595,6.6595,6.6595,6.6595,6.6595,0.0,0.0,0.0,0.0,0.0,0.0,0.0,0.0,0.0,0.0,0.0,0.0,0.0,0.0,0.0,0.0,0.0,0.0,0.0,0.0,3.1377,3.1377,3.1781,3.2001,3.2001,3.2184,3.2441,3.2735,3.3248,3.3516,3.3604,3.3584,3.3597,3.3546,3.2739,3.223,3.1974,3.1653,3.1506,3.1506,0.0,0.0,0.0,0.0,0.0,0.0,0.0,0.0,0.0,0.0,0.0,0.0,0.0,0.0,0.0,3.8656,3.9417,3.9777,4.0595,4.1211,4.1718,4.209,4.281,4.3475,4.3897,4.385,4.3758,4.3745,4.4463,4.5007,4.45,4.7298,5.1222,5.5676,5.6588,5.7166,5.8539,5.8055,5.7826,5.8532,5.8646,5.8956,5.9863,5.9763,5.9725,5.9804,5.9977,6.0469,6.1284,6.1762,6.2296,6.2914,6.2942,6.2942,6.2942,6.2942,6.2942,6.2942,6.2942,6.2942,6.2942,6.3392,6.3673,6.3841,6.4825,6.5415,6.5724,6.6173,6.6454,6.6595,6.6595,6.6595,6.6595,6.6595,6.6595,6.6595,0.0,0.0,0.0,0.0,0.0,0.0,0.0,0.0,0.0,0.0,0.0,0.0,0.0,0.0,0.0,0.0,0.0,0.0,0.0,3.1377,3.1377,3.1377,3.1781,3.2001,3.2001,3.2753,3.3156,3.3175,3.3904,3.4433,3.4643,3.4022,3.3669,3.3546,3.2739,3.2358,3.2358,3.1974,3.1846,3.1846,3.1506,0.0,0.0,0.0,0.0,0.0,0.0,0.0,0.0,0.0,0.0,0.0,0.0,0.0,3.6472,3.775,3.8815,3.9633,3.9705,4.1277,4.2743,4.2291,4.1792,4.1875,4.3624,4.3498,4.3378,4.4495,4.4948,4.5149,4.5057,4.7956,5.1391,5.4529,5.6563,5.8232,5.9826,0.0,5.9536,5.9588,5.9588,5.9493,5.9267,5.9544,5.977,6.002,6.0104,6.0666,6.1874,6.1987,6.2296,6.2914,6.2942,6.2942,6.2942,6.2942,6.2942,6.2942,6.2942,6.2942,6.2942,6.297,6.3279,6.3813,6.3897,6.46,6.5668,6.5724,6.6061,6.6595,6.6595,6.6595,6.6595,6.6595,6.6595,6.6595,0.0,0.0,0.0,0.0,0.0,0.0,0.0,0.0,0.0,0.0,0.0,0.0,0.0,0.0,0.0,0.0,0.0,0.0,0.0,3.1377,3.1488,3.1763,3.2166,3.2496,3.2753,3.3065,3.334,3.3596,3.4158,3.4571,3.488,3.4528,3.4108,3.3669,3.3314,3.286,3.2422,3.223,3.2102,3.191,3.1782,3.1589,0.0,0.0,0.0,0.0,0.0,0.0,0.0,0.0,3.117,3.1903,3.3776,3.4725,3.5578,3.8224,3.9272,3.9753,4.0403,4.1564,4.2458,4.2244,4.2007,4.2386,4.4617,4.4925,4.4968,4.5745,4.5999,4.6389,4.746,5.0208,5.3213,5.5994,5.8407,6.0054,6.0445,6.0377,6.0255,6.001,5.9853,5.9853,6.0071,5.9702,5.977,6.0643,6.0752,6.1116,6.1959,6.2015,6.2127,6.2352,6.2352,6.2352,6.2352,6.2745,6.2942,6.2942,6.2942,6.2942,6.2942,6.2942,6.3054,6.3279,6.3645,6.4066,6.4572,6.5359,6.5808,6.6061,6.6426,6.6595,6.6595,6.6595,6.6595,6.6595,0.0,0.0,0.0,0.0,0.0,0.0,0.0,0.0,0.0,0.0,0.0,0.0,0.0,0.0,0.0,0.0,0.0,0.0,3.1396,3.1377,3.1561,3.1983,3.2386,3.279,3.3211,3.334,3.3541,3.3817,3.4232,3.4646,3.5059,3.4757,3.4337,3.3832,3.3562,3.3077,3.2422,3.2422,3.2294,3.2038,3.2038,3.191,0.0,0.0,0.0,0.0,0.0,0.0,0.0,0.0,3.082,3.1228,3.3233,3.422,3.5189,3.7979,3.9308,4.0018,4.0739,4.1407,4.2019,4.2375,4.2458,4.3127,4.5701,4.5866,4.5866,4.7329,4.7353,4.7596,4.9199,5.1317,0.0,0.0,5.8592,6.0365,6.0194,6.0499,6.0621,6.0377,6.0071,6.001,6.0499,5.9948,5.9957,6.0989,6.1295,6.1598,6.2154,6.2145,6.2145,6.2015,6.2015,6.2015,6.2015,6.2633,6.2942,6.2942,6.2942,6.2942,6.2942,6.2942,6.2942,6.2942,6.3364,6.3616,6.3869,6.4712,6.519,6.5443,6.5836,6.6005,6.6005,6.6005,6.6005,6.6005,0.0,0.0,0.0,0.0,0.0,0.0,0.0,0.0,0.0,0.0,0.0,0.0,0.0,0.0,0.0,0.0,0.0,0.0,3.1396,3.1377,3.1561,3.2001,3.2386,3.279,3.323,3.3615,3.3817,3.3817,3.4232,3.4784,3.547,3.467,3.4251,3.4162,3.3432,3.2819,3.2422,3.2422,3.2422,3.2422,3.2422,3.2422,3.2301,0.0,0.0,0.0,0.0,0.0,0.0,0.0,3.0645,3.1112,3.2285,3.3834,3.5452,3.6655,3.8624,4.0403,4.0403,4.0812,4.1523,4.2685,4.3028,4.375,4.6633,4.5978,4.5809,4.9213,4.8918,4.8521,4.9918,5.0813,0.0,5.3538,5.653,5.8732,5.9052,6.0014,6.0681,6.0681,6.0377,6.0194,6.0194,6.0194,6.0451,6.1079,6.1736,6.2238,6.2478,6.2507,6.2312,6.1949,6.2015,6.1949,6.1949,6.2539,6.2848,6.2848,6.2848,6.2876,6.2942,6.2942,6.2942,6.2942,6.2942,6.3251,6.3785,6.3785,6.4178,6.4769,6.4769,6.4769,6.4769,6.4769,6.4769,6.4769,0.0,0.0,0.0,0.0,0.0,0.0,0.0,0.0,0.0,0.0,0.0,0.0,0.0,0.0,0.0,0.0,0.0,0.0,3.1396,3.1377,3.1689,3.2386,3.2533,3.2918,3.3615,3.3762,3.3817,3.3817,3.4232,3.4508,3.4715,3.4689,3.4337,3.3832,3.3823,3.327,3.2422,3.2912,3.2676,3.2038,3.2294,3.2102,3.1662,0.0,0.0,0.0,0.0,0.0,0.0,0.0,0.0,0.0,3.2285,3.3834,3.5518,3.7121,3.8906,4.0475,4.086,4.1804,4.2725,4.2942,4.4001,4.5465,4.74,4.7214,4.7214,4.9439,4.9623,4.9584,5.0126,5.1525,0.0,5.2961,5.5432,5.7177,5.6909,5.8439,5.9583,5.9583,6.0165,6.0621,6.0892,6.0499,6.0745,6.2049,6.2119,6.2089,6.2019,6.2115,6.1444,5.9643,6.0199,6.0105,5.9209,5.9828,6.0123,6.0123,6.0123,6.1111,6.2942,6.2942,6.2942,6.2942,6.2942,6.3026,6.3156,6.2807,6.2576,6.2394,6.2394,6.2394,6.2394,6.2394,6.2394,6.2394,0.0,0.0,0.0,0.0,0.0,0.0,0.0,0.0,2.9417,3.0004,3.0643,3.1367,0.0,0.0,0.0,3.2539,3.2001,3.1561,3.1396,3.1377,3.1744,3.2551,3.2588,3.2973,3.3798,3.3817,3.3817,3.3817,3.4232,3.4365,3.4333,3.4681,3.4375,3.3669,3.3986,3.3444,3.2422,3.3102,3.2975,3.2358,3.2676,3.253,3.2174,0.0,0.0,0.0,0.0,0.0,0.0,0.0,0.0,0.0,3.173,3.3272,3.5035,3.6608,3.8401,4.0229,4.1729,4.2626,4.3451,4.4623,4.5689,4.6889,4.8667,4.9037,4.9195,4.9985,5.0375,5.0532,5.0701,5.1621,0.0,5.2087,5.4098,5.5575,5.5141,5.6919,5.8467,5.9058,5.9707,6.0348,6.1133,6.1033,6.1098,6.1497,6.1819,6.1641,6.0769,6.0844,6.0199,5.8662,5.9089,5.8995,5.8249,5.8928,5.9219,5.9219,5.9219,6.0054,6.1614,6.1614,6.1614,6.1614,6.1614,6.1614,6.1574,6.1288,6.0946,6.0705,6.0705,6.0705,6.0705,6.0705,6.0705,6.0705,0.0,0.0,0.0,0.0,0.0,0.0,0.0,2.8716,3.0146,3.1508,3.2945,3.3817,0.0,0.0,0.0,3.2625,3.2203,3.1781,3.1396,3.1377,3.1726,3.2514,3.257,3.2955,3.3743,3.3725,3.3707,3.3707,3.4158,3.4333,3.4315,3.4557,3.4316,3.3695,3.3914,3.3425,3.2485,3.3102,3.3165,3.2848,3.3228,3.3355,3.3292,3.2975,0.0,0.0,0.0,0.0,0.0,0.0,0.0,0.0,3.0898,3.2391,3.4365,3.5656,3.7655,4.0019,4.2687,4.3368,4.4041,4.7064,4.7703,4.8113,5.0168,5.1087,5.1293,5.0788,5.1087,5.1431,5.1431,5.1431,5.1317,5.0928,5.255,5.3843,5.3563,5.5353,5.7295,5.8718,5.8905,5.9431,6.0863,6.1354,6.1118,5.983,6.0858,6.0805,5.9073,5.9141,5.8963,5.8424,5.844,5.8414,5.8355,5.8954,5.9245,5.9245,5.9245,5.9245,5.9315,5.9525,5.9595,5.9595,5.9595,5.9525,5.9455,5.9455,5.9385,5.9315,5.9315,5.9315,5.9315,5.9315,5.9315,5.9315,0.0,0.0,0.0,0.0,0.0,0.0,3.2158,3.2596,3.2945,3.3242,3.359,3.3817,3.3817,3.3175,0.0,3.2606,3.1928,3.1469,3.1377,3.1377,3.1598,3.2111,3.2423,3.2826,3.334,3.3028,3.2863,3.2863,3.3872,3.4323,3.4296,3.403,3.3934,3.3998,3.3392,3.3008,3.2804,3.3228,3.3038,3.2549,3.2867,3.2867,3.2613,3.2549,3.2226,0.0,0.0,0.0,0.0,0.0,0.0,0.0,3.0898,3.2391,3.4365,3.5656,3.8432,4.1352,4.2628,4.4293,4.5931,4.6996,4.8631,5.0152,5.1041,5.1339,5.1385,5.127,5.1339,5.1431,5.1431,5.1431,5.1087,5.0302,5.1037,5.1585,5.1284,5.3139,5.5221,5.7231,5.7423,5.7997,5.9431,5.8641,5.8191,5.84,5.9046,5.9008,5.7946,5.891,5.8642,5.6789,5.7395,5.7228,5.6283,5.641,5.6485,5.6485,5.6485,5.6631,5.6993,5.8824,5.9595,5.9595,5.9289,5.8797,5.8232,5.8232,5.7759,5.6921,5.6921,5.6921,5.6921,5.6921,5.6921,5.6921,0.0,0.0,0.0,0.0,0.0,0.0,0.0,0.0,3.316,3.3696,3.3817,3.3817,3.3817,3.3083,0.0,0.0,3.1854,3.1377,3.1377,3.1377,3.1561,3.1983,3.2386,3.2698,3.2918,3.2698,3.2588,3.2588,3.3159,3.3444,3.3425,3.3386,3.3321,3.3239,3.3027,3.2785,3.2676,3.3165,3.3102,3.2676,3.2975,3.3038,3.2848,3.2676,3.2472,3.2258,3.186,0.0,0.0,0.0,0.0,0.0,0.0,0.0,3.317,3.4656,3.7035,3.9794,4.2397,4.4302,4.6083,4.8005,4.9702,5.1087,5.1362,5.1431,5.1431,5.1431,5.1431,5.1431,5.1431,5.1431,5.1087,5.0076,5.0565,5.0757,5.0128,5.1698,5.3504,5.5287,5.5802,5.6585,5.7961,5.7761,5.7455,5.7317,0.0,5.7831,5.6984,5.7622,5.7423,5.6267,5.6616,5.6543,5.5926,5.5926,5.5926,5.5926,5.5926,5.5999,5.6219,5.74,5.7973,5.7973,5.7759,5.7472,5.7112,5.7112,5.6776,5.6219,5.6219,5.6219,5.6219,5.6219,5.6072,5.5926,0.0,0.0,0.0,0.0,0.0,0.0,0.0,0.0,0.0,3.3714,3.3817,3.378,3.3725,3.3046,3.257,0.0,0.0,0.0,3.1377,3.1377,3.1561,3.1983,3.2239,3.2423,3.2496,3.2423,3.2386,3.2386,3.2319,3.2348,3.2413,3.2803,3.2827,3.2613,3.2804,3.2804,3.2613,3.3165,3.3228,3.2975,3.3292,3.3418,3.3355,3.3102,3.2952,3.2828,3.2459,3.2038,3.1719,3.1503,0.0,0.0,0.0,0.0,3.182,3.361,3.5406,3.7692,4.1791,4.4044,4.5949,4.9098,5.0605,5.1316,5.1408,5.1431,5.1431,5.1431,5.1431,5.1431,5.1431,5.1431,5.1087,5.0076,5.0416,5.0487,4.965,5.0577,5.1931,5.3411,5.4071,5.4968,5.6298,0.0,0.0,0.0,0.0,5.6772,5.6116,5.6168,5.6219,5.6219,5.6219,5.6219,5.6219,5.6219,5.6219,5.6219,5.6219,5.6219,5.6219,5.6219,5.6219,5.6219,5.6146,5.6146,5.6219,5.6219,5.6219,5.6219,5.6219,5.6219,5.6219,5.6219,5.5999,5.5779,0.0,0.0,0.0,0.0,0.0,0.0,0.0,0.0,0.0,0.0,3.3817,3.3688,3.334,3.2881,3.2459,3.2111,3.1653,3.1377,3.1377,0.0,0.0,3.1983,3.1708,3.1708,3.2074,3.1726,3.1543,3.1543,3.1552,3.1727,3.2003,3.2305,3.2797,3.3228,3.2975,3.3038,3.3292,3.3355,3.3355,3.3355,3.3355,3.3418,3.3418,3.3355,3.3316,3.3238,3.2556,3.2405,3.2439,3.1438,3.1227,0.0,0.0,0.0,3.182,3.361,3.5476,3.7655,4.0366,4.3938,4.7282,4.9375,5.0329,5.0857,5.1316,5.1431,5.1431,0.0,5.1431,5.1431,5.1431,5.1431,5.1087,5.0076,4.9968,4.992,4.9578,4.9652,5.0576,5.2566,0.0,0.0,0.0,0.0,0.0,0.0,5.4688,5.5127,5.5465,5.5942,5.6219,5.6219,5.6219,5.6219,5.6219,5.6219,5.6219,5.6219,5.6219,5.6219,5.6219,5.6219,5.6219,5.6219,5.5852,5.5852,5.6219,5.6219,5.6219,5.6219,5.6219,5.6219,5.6219,5.6219,5.6146,5.6146,0.0,0.0,0.0,0.0,0.0,0.0,0.0,0.0,0.0,0.0,0.0,3.3413,3.3248,3.2643,3.2203,3.2019,3.1616,3.1377,3.1377,3.1377,3.1469,3.1653,3.1469,3.1469,3.1653,3.1469,3.1377,3.1377,3.1377,3.1635,3.2166,3.2358,3.2676,3.3102,3.2975,3.3102,3.3418,3.3418,3.3418,3.3418,3.3418,3.3867,3.4453,3.3456,3.3694,3.4349,3.3096,3.2695,3.2734,3.216,3.1774,3.1484,3.1309,0.0,0.0,0.0,3.3798,3.5987,4.0374,4.4205,4.7321,4.9043,5.0411,5.127,5.0995,5.1201,5.1339,5.1041,5.0972,5.1064,5.1362,5.1431,5.1087,5.0076,4.9916,4.9623,4.8951,4.9221,0.0,0.0,0.0,0.0,0.0,0.0,0.0,0.0,5.4235,5.4813,5.5365,5.5917,5.6219,5.6219,5.6219,5.6219,5.6219,5.6219,5.6219,5.6219,5.6219,5.6219,5.6219,5.6219,5.6219,5.6219,5.5999,5.6072,5.6219,5.6219,5.6219,5.6219,5.6219,5.6219,5.6219,5.6219,5.6072,5.5926,0.0,0.0,0.0,0.0,0.0,0.0,0.0,0.0,0.0,0.0,0.0,3.3175,3.3083,0.0,0.0,0.0,3.1561,3.1377,3.1377,3.1377,3.1377,3.1377,3.1377,3.1377,3.1377,3.1377,3.1377,3.1377,3.1267,3.1615,3.227,3.2156,3.2289,3.2749,3.2961,3.3165,3.3418,3.3418,3.3418,3.3457,3.3789,3.4512,3.5293,3.4037,3.4413,3.5304,3.3624,3.3049,3.3086,3.2871,3.2305,3.166,3.1562,3.123,0.0,0.0,0.0,3.4613,3.9449,4.2906,4.5638,4.7645,4.9462,5.0735,5.0497,0.0,5.111,0.0,5.0742,5.0903,5.1179,5.1224,5.088,4.987,4.9824,4.9548,0.0,0.0,0.0,0.0,0.0,0.0,0.0,0.0,0.0,0.0,5.4165,5.4813,5.5365,5.5917,5.6219,5.6219,5.6219,5.6219,5.6219,5.6219,5.6219,5.6219,5.6219,5.6219,5.6219,5.6219,5.6219,5.6219,5.6219,5.6219,5.6219,5.6219,5.6219,5.6219,5.6219,5.6219,5.6219,5.6219,5.5999,5.5779,0.0,0.0,0.0,0.0,0.0,0.0,3.3817,3.3835,0.0,0.0,0.0,3.3065,3.268,3.2258,3.1854,3.1451,3.1396,3.1377,3.1377,3.1377,3.1377,3.1377,3.1377,0.0,3.1377,3.1377,3.1377,3.1377,3.1011,3.1143,3.1834,3.1418,3.1597,3.2266,3.3004,3.3355,3.3418,3.3418,3.3418,3.3535,3.4785,3.5332,3.5391,3.5312,3.5586,3.5762,3.3979,3.3672,3.3887,3.3066,3.25,3.207,3.1641,3.123,3.0976,0.0,0.0,0.0,3.6286,3.8738,4.1493,4.4808,4.6598,4.7953,4.9577,0.0,5.065,5.0627,5.1041,5.1247,5.0765,5.0673,5.0329,4.9319,4.9571,0.0,0.0,0.0,0.0,0.0,0.0,0.0,0.0,0.0,0.0,0.0,5.3882,5.4813,5.5365,5.5917,5.6219,5.6219,5.6219,5.6219,5.6219,5.6219,5.6219,5.6219,5.6219,5.6219,5.6219,5.6219,5.6219,5.6219,5.6219,5.6219,5.6219,5.6219,5.6219,5.6219,5.6219,5.6219,5.6219,5.6219,5.6219,5.6146,0.0,0.0,0.0,0.0,0.0,0.0,3.3817,3.3817,3.3817,0.0,0.0,0.0,0.0,3.2239,3.1836,3.1414,3.1377,3.1377,3.1377,3.1377,3.1377,3.1377,3.1377,3.1377,3.1377,3.1377,3.1249,3.0992,3.0864,3.0914,3.109,3.1186,3.1417,3.1883,3.2419,3.2773,3.3008,3.3008,3.3184,3.3535,3.4863,3.6035,3.6934,3.6113,3.6934,3.8203,3.5918,3.5019,0.0,0.0,0.0,0.0,0.0,0.0,3.1269,3.1152,3.1762,3.2875,3.5087,3.7213,3.926,4.1194,4.438,4.6917,4.6698,4.872,5.0536,5.0237,5.0329,5.0283,4.9755,5.0191,5.0283,0.0,0.0,0.0,0.0,0.0,0.0,0.0,0.0,0.0,0.0,0.0,0.0,0.0,0.0,5.2665,5.2861,5.4251,5.4964,5.4964,5.5799,5.6219,5.6219,5.6219,5.6219,5.6219,5.6438,5.6438,5.6219,5.6438,5.6438,5.6219,5.651,5.6583,5.6583,5.6583,5.6583,5.6609,5.6962,5.6967,5.6771,5.7148,5.7298,5.7298,0.0,0.0,0.0,3.4642,0.0,3.3963,3.3835,3.3817,3.3817,3.3817,0.0,0.0,0.0,0.0,3.1836,3.1414,3.1377,3.1377,3.1377,3.1377,3.1377,3.1377,3.1377,3.1322,3.1176,3.1176,3.0992,3.0589,3.0442,3.0488,3.0639,3.0691,3.0997,3.1438,3.1678,3.2129,3.2793,3.2793,3.3047,3.3594,3.5488,3.6914,3.7851,0.0,0.0,0.0,0.0,0.0,0.0,0.0,0.0,0.0,0.0,0.0,0.0,3.1016,3.1094,3.1702,3.3457,3.5294,3.7002,3.8788,4.1949,4.4731,4.5251,0.0,4.9278,4.9571,4.9916,4.9985,4.9479,5.0053,0.0,0.0,0.0,0.0,0.0,0.0,0.0,0.0,0.0,0.0,0.0,0.0,0.0,0.0,0.0,0.0,5.1513,5.2865,5.3643,5.3643,5.4425,5.4915,5.4915,5.4915,5.516,5.5699,5.599,5.6309,5.6583,5.6874,5.6729,5.6219,5.6979,5.7099,5.6801,5.7124,5.7201,5.7131,5.7689,5.7695,5.7374,5.775,5.7976,5.8101,0.0,0.0,0.0,3.5119,3.4697,3.4293,3.389,3.3835,3.3817,3.3817,0.0,0.0,0.0,0.0,0.0,3.1414,3.1377,3.1377,3.1377,3.1377,3.1377,3.1377,3.1377,3.1194,3.0791,3.0791,3.0589,3.0185,2.9764,2.9925,3.0449,3.0111,3.0294,3.0898,3.0898,3.1601,3.2773,3.2773,3.3027,3.3711,0.0,3.7949,3.8008,0.0,0.0,0.0,3.6669,3.6352,0.0,3.6977,0.0,0.0,0.0,0.0,0.0,3.1035,3.0898,3.0976,0.0,0.0,0.0,3.7584,3.9312,0.0,4.5343,0.0,4.6959,4.8607,4.9824,5.0375,4.9962,0.0,0.0,0.0,0.0,0.0,0.0,0.0,0.0,0.0,0.0,0.0,0.0,0.0,0.0,0.0,5.0723,5.1465,5.1465,5.197,5.2332,5.2332,5.2332,5.2332,5.2308,5.2308,5.3157,5.4762,5.4762,5.5739,5.7333,5.7333,5.6972,5.6294,5.7604,5.7674,5.6903,5.7849,5.798,5.7714,5.8322,5.8351,5.7926,5.7951,5.8227,5.8501,0.0,0.0,0.0,3.5467,3.5119,3.4715,3.4312,3.4238,3.4128,0.0,0.0,0.0,3.3248,3.2496,3.1836,3.1414,3.1377,3.1377,3.1377,3.1377,3.1377,3.1377,3.1377,3.1194,3.0791,3.0791,3.0442,2.9745,2.9878,2.9916,2.9796,3.0097,3.0333,3.0567,3.0762,3.1426,3.2344,3.2344,0.0,3.4121,3.6836,3.8301,0.0,0.0,0.0,0.0,0.0,4.008,4.0098,0.0,3.8365,3.6016,0.0,0.0,0.0,3.1387,3.1133,3.0918,3.1035,0.0,0.0,0.0,0.0,0.0,0.0,0.0,0.0,4.5929,4.7151,0.0,0.0,0.0,0.0,0.0,0.0,0.0,0.0,0.0,0.0,0.0,0.0,0.0,0.0,0.0,0.0,0.0,4.9905,5.0355,5.0355,5.1639,5.2591,5.2886,5.318,5.3157,5.2768,5.2768,5.3302,5.4399,5.469,5.5357,5.6278,5.65,5.6576,5.6523,5.7175,5.73,5.72,5.8689,5.9183,5.9186,5.9753,5.966,5.9336,5.9135,5.9133,5.9108,0.0,0.0,3.5815,3.565,3.543,3.5137,3.4733,3.466,3.4513,0.0,0.0,0.0,3.3028,3.2698,3.2276,3.1689,3.1634,3.1561,3.1396,3.1377,3.1377,3.1377,3.1377,3.1194,3.0791,3.0626,3.0284,2.9823,2.9837,2.9871,2.9863,3.0274,3.045,3.0645,3.082,3.1367,3.2229,3.2229,0.0,0.0,3.7012,0.0,0.0,4.0996,4.2422,0.0,0.0,0.0,4.1953,4.16,3.9265,0.0,0.0,0.0,3.1758,3.1562,3.123,3.0898,3.0898,3.1191,3.1623,0.0,0.0,0.0,3.8443,4.1671,0.0,0.0,0.0,0.0,0.0,0.0,0.0,0.0,0.0,0.0,0.0,0.0,0.0,0.0,0.0,0.0,0.0,4.8872,4.9106,4.9229,4.9789,5.0184,5.0416,5.1428,5.2084,5.236,5.2597,5.255,5.2265,5.2265,5.295,5.435,5.4647,5.5386,5.6624,5.685,5.6873,5.6663,5.7394,5.757,5.7442,5.8984,5.9384,5.9006,5.9642,5.9947,5.9998,5.9251,5.9503,5.9965,0.0,0.0,3.6091,3.5742,3.5687,3.5559,3.5155,3.51,3.4954,0.0,3.4128,3.3578,3.2753,3.2991,3.2918,3.2148,3.2074,3.1891,3.1469,3.1451,3.1433,3.1377,3.1377,3.1194,3.0791,3.0442,3.0223,3.0083,2.9752,2.9901,3.0392,3.045,3.0626,3.0898,3.0898,3.1367,3.2229,3.2229,0.0,3.4004,3.7266,3.8652,0.0,0.0,4.2969,4.3379,4.2601,4.276,4.3242,4.2098,3.9949,0.0,0.0,0.0,3.2637,3.1777,3.1387,3.1191,3.0957,3.1172,0.0,0.0,0.0,0.0,4.0434,4.1772,4.3137,0.0,0.0,0.0,0.0,0.0,0.0,0.0,0.0,0.0,0.0,0.0,0.0,0.0,0.0,0.0,4.9052,4.9122,4.9266,4.9603,5.0073,5.0566,5.0986,5.1273,5.135,5.1204,5.1455,5.1554,5.1508,5.1508,5.251,5.4539,5.4616,5.5668,5.7649,5.7649,5.7219,5.6707,5.7918,5.804,5.7573,5.8741,5.8821,5.8216,5.8766,5.9498,6.0133,5.8772,5.9288,6.0473,3.6146,3.6201,3.6182,3.6109,3.6091,3.5962,3.5559,3.5504,3.5357,3.4954,3.455,3.3982,3.3193,3.3175,3.3028,3.2514,3.2478,3.2313,3.1909,3.1891,3.1726,3.1396,3.1377,3.1194,3.0791,3.0717,3.05,3.0083,3.0231,3.0363,3.0392,3.0704,3.084,3.0898,3.0898,3.1367,3.2229,3.2229,0.0,3.5684,3.7754,0.0,4.043,4.3027,4.4707,4.5664,4.55,4.5305,4.4726,4.1776,4.0821,4.0273,0.0,0.0,0.0,3.2559,3.2441,3.3086,3.1367,0.0,0.0,0.0,0.0,0.0,3.4146,3.6149,3.8087,0.0,0.0,0.0,0.0,0.0,0.0,0.0,0.0,0.0,0.0,0.0,0.0,0.0,0.0,0.0,4.9365,4.9764,5.0094,5.0167,5.0637,5.0795,5.0616,5.1751,5.1851,5.0802,5.1909,5.2365,5.187,5.223,5.2947,5.408,5.4463,5.5275,5.6527,5.6527,5.6691,5.6945,5.72,5.7248,5.7114,5.7369,5.8187,5.9203,5.938,5.9481,5.9581,5.8599,5.8443,5.8595,3.6127,3.6201,3.6201,3.6201,3.6201,3.6146,3.5944,3.5907,3.5852,3.5593,3.5383,3.4971,3.4168,3.4279,3.3988,3.2973,3.3083,3.2863,3.2056,3.2184,3.2111,3.1708,3.1884,3.1764,3.1357,3.1325,3.1165,3.0869,3.0762,3.0736,3.0645,3.1035,3.1211,3.1211,3.1426,3.1875,3.25,0.0,3.405,3.612,3.7663,0.0,4.1367,4.332,4.4863,4.5996,4.5996,4.5586,4.4844,4.3535,4.166,0.0,0.0,3.7187,3.5898,0.0,3.3555,3.3652,0.0,0.0,0.0,3.1211,0.0,0.0,0.0,0.0,3.7269,0.0,0.0,0.0,0.0,0.0,0.0,0.0,0.0,0.0,0.0,0.0,0.0,0.0,0.0,0.0,5.0528,5.0599,5.079,5.1269,5.1293,5.1168,5.1134,5.2306,5.2587,5.1693,5.2941,5.3551,5.3534,5.377,5.4281,5.5193,5.5428,5.5872,5.6636,5.6636,5.678,5.7021,5.7021,5.7021,5.7021,5.7021,5.7643,5.863,5.8359,5.8817,5.9553,5.8142,5.8185,5.8919,3.6109,3.622,3.6349,3.6442,3.6367,3.6275,3.6275,3.6293,3.6146,3.6126,3.6062,3.583,3.5064,3.5454,3.52,3.389,3.4238,3.3927,3.2618,3.2979,3.2887,3.2235,3.246,3.2422,3.2105,3.1992,3.1889,3.1715,3.143,3.1225,3.1152,3.1484,3.1641,3.168,3.2205,3.2575,3.2832,0.0,0.0,3.6598,0.0,3.9632,4.2244,4.3691,4.498,4.6016,4.5859,4.5351,4.4785,4.4902,4.2246,3.9043,3.9824,3.8281,0.0,0.0,0.0,0.0,0.0,0.0,0.0,0.0,0.0,3.2275,0.0,0.0,0.0,0.0,0.0,0.0,0.0,0.0,0.0,0.0,0.0,0.0,0.0,0.0,0.0,0.0,0.0,0.0,0.0,5.0771,5.1034,5.2067,5.1441,5.1202,5.1556,5.2552,5.3062,5.2767,5.3854,5.4661,5.5067,5.5067,5.5577,5.6405,5.6405,5.6622,5.7021,5.7021,5.7021,5.7021,5.7021,5.7069,5.7165,5.7069,5.7381,5.7886,5.7261,5.7999,5.9291,5.7718,5.8176,5.934,3.6199,3.6496,3.6812,3.7181,3.696,3.6738,3.6738,3.6442,3.6072,3.5742,3.565,3.5466,3.508,3.5705,3.6091,3.5889,0.0,0.0,3.4659,3.5008,3.457,3.3076,3.2981,3.3028,3.299,3.2573,3.2283,3.2238,3.2181,3.2134,3.2031,3.207,3.209,3.2148,3.2961,3.316,3.2871,0.0,3.5694,0.0,3.8457,4.0278,0.0,4.5199,4.6562,4.7266,4.6504,4.6172,4.5683,0.0,4.2344,4.1738,0.0,3.8574,4.0351,3.4238,0.0,0.0,0.0,0.0,0.0,0.0,3.2111,0.0,0.0,0.0,0.0,3.408,0.0,0.0,0.0,0.0,0.0,0.0,0.0,0.0,0.0,0.0,0.0,0.0,0.0,0.0,0.0,0.0,4.9974,5.1465,5.0191,4.9859,5.0889,5.2033,5.2711,5.2845,5.3854,5.4661,5.5067,5.5067,5.5577,5.6405,5.6405,5.6622,5.7021,5.7021,5.7021,5.7021,5.7021,5.7285,5.7694,5.7213,5.7622,5.8416,5.7405,5.7462,5.8048,5.7766,5.7871,5.812,3.6288,3.6679,3.7181,3.7329,3.7255,3.7107,3.7107,3.7181,3.7198,3.7029,3.6929,3.6869,3.6746,3.6614,0.0,0.0,0.0,3.6627,0.0,0.0,3.5407,3.4221,3.4118,3.3868,3.339,3.3392,3.3096,3.2607,3.2607,3.2455,3.2229,3.2422,3.2539,3.2617,3.3939,3.445,3.4313,0.0,3.6713,0.0,0.0,0.0,0.0,4.4752,4.5723,4.6465,4.6348,4.6152,4.5781,0.0,4.2988,0.0,0.0,0.0,0.0,0.0,0.0,0.0,0.0,0.0,0.0,0.0,0.0,0.0,3.2617,0.0,3.2559,0.0,0.0,0.0,0.0,0.0,0.0,0.0,0.0,0.0,0.0,0.0,0.0,0.0,0.0,0.0,0.0,0.0,0.0,0.0,0.0,5.0098,5.1318,5.2688,5.333,5.3132,5.4494,5.5392,5.5819,5.5819,5.6141,5.6782,5.6782,5.6861,5.7021,5.7021,5.7021,5.7021,5.7021,5.7309,5.779,5.7574,5.7911,5.856,5.8103,5.8079,5.8223,5.7911,5.8199,5.8752,3.6598,3.7045,3.7642,3.7696,3.7642,3.7568,3.7421,3.7547,3.7728,3.7843,3.7793,3.7846,3.7977,3.7849,0.0,0.0,3.8093,3.7966,0.0,0.0,3.6694,3.5648,3.5305,3.4902,3.4431,3.418,3.3769,3.3144,3.3027,3.2812,3.2519,3.2832,3.2969,3.3047,3.4613,3.5295,3.5371,0.0,3.7796,3.9143,4.0743,4.2256,4.382,4.4694,4.541,4.5879,4.6191,4.6035,4.5664,4.5605,4.3437,0.0,4.2656,0.0,0.0,0.0,0.0,0.0,3.4355,0.0,0.0,0.0,0.0,0.0,0.0,0.0,0.0,0.0,0.0,0.0,0.0,0.0,0.0,0.0,0.0,0.0,0.0,0.0,0.0,0.0,0.0,0.0,0.0,0.0,0.0,0.0,0.0,0.0,5.1989,5.3318,5.3921,5.3808,5.5042,5.5956,5.6405,5.6301,5.6462,5.7021,5.6861,5.6861,5.7021,5.7021,5.7093,5.7237,5.7237,5.7622,5.8223,5.7935,5.8199,5.8776,5.8343,5.8343,5.856,5.8319,5.8728,5.9378,3.7432,3.772,3.8082,3.8501,3.8228,3.7862,3.7495,3.708,3.6967,3.7364,3.7402,3.7554,0.0,0.0,0.0,0.0,0.0,4.123,3.912,0.0,3.8956,3.734,3.6402,3.6092,3.6463,3.4937,3.4062,3.4023,3.3613,3.3398,3.3379,3.3398,3.3398,3.3413,3.4815,3.5382,3.5429,3.7099,3.8802,4.0428,4.1327,4.2523,4.3945,0.0,4.6621,4.6289,4.6289,0.0,0.0,4.4219,4.3418,0.0,0.0,0.0,0.0,0.0,0.0,0.0,0.0,0.0,0.0,3.3828,0.0,0.0,0.0,0.0,3.2422,0.0,0.0,0.0,0.0,0.0,0.0,0.0,0.0,0.0,0.0,0.0,0.0,0.0,0.0,0.0,0.0,0.0,0.0,0.0,0.0,0.0,5.2836,5.3661,5.4241,5.4741,5.539,5.5956,5.6405,5.5956,5.6197,5.7021,5.6646,5.6622,5.7021,5.7021,5.7285,5.779,5.779,5.8367,5.9257,5.8223,5.8416,5.9209,5.767,5.7694,5.8656,5.9161,5.9353,5.9378,3.8234,3.8331,3.8428,3.8574,3.8501,3.8355,3.8209,3.7769,3.7889,3.886,3.846,0.0,0.0,3.9572,3.9828,0.0,0.0,4.0589,3.9613,3.9994,0.0,3.8204,3.7617,3.7074,0.0,0.0,3.4941,3.4082,3.3926,3.3711,3.3418,3.3418,3.3418,3.3452,3.5076,3.6227,0.0,0.0,0.0,0.0,0.0,4.2048,4.3394,0.0,0.0,4.5156,4.5996,4.6211,0.0,4.5566,4.457,4.3516,4.3672,4.2539,4.1113,4.0801,4.0527,0.0,0.0,0.0,3.916,3.6289,0.0,0.0,0.0,0.0,0.0,0.0,0.0,0.0,0.0,0.0,0.0,0.0,0.0,0.0,0.0,0.0,0.0,0.0,0.0,0.0,0.0,0.0,0.0,0.0,0.0,0.0,0.0,5.4415,5.4985,5.5153,5.6049,5.6622,5.6782,5.6622,5.6678,5.7021,5.6861,5.7053,5.7526,5.7189,5.7309,5.7814,5.7814,5.8007,5.8343,5.8343,5.7642,5.669,5.7615,5.7299,5.6456,5.784,5.856,5.88,3.8574,3.8574,3.8574,3.8574,3.8574,3.8516,3.8359,3.8242,3.8526,0.0,3.9375,0.0,4.0731,0.0,4.0871,0.0,4.1592,4.1333,4.0481,4.0852,0.0,3.93,3.878,0.0,0.0,0.0,0.0,0.0,3.4388,3.3848,3.3418,3.3418,3.3418,3.3433,3.4882,3.6412,3.7953,3.8915,4.0235,0.0,0.0,4.1833,0.0,0.0,4.4121,4.457,0.0,4.6308,4.6308,4.6308,4.5449,4.4551,4.541,4.4043,4.2207,4.2598,4.2363,4.168,4.0469,4.1055,0.0,3.832,3.8086,0.0,3.5,0.0,0.0,0.0,0.0,0.0,0.0,0.0,0.0,0.0,0.0,0.0,0.0,0.0,0.0,0.0,0.0,0.0,0.0,0.0,0.0,0.0,0.0,0.0,0.0,0.0,5.5193,5.5385,5.6275,5.6828,5.7021,5.7021,5.7021,5.7021,5.6861,5.7053,5.7526,5.7221,5.7317,5.7734,5.7333,5.7135,5.7077,5.6619,5.5662,5.4584,5.5666,5.5832,5.5606,5.7404,5.8175,5.8295,3.8574,3.8574,3.8574,3.8613,3.8574,3.8418,3.8047,3.8281,3.872,0.0,3.9932,4.0788,4.1695,4.2855,4.3546,4.3528,4.3878,4.3394,4.1756,4.2106,0.0,0.0,4.0164,4.0226,4.0979,0.0,0.0,0.0,0.0,3.3906,3.3457,3.3437,3.3418,3.3457,3.4316,0.0,3.7877,3.9122,4.0901,4.2757,4.1946,4.1652,4.1854,4.2812,4.3672,4.457,4.584,4.6308,4.6308,4.6308,4.6035,4.5703,4.5703,4.541,4.498,4.4609,4.5058,4.5137,4.2695,4.2305,4.207,3.9922,3.9062,0.0,0.0,0.0,3.5703,0.0,0.0,0.0,0.0,0.0,0.0,0.0,0.0,0.0,0.0,0.0,0.0,0.0,0.0,0.0,0.0,0.0,0.0,0.0,0.0,0.0,0.0,0.0,5.4684,5.5385,5.5938,5.6492,5.7021,5.6941,5.6941,5.6941,5.6542,5.6566,5.6989,5.6986,5.72,5.7548,5.6252,5.5664,5.5489,5.3296,5.2599,5.2883,5.2031,5.3471,5.6091,5.7904,5.8271,5.7911,3.8574,3.8574,3.8672,3.8984,3.8516,3.8262,3.8789,3.8164,0.0,0.0,4.0967,4.1417,4.2907,4.3619,4.3825,4.353,4.3607,0.0,0.0,0.0,0.0,4.1835,4.1718,4.1279,4.057,3.9222,0.0,3.6598,0.0,3.4668,3.3906,3.3574,3.3418,3.3457,3.4316,3.552,3.7009,3.8269,3.9826,4.1459,4.0909,4.0906,0.0,0.0,4.3659,4.411,4.5753,4.6308,4.6308,4.6308,4.623,4.6152,4.6152,4.5859,4.5547,4.5762,4.5742,4.5605,4.5234,4.5,4.4394,4.2539,4.1523,4.0527,0.0,0.0,0.0,0.0,0.0,0.0,0.0,0.0,0.0,0.0,0.0,0.0,0.0,0.0,0.0,0.0,0.0,0.0,0.0,0.0,0.0,0.0,0.0,0.0,0.0,0.0,0.0,5.5337,5.5938,5.6492,5.7021,5.6702,5.6542,5.6566,5.6117,5.6169,5.6547,5.5183,5.4659,5.474,5.3705,5.2697,5.1871,5.2239,5.125,4.9702,5.1503,5.3677,5.6007,5.7904,5.8512,5.8416,3.916,3.916,3.9238,3.9473,3.9109,3.8922,3.9406,3.8856,0.0,4.1133,4.1525,0.0,4.3357,4.414,4.4526,4.4306,4.4288,0.0,4.3472,0.0,0.0,4.2839,4.2832,4.2579,4.2044,4.0546,0.0,3.7682,0.0,3.5287,3.4062,3.3828,3.3613,3.3457,0.0,3.5491,3.7019,3.9203,4.0485,4.1009,4.1166,0.0,0.0,4.2995,4.3775,4.4367,4.5337,4.5958,4.6308,4.6308,4.6308,4.6308,4.6308,4.6269,4.623,4.6289,4.6406,4.6523,4.6562,4.6269,4.5723,4.4726,4.3984,4.2988,4.1055,4.0762,4.0625,0.0,0.0,0.0,0.0,0.0,0.0,0.0,0.0,0.0,0.0,0.0,0.0,0.0,0.0,0.0,0.0,0.0,0.0,0.0,0.0,0.0,0.0,0.0,0.0,5.1893,5.2294,5.3385,5.5235,5.4071,5.4026,5.5206,5.3792,5.3324,5.376,5.2397,5.1719,5.1602,5.0587,4.9637,4.8914,4.9277,4.8527,4.7419,5.0376,5.2261,5.3745,5.5983,5.7071,5.7243,3.9902,3.9902,3.9902,3.9902,3.9989,4.0047,4.0142,4.0067,0.0,4.1241,0.0,4.2857,4.3676,4.4691,4.537,4.537,0.0,4.5059,4.4387,4.458,4.447,4.3774,4.3715,4.3848,4.4068,4.1926,0.0,0.0,0.0,3.5973,3.4316,3.416,3.3906,3.3613,0.0,0.0,0.0,4.0626,4.1534,4.1084,4.1929,4.2499,4.2942,4.3112,4.3849,4.4813,4.4902,4.5431,4.6221,4.6221,4.624,4.6387,4.6387,4.668,4.6953,4.6641,4.7031,4.75,4.7187,4.6797,4.6465,4.6465,4.6152,4.5332,4.3379,4.3223,4.2969,4.1055,4.0605,4.0508,0.0,0.0,0.0,0.0,0.0,0.0,0.0,0.0,0.0,0.0,0.0,0.0,0.0,0.0,0.0,0.0,0.0,0.0,0.0,0.0,0.0,4.7893,4.7866,0.0,5.2533,0.0,5.0976,5.307,5.0761,4.9841,5.013,4.9174,4.865,4.8537,4.727,4.6744,4.6588,4.5926,4.5725,4.6111,4.9194,5.0368,5.0689,5.3118,5.4496,5.5071,3.9902,3.9902,3.9902,3.9902,4.0724,4.1441,4.1821,4.1271,4.1354,4.2862,4.3447,4.4123,4.493,4.5518,4.5792,4.5792,4.548,0.0,0.0,0.0,0.0,4.4985,4.4948,4.471,4.4086,4.3056,4.1686,0.0,0.0,3.7016,3.5644,3.457,3.4219,3.4492,0.0,0.0,3.8322,3.9338,0.0,4.1084,4.1929,4.2329,4.2545,4.3572,4.4095,4.437,4.4725,4.5255,4.5695,4.5695,4.6191,4.6816,4.6816,4.7109,4.7519,4.7793,4.7734,4.7637,4.791,4.7676,4.7363,4.7363,4.7031,4.6523,4.5801,4.5683,4.5527,4.4805,4.4375,4.3808,4.2715,0.0,0.0,0.0,0.0,0.0,0.0,0.0,0.0,0.0,0.0,0.0,0.0,0.0,0.0,0.0,0.0,0.0,0.0,0.0,0.0,0.0,4.9459,0.0,0.0,0.0,5.05,4.9912,4.9459,4.9217,4.9279,4.7229,4.632,4.6247,4.5202,4.4844,4.4887,4.543,4.6065,4.6895,4.9092,5.0098,5.0492,5.1366,5.1825,5.2182,4.0566,4.0566,4.0685,4.1112,4.179,4.2561,4.3176,4.3205,4.3397,4.3751,4.3974,4.4312,4.4928,4.5481,4.5883,4.5883,4.5718,4.5682,4.5883,4.5718,4.5608,4.5608,4.5407,0.0,4.4398,4.4056,4.2761,4.0367,0.0,3.8348,3.6016,3.5371,3.4941,3.4746,0.0,3.7132,0.0,0.0,0.0,4.1732,4.2555,4.3079,4.3301,4.3708,4.3967,4.4133,4.4179,4.4459,4.4902,4.5166,4.5565,4.5934,4.6412,4.6869,4.7386,4.7995,4.8223,4.8281,4.8496,4.8223,4.791,4.791,4.7578,4.7207,4.7012,4.6973,4.6836,4.6406,4.6152,4.541,4.3437,4.082,0.0,0.0,0.0,0.0,0.0,0.0,0.0,0.0,0.0,0.0,0.0,0.0,0.0,0.0,0.0,0.0,0.0,0.0,0.0,0.0,0.0,0.0,0.0,0.0,0.0,4.8315,4.6712,4.5936,4.5916,4.4304,4.3794,4.4,4.3725,4.3906,4.4407,4.5324,4.6172,4.7022,4.7954,4.8426,4.8667,4.911,4.9271,4.955,4.1366,4.1269,4.1464,4.2269,4.2732,4.33,4.4007,4.4856,4.5132,4.4445,4.4461,4.4628,4.4944,4.5501,4.5883,4.5883,4.5883,4.5883,4.5883,4.5883,4.5883,4.5883,4.559,4.5278,4.493,4.4817,4.3541,0.0,0.0,0.0,3.6288,3.6181,3.5869,0.0,0.0,0.0,0.0,0.0,4.2029,4.266,4.3365,4.3811,4.405,4.3738,4.3811,4.4031,4.3628,4.3748,4.4104,4.4459,4.4838,4.5294,4.5974,4.6523,4.7203,4.7988,4.841,4.8682,4.8848,4.8521,4.8157,4.834,4.8105,4.7832,4.7734,4.7715,4.7598,4.7148,4.6992,4.6172,4.3672,4.2109,0.0,0.0,0.0,0.0,0.0,0.0,0.0,0.0,0.0,0.0,0.0,0.0,0.0,0.0,0.0,0.0,0.0,0.0,0.0,0.0,0.0,4.3346,4.6262,0.0,4.504,4.6686,4.4168,4.3149,4.3206,4.2284,4.2237,4.2819,4.314,4.3794,4.4643,4.5452,4.6191,4.6797,4.6797,4.6797,4.6855,4.7285,4.7441,4.7539,4.2091,4.1636,4.1579,4.2637,4.3188,4.362,4.4044,4.5095,4.5663,4.5279,4.5536,4.5775,4.5812,4.5828,4.5883,4.5883,4.5883,4.5883,4.5883,4.5883,4.5883,4.5883,4.5847,4.581,4.5773,4.5095,4.421,0.0,0.0,3.9336,3.7091,3.6763,3.6976,0.0,0.0,0.0,0.0,4.2012,4.2704,4.346,4.3829,4.405,4.4086,4.405,4.405,4.4031,4.3628,4.3499,4.3589,4.3589,4.4678,4.6,4.6038,4.6717,4.7474,4.7976,4.7829,4.7755,4.8682,4.8459,4.8254,4.8697,4.8769,4.8633,4.8242,4.8144,4.8027,4.7598,4.7207,4.625,4.4043,4.3516,4.2573,0.0,0.0,0.0,0.0,0.0,0.0,0.0,0.0,0.0,0.0,0.0,0.0,0.0,0.0,0.0,0.0,0.0,0.0,4.2848,0.0,4.2195,4.1837,4.4263,4.485,4.3566,4.3189,4.3367,4.4137,4.2904,4.3027,4.4156,4.4156,4.4682,4.5644,4.6074,4.6289,4.6367,4.6367,4.6367,4.6406,4.6836,4.6992,4.7051,4.3033,4.2812,4.29,4.3803,4.4108,0.0,0.0,4.5573,4.5828,4.5682,4.5792,4.5883,4.5883,4.5883,4.5883,4.5883,4.5883,4.5883,4.5883,4.5883,4.5773,4.5553,4.5755,4.5663,4.5168,4.5354,4.4779,0.0,0.0,0.0,0.0,3.8918,3.9307,3.9855,0.0,4.1197,4.2058,4.2728,4.3365,4.3884,4.427,4.4581,4.4783,4.4526,4.4435,4.438,4.3995,4.3701,4.3499,4.3499,4.4117,4.4978,4.5493,4.6072,4.669,4.7512,4.7588,4.7495,4.7848,4.7848,4.7774,4.7941,4.8219,4.8366,4.8192,4.841,4.8476,4.8047,4.7402,4.6738,4.6152,4.498,4.4018,0.0,0.0,0.0,0.0,0.0,0.0,0.0,0.0,0.0,0.0,0.0,0.0,0.0,0.0,0.0,0.0,0.0,0.0,4.1479,0.0,4.3065,4.2695,4.416,4.4551,4.3867,4.3529,4.3611,4.3933,4.369,4.4128,4.5152,4.5405,4.5705,4.6055,4.623,4.6308,4.6308,4.6308,4.6308,4.6328,4.6484,4.6562,4.6621,4.428,4.3898,4.3883,4.5032,4.4923,4.5018,4.5794,4.5883,4.5883,4.5883,4.5883,4.5883,4.5883,4.5883,4.5883,4.5883,4.5773,4.5718,4.5718,4.5608,4.5407,4.5132,4.5388,0.0,4.4875,4.5391,4.5001,4.3852,4.3253,0.0,3.9983,4.0164,4.0859,0.0,4.2144,4.2519,4.3044,4.3604,4.3995,4.4288,4.4691,4.504,4.5278,4.4966,4.4856,4.4783,4.427,4.3903,4.3646,4.3536,4.3756,4.425,4.5001,4.55,4.5927,4.6896,4.7102,4.7009,4.7308,4.7308,4.7196,4.7401,4.7681,4.7867,4.7867,4.8312,4.8546,4.8301,4.7734,4.7363,4.7539,4.6348,4.5508,4.6035,0.0,0.0,0.0,0.0,0.0,0.0,0.0,0.0,0.0,0.0,0.0,0.0,0.0,0.0,0.0,0.0,0.0,0.0,0.0,0.0,0.0,4.3984,4.4394,4.4394,4.3955,4.3902,4.4323,4.4663,4.5288,4.5879,4.6172,4.6308,4.6308,4.6308,4.6308,4.6308,4.6308,4.6308,4.6308,4.6308,4.6308,4.6348,4.5953,4.4747,4.4166,4.6187,4.5499,4.5018,4.5794,4.5883,4.5883,4.5883,4.5883,4.5883,4.5883,4.5883,4.5883,4.5883,4.5535,4.5315,4.5315,4.4911,4.4673,0.0,0.0,4.4875,4.5278,4.4893,4.4673,4.4655,0.0,0.0,4.0284,3.9943,4.1151,4.3547,4.3547,4.4053,4.4789,4.4672,4.4655,4.471,4.5132,4.5297,4.5297,4.5297,4.5297,4.5187,4.438,4.4086,4.4013,4.3628,4.3756,4.416,4.4545,4.4966,4.5463,4.6336,4.6259,4.6166,4.7102,4.7009,4.6728,4.7308,4.7401,4.7401,4.7401,4.7774,4.8104,4.8209,4.8203,4.8066,4.7656,4.7558,4.7129,4.5879,0.0,0.0,0.0,0.0,0.0,0.0,4.2187,4.1484,4.2305,0.0,0.0,0.0,0.0,0.0,0.0,0.0,0.0,4.2283,4.2851,0.0,4.1836,4.3535,4.4394,4.4394,4.3955,4.4381,4.5664,4.6094,4.6289,4.6289,4.6308,4.6308,4.6308,4.6308,4.6308,4.6308,4.6308,4.6308,4.6308,4.6308,4.6308,4.6308,4.5964,4.5556,4.5335,4.6036,4.5759,4.5611,4.5828,4.5883,4.5883,4.5883,4.5883,4.5883,4.5883,4.5645,4.548,0.0,4.5113,4.4875,0.0,4.4746,4.4563,4.4288,4.4526,4.4783,4.4927,4.4783,4.4985,4.5557,0.0,0.0,0.0,4.3177,4.3719,4.5337,4.5337,4.5115,4.4782,4.5371,4.5372,4.5132,4.5535,4.57,4.57,4.57,4.5535,4.5278,4.5003,4.4728,4.4471,4.4343,4.438,4.4563,4.4966,4.5187,4.5388,4.5961,4.5978,4.5978,4.6259,4.6259,4.6166,4.6353,4.6635,4.6822,4.6822,4.7476,4.8088,4.8138,4.8143,4.8262,4.8418,4.8203,4.7871,4.7461,4.7871,0.0,0.0,0.0,0.0,0.0,0.0,4.1172,0.0,4.0508,0.0,0.0,0.0,0.0,0.0,0.0,0.0,0.0,4.3144,0.0,4.2246,4.3672,4.4394,4.4414,4.481,4.5461,4.6113,4.623,4.6308,4.6308,4.6308,4.6308,4.6308,4.6308,4.6308,4.6308,4.6308,4.6308,4.6308,4.6308,4.6308,4.6308,4.7009,4.6728,4.6541,4.6728,4.6541,4.6353,4.6166,4.6353,4.6353,4.5978,4.6072,4.6072,4.5883,4.5535,0.0,4.5517,4.5188,4.4948,4.4948,4.48,4.4616,4.4357,4.4544,4.4819,4.4982,4.4984,0.0,4.5796,4.4864,4.4745,4.5494,4.49,4.5291,4.636,4.636,4.6086,4.5739,4.6076,4.6076,4.5815,4.5886,4.5883,4.5883,4.5883,4.5737,4.5498,4.5352,4.5132,4.4875,4.4728,4.4673,4.4746,4.5168,4.5297,4.537,4.5773,4.5883,4.5883,4.5883,4.5883,4.5883,4.5883,4.6166,4.6353,4.6541,4.7102,4.7569,4.7755,4.8007,4.826,4.8532,4.8541,4.8457,4.8457,4.8535,4.8203,4.7031,0.0,0.0,0.0,0.0,0.0,0.0,4.2441,0.0,0.0,0.0,0.0,0.0,0.0,0.0,4.2383,4.3848,0.0,4.3183,4.4141,4.4707,4.4883,4.5586,4.6055,4.6308,4.6308,4.6308,4.6308,4.6308,4.6308,4.6308,4.6308,4.6308,4.6308,4.6308,4.6308,4.6308,4.6308,4.6308,4.6308,4.8682,4.8034,4.7588,4.796,4.7662,4.7196,4.6728,4.7102,4.7009,4.6166,4.6353,4.6447,4.6072,4.5647,4.5592,4.5941,0.0,0.0,4.5386,4.505,4.4827,4.4789,4.4799,4.4912,4.5298,4.5408,4.5514,4.557,4.5197,4.5148,4.5426,4.5482,4.5868,4.6703,4.6722,4.6979,4.7366,4.6933,4.6728,4.6635,4.6166,4.5978,4.5978,4.5978,4.5883,4.5847,4.548,4.5352,4.5278,4.4893,4.4746,4.4838,4.526,4.5388,4.5443,4.5792,4.5883,4.5883,4.5883,4.5883,4.5883,4.5883,4.5883,4.5978,4.6447,4.6541,4.6728,4.7196,4.7755,4.8034,4.8127,4.8497,4.8867,4.8848,4.8418,4.7519,4.5898,0.0,0.0,0.0,0.0,0.0,0.0,4.5058,4.5391,0.0,0.0,0.0,0.0,0.0,4.2305,4.4375,4.4844,4.4863,4.4453,4.4863,4.5293,4.5723,4.6113,4.6308,4.6308,4.6308,4.6308,4.6308,4.6308,4.6308,4.6308,4.6308,4.6308,4.6308,4.6308,4.6308,4.6308,4.6308,4.6308,4.6308,0.0,0.0,4.7401,4.7588,4.7495,4.7401,4.7215,4.7308,4.7308,4.7121,4.7102,4.7196,4.7009,4.6934,4.6915,4.7009,4.5705,4.4856,4.4856,4.5129,4.5106,4.4808,4.5153,4.5337,4.545,4.5747,4.6253,4.6913,4.6819,4.6875,4.6878,4.6486,4.6392,4.6672,4.7064,4.7045,4.6859,4.7438,4.7569,4.7196,4.7102,4.6822,4.6447,4.6447,4.6166,4.5883,4.5773,4.5755,4.5737,4.5627,4.5608,4.5682,4.6067,4.6195,4.6158,4.5957,4.5883,4.5883,4.5883,4.5883,4.5883,4.5883,4.5883,4.5883,4.6072,4.6353,4.6635,4.6728,4.7196,4.7681,4.8034,4.8219,4.8405,4.8867,4.7676,4.6504,4.5781,4.4805,0.0,0.0,4.3164,4.3945,4.4922,4.5332,4.5469,0.0,0.0,0.0,0.0,4.3691,4.3652,4.4844,4.5293,4.5312,4.4883,4.5312,4.5742,4.6152,4.625,4.6308,4.6308,4.6308,4.6308,4.6308,4.6308,4.6308,4.6308,4.6308,4.6308,4.6308,4.6308,4.6308,4.6308,4.6308,4.6308,4.6348,4.8127,4.8127,4.8127,4.8127,4.8127,4.8034,4.7755,4.7941,4.7941,4.7495,4.7588,4.7681,4.7401,4.7401,4.7401,4.7401,4.6334,4.5684,4.594,4.5776,4.568,4.572,4.5709,4.5709,4.5792,4.6181,4.6614,4.709,4.709,4.7094,4.7117,4.6728,4.6822,4.7289,4.7401,4.7476,4.7662,4.7941,4.7941,4.7681,4.7495,4.7102,4.6635,4.6635,4.6353,4.5883,4.5883,4.6072,4.6166,4.5978,4.6072,4.6239,4.6455,4.647,4.647,4.6452,4.6305,4.6158,4.6158,4.603,4.5883,4.5883,4.5883,4.5883,4.5883,4.6072,4.6259,4.6259,4.6916,4.7495,4.7774,4.8127,4.859,4.8867,4.7422,4.623,4.5996,4.4668,4.375,4.3887,4.4141,4.4805,4.6074,4.623,4.6152,4.5918,4.5723,0.0,4.5,4.4746,4.4824,4.5312,4.5547,4.5566,4.5332,4.5742,4.6074,4.6308,4.6308,4.6308,4.6308,4.6308,4.6308,4.6308,4.6308,4.6308,4.6308,4.6308,4.6308,4.6308,4.6308,4.6308,4.6328,4.6523,4.6582,4.666,4.8965,4.8965,4.8945,4.8867,4.8867,4.8775,4.8312,4.859,4.859,4.7755,4.7941,4.8034,4.7662,4.7662,4.7662,4.7662,4.7153,4.7036,4.7477,4.676,4.6479,4.6863,4.6568,4.6312,4.6299,4.672,4.6992,4.7024,4.7082,4.704,4.6871,4.684,4.7196,4.796,4.7681,4.7941,4.8775,4.8405,4.8219,4.8219,4.7755,4.7289,4.6822,4.6728,4.6447,4.6072,4.5978,4.6259,4.6541,4.6259,4.6259,4.6521,4.6532,4.6621,4.6654,4.7075,4.6947,4.6654,4.658,4.6287,4.5975,4.5975,4.5938,4.5883,4.5883,4.5883,4.5883,4.5883,4.6541,4.7215,4.7308,4.8034,4.8585,4.8424,4.7031,4.5879,4.582,0.0,4.4082,4.5332,4.5449,4.5937,4.7266,4.7109,4.6894,4.6836,4.6504,4.6152,4.5781,4.5781,4.5781,4.5781,4.5781,4.5781,4.5781,4.6133,4.6308,4.6308,4.6308,4.6308,4.6308,4.6308,4.6308,4.6308,4.6308,4.6308,4.6308,4.6308,4.6308,4.6308,4.6367,4.6406,4.6445,4.6875,4.7031,4.709,4.9492,4.9414,4.9297,4.8926,4.8867,4.8867,4.8775,4.8867,4.8848,4.8682,4.8775,4.8775,4.8682,4.8682,4.8682,4.8682,4.8162,4.7752,4.7474,4.766,4.7653,4.7396,4.7708,4.7728,4.7285,4.765,4.7945,4.8014,4.8385,4.8323,4.7845,4.7922,4.7755,4.7495,4.7848,4.8034,4.8219,4.859,4.8775,4.8775,4.8682,4.8312,4.7848,4.7401,4.7215,4.7102,4.6635,4.6541,4.6635,4.7009,4.6635,4.6145,4.6817,4.6996,4.7094,4.7479,4.7552,4.7442,4.7094,4.6709,4.6379,4.6379,4.614,4.5883,4.5883,4.5883,4.5883,4.5883,4.5978,4.6259,4.6635,4.7196,4.7297,4.6311,4.4978,4.3984,4.3633,4.334,4.3535,4.4473,4.6133,4.7012,4.6543,4.6758,4.6777,4.6426,4.6348,4.6269,4.6211,4.6211,4.6211,4.6211,4.6211,4.6211,4.6211,4.6269,4.6308,4.6308,4.6308,4.6308,4.6308,4.6308,4.6308,4.6308,4.6308,4.6308,4.6308,4.6308,4.6308,4.6328,4.6699,4.6836,4.6875,4.7324,4.748,4.7539,4.9922,4.9687,4.9453,4.9258,4.9023,4.8867,4.8867,4.8867,4.8867,4.8867,4.8867,4.8867,4.8867,4.8867,4.8867,4.8867,4.8682,4.8405,4.8219,4.7941,4.7749,4.7858,4.7838,4.7838,4.7838,4.7819,4.791,4.8203,4.8418,4.8424,4.8148,4.8123,4.8127,4.8219,4.8127,4.8219,4.859,4.8775,4.8867,4.8867,4.8867,4.859,4.8034,4.7867,4.7476,4.7009,4.7009,4.7009,4.7102,4.7308,4.7289,4.7178,4.7498,4.7362,4.7276,4.7905,4.7895,4.7552,4.6929,4.6617,4.6434,4.6213,4.6177,4.6213,4.6213,4.6213,4.6269,4.6507,4.6385,4.6521,4.7197,4.7438,4.7117,4.6102,4.5063,4.4433,4.4473,4.4277,4.4531,4.5625,4.6621,4.6992,4.6367,4.6484,4.6504,4.6308,4.6308,4.6308,4.6308,4.6308,4.6308,4.6308,4.6308,4.6308,4.6308,4.6308,4.6308,4.6308,4.6308,4.6308,4.6308,4.6308,4.6308,4.6308,4.6308,4.6426,4.6641,4.6641,4.6777,4.7012,4.7207,4.7285,4.7324,4.7754,4.791,4.7988,5.0351,5.0058,4.9766,4.957,4.9238,4.8984,4.8867,4.8867,4.8867,4.8867,4.8867,4.8867,4.8867,4.8867,4.8808,4.8711,4.8808,4.8808,4.8711,4.8162,4.788,4.8379,4.7993,4.7955,4.8203,4.7891,4.7891,4.8203,4.8203,4.8262,4.8359,4.8342,4.8497,4.8848,4.8497,4.8497,4.8867,4.8867,4.8867,4.8867,4.8867,4.8682,4.8312,4.8127,4.7662,4.7196,4.7476,4.7588,4.7588,4.7662,4.7848,4.7905,4.8043,4.7724,4.7552,4.8092,4.8062,4.7521,4.68,4.6544,4.6397,4.6103,4.6177,4.6342,4.6342,4.6342,4.6434,4.6764,4.6608,4.6634,4.7422,4.7512,4.7184,4.6083,4.5569,4.541,4.5644,4.5391,4.5644,4.6933,4.709,4.6953,4.6641,4.6601,4.6601,4.6601,4.6601,4.6601,4.6601,4.6601,4.6601,4.6601,4.6406,4.6308,4.6308,4.6308,4.6308,4.6308,4.6406,4.6445,4.6445,4.6543,4.6601,4.6601,4.6601,4.6777,4.709,4.709,4.7285,4.7598,4.7695,4.7734,4.7773,4.8203,4.8359,4.8398,5.084,5.0742,5.0469,4.9668,4.9492,4.9336,4.8926,4.8867,4.8867,4.8867,4.8867,4.8867,4.8867,4.8867,4.8691,4.8281,4.8633,4.8691,4.8281,4.8633,4.8848,4.8808,4.8808,4.8613,4.8223,4.8183,4.8183,4.8203,4.8203,4.8418,4.8808,4.8848,4.8848,4.8867,4.8867,4.8848,4.8867,4.8867,4.8867,4.8867,4.8867,4.8848,4.8775,4.8312,4.8405,4.8663,4.8219,4.8053,4.8127,4.859,4.8219,4.7495,4.7998,4.7967,4.7913,4.7989,4.7891,4.771,4.7172,4.6782,4.647,4.6434,4.6177,4.5938,4.5938,4.5938,4.5938,4.5975,4.5938,4.5996,4.6014,4.6822,4.6906,4.5148,4.5618,4.6094,4.5723,4.5644,4.6094,4.7383,4.7539,4.7519,4.748,4.748,4.748,4.748,4.748,4.748,4.748,4.748,4.748,4.748,4.6719,4.6308,4.6308,4.6308,4.6308,4.6308,4.6699,4.6875,4.6894,4.7305,4.748,4.748,4.748,4.75,4.7539,4.7539,4.7558,4.7617,4.8008,4.8164,4.8223,4.8652,4.8808,4.8808,5.123,5.0976,5.0625,5.0039,4.9707,4.9375,4.8926,4.8867,4.8867,4.8867,4.8867,4.8867,4.8867,4.8613,4.8379,4.8223,4.8125,4.7988,4.7832,4.7715,4.7891,4.8437,4.8711,4.8652,4.8223,4.8203,4.834,4.8613,4.834,4.8437,4.8867,4.8867,4.8867,4.8867,4.8867,4.8867,4.8867,4.8867,4.8867,4.8867,4.8867,4.8867,4.8848,4.8682,4.8497,4.8405,4.859,4.8405,4.8127,4.8682,4.8682,4.8405,4.8497,4.8335,4.8003,4.7722,4.7724,4.7722,4.6986,4.6701,4.6415,4.6177,4.6177,4.625,4.625,4.625,4.6324,4.658,4.625,4.6051,4.6574,4.6597,4.6274,4.5465,4.603,4.6315,4.5367,4.5909,4.6586,4.705,4.7108,4.7199,4.7578,4.7578,4.7578,4.7578,4.7578,4.7578,4.7578,4.7578,4.7578,4.7578,4.7266,4.709,4.709,4.709,4.709,4.709,4.7266,4.7324,4.7344,4.75,4.7578,4.7578,4.7578,4.7734,4.7969,4.7969,4.8125,4.8379,4.8555,4.8613,4.8633,4.8789,4.8867,4.8867,5.1426,5.1191,5.0859,5.0449,5.0019,4.959,4.9141,4.8945,4.8808,4.8672,4.8652,4.8613,4.8476,4.8183,4.7949,4.7812,4.7676,4.7519,4.7383,4.7226,4.7324,4.7793,4.8359,4.8457,4.8027,4.8008,4.8223,4.8652,4.8359,4.8437,4.8867,4.8867,4.8867,4.8867,4.8867,4.8867,4.8867,4.8867,4.8867,4.8867,4.8867,4.8867,4.8867,4.8867,4.8682,4.8405,4.8775,4.8682,4.8405,4.8775,4.8867,4.8867,4.8867,4.8682,4.8219,4.7755,4.7778,4.7836,4.7084,4.684,4.6611,4.6051,4.6085,4.6287,4.6287,4.6287,4.6379,4.6672,4.6287,4.6069,4.6705,4.6504,4.613,4.5901,4.6514,4.6662,4.5821,4.6433,4.6968,4.6968,4.6968,4.7151,4.7716,4.7716,4.7807,4.7988,4.7988,4.7988,4.7988,4.7988,4.7988,4.7988,4.7988,4.7988,4.7988,4.7715,4.7578,4.7578,4.7715,4.7773,4.7773,4.793,4.7988,4.7988,4.7988,4.8144,4.8418,4.8418,4.8594,4.8867,4.8867,4.8867,4.8867,4.8867,4.8867,4.8867,5.1426,5.1426,5.1308,5.0879,5.0449,5.0039,4.959,4.9141,4.8711,4.8262,4.8203,4.8047,4.7617,4.7578,4.7402,4.6973,4.7324,4.7383,4.6953,4.7344,4.7383,4.6953,4.7754,4.8008,4.7578,4.7578,4.7773,4.8203,4.8203,4.8418,4.8848,4.8867,4.8867,4.8867,4.8867,4.8867,4.8867,4.8867,4.8867,4.8867,4.8867,4.8867,4.8867,4.894,4.894,4.8867,4.894,4.8867,4.8867,4.8867,4.8867,4.8867,4.8867,4.8867,4.8775,4.8219,4.8146,4.8034,4.7476,4.7401,4.7121,4.6166,4.5883,4.5883,4.5883,4.5883,4.5883,4.5883,4.5883,4.5883,4.5883,4.6259,4.6635,4.6635,4.7009,4.7401,4.7401,4.7401,4.7401,4.7401,4.7401,4.7588,4.8053,4.8127,4.8312,4.8867,4.8867,4.8848,4.8848,4.8867,4.8867,4.8867,4.8867,4.8867,4.8867,4.8008,4.7598,4.7598,4.8008,4.8223,4.8223,4.8672,4.8867,4.8867,4.8867,4.8867,4.8867,4.8867,4.8867,4.8867,4.8867,4.8867,4.8867,4.8867,4.8867,4.8867,5.1426,5.1426,5.1308,5.0879,5.0449,5.0039,4.959,4.9141,4.8711,4.8262,4.8203,4.8047,4.7617,4.7305,4.707,4.6933,4.6777,4.6758,4.6914,4.7344,4.7383,4.6953,4.7461,4.7558,4.7129,4.7129,4.7344,4.7773,4.7773,4.7988,4.8418,4.8711,4.8867,4.8867,4.8867,4.8867,4.8867,4.8867,4.8867,4.8867,4.8867,4.8867,4.8828,4.8516,4.8594,4.8808,4.8516,4.8594,4.8867,4.8867,4.8867,4.8867,4.8867,4.8867,4.8867,4.8682,4.8682,4.859,4.8034,4.7867,4.7662,4.6635,4.6353,4.6259,4.5978,4.5883,4.5883,4.5883,4.5883,4.5883,4.5883,4.5978,4.6259,4.6541,4.6728,4.6822,4.6822,4.6822,4.6822,4.6822,4.6822,4.7009,4.7588,4.7588,4.7681,4.7848,4.8127,4.8312,4.8312,4.8682,4.8867,4.8867,4.8867,4.8867,4.8867,4.8594,4.8476,4.8476,4.8613,4.8672,4.8672,4.8808,4.8867,4.8867,4.8867,4.8867,4.8867,4.8867,4.8867,4.8867,4.8867,4.8867,4.8867,4.8867,4.8867,4.8867,5.1426,5.1426,5.1348,5.1094,5.0566,5.0039,4.959,4.9004,4.8379,4.7773,4.7695,4.7539,4.7129,4.6836,4.668,4.668,4.6601,4.6738,4.7168,4.7441,4.7383,4.6953,4.7187,4.7129,4.6699,4.7012,4.7324,4.7578,4.791,4.8223,4.8476,4.873,4.8867,4.8848,4.8672,4.8691,4.8848,4.8672,4.8691,4.8867,4.8867,4.8867,4.8808,4.8379,4.8379,4.8574,4.8301,4.8379,4.8633,4.8808,4.8867,4.8867,4.8867,4.8867,4.8867,4.8867,4.8867,4.8867,4.8497,4.8405,4.8219,4.7382,4.7009,4.6822,4.6541,4.6353,4.6166,4.6166,4.5978,4.5883,4.5883,4.5883,4.5978,4.6259,4.6353,4.6353,4.6353,4.6353,4.6353,4.6353,4.6353,4.6541,4.7009,4.7102,4.7289,4.7681,4.7941,4.8219,4.8405,4.8682,4.8867,4.8867,4.8867,4.8867,4.8867,4.8867,4.8867,4.8867,4.8867,4.8867,4.8867,4.8867,4.8867,4.8867,4.8867,4.8867,4.8867,4.8867,4.8867,4.8867,4.8867,4.8867,4.8867,4.8867,4.8867,4.8867,5.1426,5.1406,5.1387,5.1426,5.0703,4.998,4.959,4.8769,4.7891,4.7031,4.6933,4.6777,4.6406,4.6367,4.6367,4.6367,4.6699,4.7129,4.7598,4.7637,4.7441,4.7012,4.6992,4.6777,4.6308,4.707,4.748,4.7519,4.834,4.8769,4.8808,4.8848,4.8867,4.8848,4.8437,4.8476,4.8828,4.8437,4.8496,4.8867,4.8867,4.8867,4.8808,4.834,4.8164,4.8203,4.8125,4.8144,4.8281,4.8711,4.8867,4.8867,4.8867,4.8867,4.8867,4.8867,4.8867,4.8867,4.8867,4.8867,4.8775,4.8312,4.7848,4.7476,4.7401,4.7009,4.6635,4.6635,4.6353,4.5978,4.5978,4.5978,4.5978,4.5978,4.5978,4.5978,4.5883,4.5883,4.5883,4.5883,4.5883,4.5978,4.6447,4.6447,4.6916,4.7848,4.7941,4.8219,4.8775,4.8867,4.8867,4.8867,4.8867,4.8867,4.8867,4.8867,4.8867,4.8867,4.8867,4.8867,4.8867,4.8867,4.8867,4.8867,4.8867,4.8867,4.8867,4.8867,4.8867,4.8867,4.8867,4.8867,4.8867,4.8867,4.8867,4.8775,5.1426,5.1172,5.1035,5.1367,5.0449,4.9629,4.9551,4.8769,4.7891,4.7031,4.6933,4.6894,4.6797,4.6797,4.6797,4.6797,4.6875,4.7246,4.8027,4.8066,4.7871,4.7461,4.7441,4.709,4.6328,4.6484,4.6738,4.707,4.7598,4.8027,4.8359,4.8691,4.8867,4.894,4.875,4.8769,4.8848,4.875,4.8769,4.8867,4.8867,4.8867,4.8769,4.8008,4.793,4.8125,4.7441,4.7637,4.8281,4.8711,4.8867,4.8867,4.8867,4.8867,4.8867,4.8867,4.8867,4.8867,4.8867,4.8867,4.8867,4.8775,4.8682,4.8405,4.7569,4.7289,4.7215,4.7215,4.7102,4.7102,4.7102,4.7102,4.6916,4.6541,4.6447,4.6353,4.5978,4.5883,4.5883,4.5883,4.5506,4.5318,4.5412,4.5412,4.5695,4.6353,4.7102,4.7569,4.7755,4.8497,4.8867,4.8867,4.8867,4.8867,4.8867,4.8867,4.8867,4.8867,4.8867,4.8867,4.8867,4.8867,4.8867,4.8867,4.8867,4.8867,4.8867,4.8867,4.8867,4.8867,4.8867,4.8867,4.8867,4.8867,4.859,4.8219,5.1172,5.0957,5.082,5.082,5.0273,4.9766,4.9551,4.8769,4.7969,4.7324,4.6875,4.6641,4.6641,4.6816,4.7012,4.7226,4.7246,4.7422,4.7871,4.8086,4.793,4.7285,4.7266,4.6973,4.6308,4.6504,4.6816,4.7246,4.7871,4.8301,4.8516,4.875,4.8867,4.8848,4.8633,4.8672,4.8848,4.8633,4.8672,4.8867,4.8867,4.8867,4.8789,4.8125,4.7891,4.7851,4.7402,4.7519,4.7969,4.8398,4.8555,4.8594,4.8789,4.8867,4.8867,4.8867,4.857,4.8293,4.8755,4.857,4.82,4.82,4.857,4.8775,4.8219,4.7941,4.7774,4.7774,4.7588,4.7401,4.7401,4.7401,4.7308,4.7009,4.7009,4.6822,4.6259,4.6259,4.6072,4.5601,4.5506,4.5412,4.5129,4.4939,4.4939,4.5506,4.6447,4.7102,4.7382,4.8385,4.8867,4.8867,4.8867,4.8867,4.8867,4.8867,4.8867,4.8867,4.8867,4.8867,4.8867,4.8867,4.8867,4.8867,4.8867,4.8867,4.8867,4.8867,4.8867,4.8867,4.8867,4.8867,4.8867,4.8867,4.8405,4.7662,5.0879,5.0742,5.0586,5.0234,5.0058,4.9824,4.9473,4.873,4.8066,4.7637,4.6894,4.6465,4.6621,4.6875,4.7207,4.7656,4.7558,4.75,4.7578,4.791,4.7754,4.6973,4.6933,4.6758,4.6426,4.6816,4.7226,4.7578,4.8359,4.8789,4.8867,4.8789,4.8789,4.8848,4.8398,4.8457,4.8828,4.8476,4.8476,4.875,4.8828,4.8808,4.8711,4.834,4.7988,4.7676,4.7598,4.7527,4.7483,4.7891,4.7955,4.7921,4.8473,4.8682,4.8663,4.8867,4.82,4.7531,4.8385,4.7922,4.7177,4.7177,4.7736,4.8385,4.8385,4.8219,4.7941,4.7941,4.7569,4.7215,4.7382,4.7289,4.7196,4.7215,4.7121,4.6822,4.6259,4.6259,4.5883,4.5034,4.5412,4.5601,4.5129,4.4939,4.4939,4.5318,4.6259,4.7009,4.7364,4.8385,4.8867,4.8867,4.8867,4.8867,4.8867,4.8867,4.8867,4.8867,4.8867,4.8867,4.8867,4.8867,4.8867,4.8867,4.8867,4.8867,4.8867,4.8867,4.8867,4.8867,4.8867,4.8867,4.8867,4.8775,4.8219,4.7308,5.0879,5.0508,5.0254,5.0195,4.9551,4.9023,4.8965,4.8535,4.8066,4.7637,4.7148,4.7129,4.7871,4.7676,4.7656,4.8086,4.7441,4.7187,4.7558,4.7637,4.7441,4.6953,4.6933,4.6894,4.6836,4.7266,4.7519,4.7578,4.8066,4.8496,4.8848,4.8476,4.8496,4.8848,4.8398,4.8457,4.894,4.8789,4.8594,4.832,4.8711,4.8633,4.8281,4.8223,4.8164,4.8066,4.7715,4.7269,4.6884,4.7303,4.6915,4.6373,4.727,4.7569,4.7736,4.8663,4.82,4.7438,4.755,4.6897,4.6072,4.6072,4.6166,4.6353,4.6353,4.6897,4.7457,4.7457,4.671,4.6353,4.727,4.6728,4.6259,4.6635,4.5978,4.5223,4.475,4.4673,4.4655,4.4483,4.4939,4.5223,4.5129,4.5789,4.6353,4.6353,4.7289,4.7755,4.7382,4.8312,4.8867,4.8867,4.8867,4.8867,4.8867,4.8867,4.8867,4.8867,4.8867,4.8867,4.8867,4.8867,4.8867,4.8867,4.8867,4.8867,4.8867,4.8867,4.8867,4.8867,4.8867,4.8867,4.8867,4.8405,4.7848,4.7401,5.0215,4.9941,4.9726,4.9473,4.9316,4.9238,4.9238,4.8848,4.8496,4.832,4.7715,4.7441,4.7812,4.748,4.7383,4.7812,4.7285,4.6914,4.6875,4.709,4.7129,4.6933,4.6699,4.6699,4.6933,4.7109,4.7226,4.7226,4.8125,4.8672,4.894,4.8672,4.8535,4.8476,4.8301,4.8183,4.8144,4.8144,4.8164,4.8223,4.8418,4.824,4.7727,4.7727,4.7205,4.6479,4.6083,4.5772,4.5611,4.602,4.589,4.5759,4.7008,4.7364,4.7438,4.7922,4.7364,4.6522,4.6522,4.5789,4.5052,4.5052,4.5506,4.5789,4.5223,4.5412,4.5865,4.6429,4.6259,4.6072,4.6429,4.6166,4.5978,4.6166,4.5883,4.5412,4.4845,4.475,4.4655,4.4483,4.4085,4.418,4.5034,4.5223,4.5601,4.6166,4.7177,4.7476,4.7009,4.8219,4.8775,4.8497,4.8775,4.8867,4.8867,4.8867,4.8867,4.8867,4.8867,4.8867,4.8867,4.8867,4.8867,4.8867,4.8867,4.8867,4.8867,4.8867,4.8867,4.8867,4.8867,4.8867,4.8867,4.8312,4.7755,4.7401]}]]